<?xml version="1.0" encoding="utf-8"?>
<gpx xmlns:xsi="http://www.w3.org/2001/XMLSchema-instance" xmlns:xsd="http://www.w3.org/2001/XMLSchema" version="1.1" creator="Shapelink.com" xmlns="http://www.topografix.com/GPX/1/1" xmlns:gpxtpx="http://www.garmin.com/xmlschemas/TrackPointExtension/v1">
  <metadata>
    <name>Löpning 6.84 km, 2017-12-18</name>
    <desc></desc>
    <author><name>Bengt-Åke Forslund</name></author> 
    <time>2017-12-18T18:09:07Z</time>
  </metadata>
  <trk>
    <name>Löpning 6.84 km, 2017-12-18</name>
    <trkseg>
      <trkpt lat="62.637347692231" lon="17.966122283311">
        <ele>55.4</ele>
        <time>2017-12-18T18:09:07Z</time>
      </trkpt>
      <trkpt lat="62.637345596756" lon="17.966149021572">
        <ele>55.4</ele>
        <time>2017-12-18T18:09:08Z</time>
      </trkpt>
      <trkpt lat="62.637320367237" lon="17.966100071276">
        <ele>55.4</ele>
        <time>2017-12-18T18:09:12Z</time>
      </trkpt>
      <trkpt lat="62.637328916775" lon="17.966101077104">
        <ele>55.4</ele>
        <time>2017-12-18T18:09:13Z</time>
      </trkpt>
      <trkpt lat="62.637320031961" lon="17.96606453202">
        <ele>55.2</ele>
        <time>2017-12-18T18:09:14Z</time>
      </trkpt>
      <trkpt lat="62.637308045844" lon="17.966045672745">
        <ele>55.2</ele>
        <time>2017-12-18T18:09:15Z</time>
      </trkpt>
      <trkpt lat="62.637308632577" lon="17.966055982482">
        <ele>55</ele>
        <time>2017-12-18T18:09:16Z</time>
      </trkpt>
      <trkpt lat="62.637317182115" lon="17.966045421288">
        <ele>54.8</ele>
        <time>2017-12-18T18:09:17Z</time>
      </trkpt>
      <trkpt lat="62.637296981736" lon="17.96598490397">
        <ele>54.6</ele>
        <time>2017-12-18T18:09:18Z</time>
      </trkpt>
      <trkpt lat="62.6372932937" lon="17.965949448533">
        <ele>54.8</ele>
        <time>2017-12-18T18:09:19Z</time>
      </trkpt>
      <trkpt lat="62.637294383347" lon="17.965900917332">
        <ele>54.8</ele>
        <time>2017-12-18T18:09:20Z</time>
      </trkpt>
      <trkpt lat="62.637295892089" lon="17.965873676157">
        <ele>55</ele>
        <time>2017-12-18T18:09:21Z</time>
      </trkpt>
      <trkpt lat="62.637298406659" lon="17.965848530457">
        <ele>55.2</ele>
        <time>2017-12-18T18:09:22Z</time>
      </trkpt>
      <trkpt lat="62.637298909573" lon="17.965827156612">
        <ele>55.2</ele>
        <time>2017-12-18T18:09:23Z</time>
      </trkpt>
      <trkpt lat="62.637171420874" lon="17.966206521406">
        <ele>55.2</ele>
        <time>2017-12-18T18:09:38Z</time>
      </trkpt>
      <trkpt lat="62.637167732838" lon="17.966208365424">
        <ele>55</ele>
        <time>2017-12-18T18:09:39Z</time>
      </trkpt>
      <trkpt lat="62.637163038974" lon="17.966224123396">
        <ele>55</ele>
        <time>2017-12-18T18:09:40Z</time>
      </trkpt>
      <trkpt lat="62.637136384532" lon="17.966176430385">
        <ele>55</ele>
        <time>2017-12-18T18:09:41Z</time>
      </trkpt>
      <trkpt lat="62.63711140647" lon="17.96619864242">
        <ele>55.2</ele>
        <time>2017-12-18T18:09:42Z</time>
      </trkpt>
      <trkpt lat="62.637142838595" lon="17.966160756232">
        <ele>55.2</ele>
        <time>2017-12-18T18:09:43Z</time>
      </trkpt>
      <trkpt lat="62.637172510521" lon="17.966128821193">
        <ele>55.4</ele>
        <time>2017-12-18T18:09:44Z</time>
      </trkpt>
      <trkpt lat="62.637170247408" lon="17.966124546424">
        <ele>55.4</ele>
        <time>2017-12-18T18:09:45Z</time>
      </trkpt>
      <trkpt lat="62.637167732838" lon="17.966120942207">
        <ele>55.4</ele>
        <time>2017-12-18T18:09:46Z</time>
      </trkpt>
      <trkpt lat="62.637179802774" lon="17.966118259999">
        <ele>55.4</ele>
        <time>2017-12-18T18:09:47Z</time>
      </trkpt>
      <trkpt lat="62.637186759751" lon="17.96612907265">
        <ele>55.4</ele>
        <time>2017-12-18T18:09:48Z</time>
      </trkpt>
      <trkpt lat="62.637156333454" lon="17.966115158696">
        <ele>55.4</ele>
        <time>2017-12-18T18:09:49Z</time>
      </trkpt>
      <trkpt lat="62.637140407844" lon="17.966145668812">
        <ele>55.4</ele>
        <time>2017-12-18T18:09:50Z</time>
      </trkpt>
      <trkpt lat="62.637128254089" lon="17.966165701553">
        <ele>55.4</ele>
        <time>2017-12-18T18:09:51Z</time>
      </trkpt>
      <trkpt lat="62.637108975719" lon="17.966184560828">
        <ele>55.4</ele>
        <time>2017-12-18T18:09:52Z</time>
      </trkpt>
      <trkpt lat="62.637117357619" lon="17.966169389589">
        <ele>55.4</ele>
        <time>2017-12-18T18:09:53Z</time>
      </trkpt>
      <trkpt lat="62.637132696496" lon="17.966150111219">
        <ele>55.4</ele>
        <time>2017-12-18T18:09:54Z</time>
      </trkpt>
      <trkpt lat="62.637132445039" lon="17.966150949409">
        <ele>55.4</ele>
        <time>2017-12-18T18:09:55Z</time>
      </trkpt>
      <trkpt lat="62.637139402016" lon="17.966141980776">
        <ele>55.4</ele>
        <time>2017-12-18T18:09:56Z</time>
      </trkpt>
      <trkpt lat="62.63713655217" lon="17.966146004088">
        <ele>55.4</ele>
        <time>2017-12-18T18:09:57Z</time>
      </trkpt>
      <trkpt lat="62.637140826939" lon="17.966137370731">
        <ele>55.4</ele>
        <time>2017-12-18T18:09:58Z</time>
      </trkpt>
      <trkpt lat="62.637810708387" lon="17.965596151448">
        <ele>54.8</ele>
        <time>2017-12-18T18:12:10Z</time>
      </trkpt>
      <trkpt lat="62.637826550178" lon="17.965562288572">
        <ele>54.8</ele>
        <time>2017-12-18T18:12:11Z</time>
      </trkpt>
      <trkpt lat="62.637738624047" lon="17.965620626596">
        <ele>54.8</ele>
        <time>2017-12-18T18:12:12Z</time>
      </trkpt>
      <trkpt lat="62.637632257736" lon="17.965666978503">
        <ele>55</ele>
        <time>2017-12-18T18:12:13Z</time>
      </trkpt>
      <trkpt lat="62.637516503697" lon="17.965691956565">
        <ele>55.2</ele>
        <time>2017-12-18T18:12:15Z</time>
      </trkpt>
      <trkpt lat="62.637479874794" lon="17.965703020673">
        <ele>55.2</ele>
        <time>2017-12-18T18:12:16Z</time>
      </trkpt>
      <trkpt lat="62.637486496495" lon="17.965708049813">
        <ele>55.2</ele>
        <time>2017-12-18T18:12:17Z</time>
      </trkpt>
      <trkpt lat="62.637482137907" lon="17.96571333041">
        <ele>55.2</ele>
        <time>2017-12-18T18:12:18Z</time>
      </trkpt>
      <trkpt lat="62.637485574486" lon="17.965711570211">
        <ele>55.4</ele>
        <time>2017-12-18T18:12:19Z</time>
      </trkpt>
      <trkpt lat="62.637484233382" lon="17.96572003593">
        <ele>55.4</ele>
        <time>2017-12-18T18:12:20Z</time>
      </trkpt>
      <trkpt lat="62.637395636699" lon="17.965848949552">
        <ele>55.4</ele>
        <time>2017-12-18T18:12:21Z</time>
      </trkpt>
      <trkpt lat="62.63734190872" lon="17.965946011954">
        <ele>55.4</ele>
        <time>2017-12-18T18:12:22Z</time>
      </trkpt>
      <trkpt lat="62.637280553212" lon="17.96599747682">
        <ele>55.4</ele>
        <time>2017-12-18T18:12:23Z</time>
      </trkpt>
      <trkpt lat="62.637234452762" lon="17.965994375517">
        <ele>55.4</ele>
        <time>2017-12-18T18:12:24Z</time>
      </trkpt>
      <trkpt lat="62.637207295406" lon="17.965987753816">
        <ele>55.2</ele>
        <time>2017-12-18T18:12:25Z</time>
      </trkpt>
      <trkpt lat="62.637182568801" lon="17.965987921454">
        <ele>55</ele>
        <time>2017-12-18T18:12:26Z</time>
      </trkpt>
      <trkpt lat="62.637171169417" lon="17.965975600061">
        <ele>54.8</ele>
        <time>2017-12-18T18:12:27Z</time>
      </trkpt>
      <trkpt lat="62.637163960983" lon="17.965952549836">
        <ele>54.8</ele>
        <time>2017-12-18T18:12:28Z</time>
      </trkpt>
      <trkpt lat="62.637166140277" lon="17.965938384425">
        <ele>54.6</ele>
        <time>2017-12-18T18:12:29Z</time>
      </trkpt>
      <trkpt lat="62.637164128621" lon="17.965913909277">
        <ele>54.6</ele>
        <time>2017-12-18T18:12:30Z</time>
      </trkpt>
      <trkpt lat="62.637160692042" lon="17.96589102669">
        <ele>54.6</ele>
        <time>2017-12-18T18:12:31Z</time>
      </trkpt>
      <trkpt lat="62.637158680386" lon="17.965869652845">
        <ele>54.6</ele>
        <time>2017-12-18T18:12:32Z</time>
      </trkpt>
      <trkpt lat="62.637155327626" lon="17.965842998403">
        <ele>54.4</ele>
        <time>2017-12-18T18:12:33Z</time>
      </trkpt>
      <trkpt lat="62.637151555771" lon="17.965832521028">
        <ele>54.4</ele>
        <time>2017-12-18T18:12:34Z</time>
      </trkpt>
      <trkpt lat="62.637144263518" lon="17.965806453319">
        <ele>54.4</ele>
        <time>2017-12-18T18:12:35Z</time>
      </trkpt>
      <trkpt lat="62.637136049256" lon="17.96577116552">
        <ele>54.4</ele>
        <time>2017-12-18T18:12:36Z</time>
      </trkpt>
      <trkpt lat="62.637123811682" lon="17.96574937258">
        <ele>54.6</ele>
        <time>2017-12-18T18:12:37Z</time>
      </trkpt>
      <trkpt lat="62.637114507773" lon="17.965723137233">
        <ele>54.6</ele>
        <time>2017-12-18T18:12:38Z</time>
      </trkpt>
      <trkpt lat="62.637110400642" lon="17.965694471135">
        <ele>54.6</ele>
        <time>2017-12-18T18:12:39Z</time>
      </trkpt>
      <trkpt lat="62.637104114217" lon="17.965669828349">
        <ele>54.6</ele>
        <time>2017-12-18T18:12:40Z</time>
      </trkpt>
      <trkpt lat="62.637095648498" lon="17.965642503355">
        <ele>54.4</ele>
        <time>2017-12-18T18:12:41Z</time>
      </trkpt>
      <trkpt lat="62.637087182779" lon="17.96561610037">
        <ele>54.6</ele>
        <time>2017-12-18T18:12:42Z</time>
      </trkpt>
      <trkpt lat="62.637077962689" lon="17.965577962725">
        <ele>54.6</ele>
        <time>2017-12-18T18:12:43Z</time>
      </trkpt>
      <trkpt lat="62.637069413151" lon="17.965540830908">
        <ele>54.4</ele>
        <time>2017-12-18T18:12:44Z</time>
      </trkpt>
      <trkpt lat="62.637062456174" lon="17.965503615272">
        <ele>54.6</ele>
        <time>2017-12-18T18:12:45Z</time>
      </trkpt>
      <trkpt lat="62.637052146437" lon="17.965457933917">
        <ele>54.6</ele>
        <time>2017-12-18T18:12:46Z</time>
      </trkpt>
      <trkpt lat="62.637043261623" lon="17.965438320271">
        <ele>54.6</ele>
        <time>2017-12-18T18:12:47Z</time>
      </trkpt>
      <trkpt lat="62.637032532791" lon="17.9653956564">
        <ele>54.6</ele>
        <time>2017-12-18T18:12:48Z</time>
      </trkpt>
      <trkpt lat="62.637019121751" lon="17.965343856258">
        <ele>54.6</ele>
        <time>2017-12-18T18:12:49Z</time>
      </trkpt>
      <trkpt lat="62.637006381263" lon="17.96529674998">
        <ele>54.8</ele>
        <time>2017-12-18T18:12:50Z</time>
      </trkpt>
      <trkpt lat="62.636993054042" lon="17.965254672842">
        <ele>54.8</ele>
        <time>2017-12-18T18:12:51Z</time>
      </trkpt>
      <trkpt lat="62.636982492848" lon="17.965215026455">
        <ele>54.6</ele>
        <time>2017-12-18T18:12:52Z</time>
      </trkpt>
      <trkpt lat="62.636972602206" lon="17.965174960973">
        <ele>54.8</ele>
        <time>2017-12-18T18:12:53Z</time>
      </trkpt>
      <trkpt lat="62.63696137046" lon="17.965134811672">
        <ele>54.6</ele>
        <time>2017-12-18T18:12:54Z</time>
      </trkpt>
      <trkpt lat="62.63695215037" lon="17.9651022899">
        <ele>54.6</ele>
        <time>2017-12-18T18:12:55Z</time>
      </trkpt>
      <trkpt lat="62.63693873933" lon="17.965067421196">
        <ele>54.8</ele>
        <time>2017-12-18T18:12:56Z</time>
      </trkpt>
      <trkpt lat="62.636926669394" lon="17.965027523352">
        <ele>54.6</ele>
        <time>2017-12-18T18:12:57Z</time>
      </trkpt>
      <trkpt lat="62.636915605286" lon="17.964990978268">
        <ele>54.6</ele>
        <time>2017-12-18T18:12:58Z</time>
      </trkpt>
      <trkpt lat="62.636906720472" lon="17.964954181727">
        <ele>54.8</ele>
        <time>2017-12-18T18:12:59Z</time>
      </trkpt>
      <trkpt lat="62.636894650536" lon="17.964904979974">
        <ele>54.8</ele>
        <time>2017-12-18T18:13:00Z</time>
      </trkpt>
      <trkpt lat="62.636877635279" lon="17.96485167109">
        <ele>54.6</ele>
        <time>2017-12-18T18:13:01Z</time>
      </trkpt>
      <trkpt lat="62.636862212583" lon="17.96480221788">
        <ele>54.6</ele>
        <time>2017-12-18T18:13:02Z</time>
      </trkpt>
      <trkpt lat="62.636847795715" lon="17.96475779381">
        <ele>54.6</ele>
        <time>2017-12-18T18:13:03Z</time>
      </trkpt>
      <trkpt lat="62.636833797942" lon="17.964716135767">
        <ele>54.6</ele>
        <time>2017-12-18T18:13:04Z</time>
      </trkpt>
      <trkpt lat="62.636819548712" lon="17.964671376421">
        <ele>54.4</ele>
        <time>2017-12-18T18:13:05Z</time>
      </trkpt>
      <trkpt lat="62.636804293654" lon="17.964624186324">
        <ele>54.6</ele>
        <time>2017-12-18T18:13:06Z</time>
      </trkpt>
      <trkpt lat="62.6367903797" lon="17.964579510797">
        <ele>54.6</ele>
        <time>2017-12-18T18:13:07Z</time>
      </trkpt>
      <trkpt lat="62.636777471574" lon="17.964534667632">
        <ele>54.6</ele>
        <time>2017-12-18T18:13:08Z</time>
      </trkpt>
      <trkpt lat="62.636765485457" lon="17.964491752304">
        <ele>54.4</ele>
        <time>2017-12-18T18:13:09Z</time>
      </trkpt>
      <trkpt lat="62.63675266115" lon="17.964445484216">
        <ele>54.4</ele>
        <time>2017-12-18T18:13:10Z</time>
      </trkpt>
      <trkpt lat="62.636741429404" lon="17.964398797033">
        <ele>54.4</ele>
        <time>2017-12-18T18:13:11Z</time>
      </trkpt>
      <trkpt lat="62.636726928717" lon="17.964355378791">
        <ele>54.4</ele>
        <time>2017-12-18T18:13:12Z</time>
      </trkpt>
      <trkpt lat="62.636710332555" lon="17.964310787083">
        <ele>54.2</ele>
        <time>2017-12-18T18:13:13Z</time>
      </trkpt>
      <trkpt lat="62.636693736393" lon="17.964268961402">
        <ele>54.2</ele>
        <time>2017-12-18T18:13:14Z</time>
      </trkpt>
      <trkpt lat="62.636680912086" lon="17.964227387178">
        <ele>54.2</ele>
        <time>2017-12-18T18:13:15Z</time>
      </trkpt>
      <trkpt lat="62.636665992304" lon="17.96417608995">
        <ele>54</ele>
        <time>2017-12-18T18:13:16Z</time>
      </trkpt>
      <trkpt lat="62.636654173825" lon="17.964136527382">
        <ele>54</ele>
        <time>2017-12-18T18:13:17Z</time>
      </trkpt>
      <trkpt lat="62.636639254043" lon="17.964091768036">
        <ele>54.2</ele>
        <time>2017-12-18T18:13:18Z</time>
      </trkpt>
      <trkpt lat="62.63662441808" lon="17.964051954011">
        <ele>54.2</ele>
        <time>2017-12-18T18:13:19Z</time>
      </trkpt>
      <trkpt lat="62.636607319004" lon="17.964011469434">
        <ele>54</ele>
        <time>2017-12-18T18:13:20Z</time>
      </trkpt>
      <trkpt lat="62.636591141937" lon="17.963961932405">
        <ele>54</ele>
        <time>2017-12-18T18:13:21Z</time>
      </trkpt>
      <trkpt lat="62.636577563259" lon="17.96391708924">
        <ele>54.2</ele>
        <time>2017-12-18T18:13:22Z</time>
      </trkpt>
      <trkpt lat="62.636563649305" lon="17.963876520844">
        <ele>54.2</ele>
        <time>2017-12-18T18:13:23Z</time>
      </trkpt>
      <trkpt lat="62.636551914645" lon="17.963827067634">
        <ele>54</ele>
        <time>2017-12-18T18:13:24Z</time>
      </trkpt>
      <trkpt lat="62.636539677071" lon="17.963788343256">
        <ele>54</ele>
        <time>2017-12-18T18:13:25Z</time>
      </trkpt>
      <trkpt lat="62.636522410357" lon="17.963745427928">
        <ele>54</ele>
        <time>2017-12-18T18:13:26Z</time>
      </trkpt>
      <trkpt lat="62.636504473091" lon="17.963726317196">
        <ele>54</ele>
        <time>2017-12-18T18:13:27Z</time>
      </trkpt>
      <trkpt lat="62.636484524169" lon="17.963727993576">
        <ele>53.8</ele>
        <time>2017-12-18T18:13:28Z</time>
      </trkpt>
      <trkpt lat="62.636461557763" lon="17.963753893647">
        <ele>53.6</ele>
        <time>2017-12-18T18:13:29Z</time>
      </trkpt>
      <trkpt lat="62.636444542506" lon="17.963776608596">
        <ele>53.6</ele>
        <time>2017-12-18T18:13:30Z</time>
      </trkpt>
      <trkpt lat="62.636424342127" lon="17.96380812454">
        <ele>53.8</ele>
        <time>2017-12-18T18:13:31Z</time>
      </trkpt>
      <trkpt lat="62.636403555015" lon="17.963839640484">
        <ele>53.8</ele>
        <time>2017-12-18T18:13:32Z</time>
      </trkpt>
      <trkpt lat="62.63638721031" lon="17.96386260689">
        <ele>54</ele>
        <time>2017-12-18T18:13:33Z</time>
      </trkpt>
      <trkpt lat="62.636369021587" lon="17.963886243848">
        <ele>54.2</ele>
        <time>2017-12-18T18:13:34Z</time>
      </trkpt>
      <trkpt lat="62.63635032995" lon="17.96390870734">
        <ele>54.4</ele>
        <time>2017-12-18T18:13:35Z</time>
      </trkpt>
      <trkpt lat="62.636331219218" lon="17.963938295447">
        <ele>54.2</ele>
        <time>2017-12-18T18:13:36Z</time>
      </trkpt>
      <trkpt lat="62.636310180649" lon="17.963966793907">
        <ele>54.4</ele>
        <time>2017-12-18T18:13:37Z</time>
      </trkpt>
      <trkpt lat="62.636290567003" lon="17.963989760313">
        <ele>54.4</ele>
        <time>2017-12-18T18:13:38Z</time>
      </trkpt>
      <trkpt lat="62.636271791547" lon="17.964018761687">
        <ele>54.4</ele>
        <time>2017-12-18T18:13:39Z</time>
      </trkpt>
      <trkpt lat="62.63625142353" lon="17.964048014518">
        <ele>54.4</ele>
        <time>2017-12-18T18:13:40Z</time>
      </trkpt>
      <trkpt lat="62.636234995006" lon="17.964069807458">
        <ele>54.4</ele>
        <time>2017-12-18T18:13:41Z</time>
      </trkpt>
      <trkpt lat="62.636212699152" lon="17.964093276778">
        <ele>54.6</ele>
        <time>2017-12-18T18:13:42Z</time>
      </trkpt>
      <trkpt lat="62.63619275023" lon="17.964126050007">
        <ele>54.4</ele>
        <time>2017-12-18T18:13:43Z</time>
      </trkpt>
      <trkpt lat="62.636173974774" lon="17.964144741644">
        <ele>54.6</ele>
        <time>2017-12-18T18:13:44Z</time>
      </trkpt>
      <trkpt lat="62.636155618413" lon="17.964168043326">
        <ele>54.6</ele>
        <time>2017-12-18T18:13:45Z</time>
      </trkpt>
      <trkpt lat="62.63613491512" lon="17.964189081895">
        <ele>54.8</ele>
        <time>2017-12-18T18:13:46Z</time>
      </trkpt>
      <trkpt lat="62.636116391121" lon="17.964214730509">
        <ele>54.6</ele>
        <time>2017-12-18T18:13:47Z</time>
      </trkpt>
      <trkpt lat="62.636096190742" lon="17.96424314515">
        <ele>54.8</ele>
        <time>2017-12-18T18:13:48Z</time>
      </trkpt>
      <trkpt lat="62.636081857693" lon="17.964254209258">
        <ele>54.8</ele>
        <time>2017-12-18T18:13:49Z</time>
      </trkpt>
      <trkpt lat="62.63605444888" lon="17.964272314162">
        <ele>54.8</ele>
        <time>2017-12-18T18:13:50Z</time>
      </trkpt>
      <trkpt lat="62.636031314836" lon="17.964292765998">
        <ele>54.8</ele>
        <time>2017-12-18T18:13:51Z</time>
      </trkpt>
      <trkpt lat="62.636010360086" lon="17.964306679952">
        <ele>55</ele>
        <time>2017-12-18T18:13:52Z</time>
      </trkpt>
      <trkpt lat="62.635987058404" lon="17.964325790684">
        <ele>54.8</ele>
        <time>2017-12-18T18:13:53Z</time>
      </trkpt>
      <trkpt lat="62.63596727712" lon="17.96434372795">
        <ele>54.8</ele>
        <time>2017-12-18T18:13:54Z</time>
      </trkpt>
      <trkpt lat="62.635945567999" lon="17.964360575569">
        <ele>54.8</ele>
        <time>2017-12-18T18:13:55Z</time>
      </trkpt>
      <trkpt lat="62.635922685412" lon="17.964377004093">
        <ele>54.8</ele>
        <time>2017-12-18T18:13:56Z</time>
      </trkpt>
      <trkpt lat="62.635903742318" lon="17.964393432617">
        <ele>54.8</ele>
        <time>2017-12-18T18:13:57Z</time>
      </trkpt>
      <trkpt lat="62.635880859731" lon="17.964411453702">
        <ele>55</ele>
        <time>2017-12-18T18:13:58Z</time>
      </trkpt>
      <trkpt lat="62.635860659352" lon="17.964429893882">
        <ele>55</ele>
        <time>2017-12-18T18:13:59Z</time>
      </trkpt>
      <trkpt lat="62.635839285507" lon="17.964449172252">
        <ele>55.2</ele>
        <time>2017-12-18T18:14:00Z</time>
      </trkpt>
      <trkpt lat="62.635812714884" lon="17.964467360975">
        <ele>55.2</ele>
        <time>2017-12-18T18:14:01Z</time>
      </trkpt>
      <trkpt lat="62.63579377179" lon="17.964483538042">
        <ele>55.4</ele>
        <time>2017-12-18T18:14:02Z</time>
      </trkpt>
      <trkpt lat="62.635767284986" lon="17.96449544034">
        <ele>55.4</ele>
        <time>2017-12-18T18:14:03Z</time>
      </trkpt>
      <trkpt lat="62.635744486218" lon="17.964511030674">
        <ele>55.4</ele>
        <time>2017-12-18T18:14:04Z</time>
      </trkpt>
      <trkpt lat="62.635724788753" lon="17.964526956284">
        <ele>55.4</ele>
        <time>2017-12-18T18:14:05Z</time>
      </trkpt>
      <trkpt lat="62.635698637225" lon="17.964542965713">
        <ele>55.4</ele>
        <time>2017-12-18T18:14:06Z</time>
      </trkpt>
      <trkpt lat="62.63567642519" lon="17.964559645694">
        <ele>55.4</ele>
        <time>2017-12-18T18:14:07Z</time>
      </trkpt>
      <trkpt lat="62.63565211768" lon="17.964574733114">
        <ele>55.4</ele>
        <time>2017-12-18T18:14:08Z</time>
      </trkpt>
      <trkpt lat="62.63563619207" lon="17.964595604045">
        <ele>55.6</ele>
        <time>2017-12-18T18:14:09Z</time>
      </trkpt>
      <trkpt lat="62.635619512089" lon="17.964605578506">
        <ele>55.6</ele>
        <time>2017-12-18T18:14:10Z</time>
      </trkpt>
      <trkpt lat="62.635596880959" lon="17.964619241003">
        <ele>55.6</ele>
        <time>2017-12-18T18:14:11Z</time>
      </trkpt>
      <trkpt lat="62.635572405811" lon="17.964632568224">
        <ele>55.8</ele>
        <time>2017-12-18T18:14:12Z</time>
      </trkpt>
      <trkpt lat="62.635551031966" lon="17.964645308712">
        <ele>56</ele>
        <time>2017-12-18T18:14:13Z</time>
      </trkpt>
      <trkpt lat="62.635526892094" lon="17.964662491607">
        <ele>55.8</ele>
        <time>2017-12-18T18:14:14Z</time>
      </trkpt>
      <trkpt lat="62.635506859353" lon="17.964677495208">
        <ele>56</ele>
        <time>2017-12-18T18:14:15Z</time>
      </trkpt>
      <trkpt lat="62.635482719481" lon="17.964695516293">
        <ele>56</ele>
        <time>2017-12-18T18:14:16Z</time>
      </trkpt>
      <trkpt lat="62.635461597093" lon="17.964708759695">
        <ele>55.8</ele>
        <time>2017-12-18T18:14:17Z</time>
      </trkpt>
      <trkpt lat="62.635439887972" lon="17.964726361685">
        <ele>56</ele>
        <time>2017-12-18T18:14:18Z</time>
      </trkpt>
      <trkpt lat="62.635418095032" lon="17.964741365286">
        <ele>56</ele>
        <time>2017-12-18T18:14:19Z</time>
      </trkpt>
      <trkpt lat="62.63539563154" lon="17.964753016127">
        <ele>56</ele>
        <time>2017-12-18T18:14:20Z</time>
      </trkpt>
      <trkpt lat="62.63537300041" lon="17.96476533752">
        <ele>56</ele>
        <time>2017-12-18T18:14:21Z</time>
      </trkpt>
      <trkpt lat="62.635349614909" lon="17.964775311981">
        <ele>56.2</ele>
        <time>2017-12-18T18:14:22Z</time>
      </trkpt>
      <trkpt lat="62.635330420358" lon="17.964783107148">
        <ele>56.2</ele>
        <time>2017-12-18T18:14:23Z</time>
      </trkpt>
      <trkpt lat="62.635307034857" lon="17.964791824324">
        <ele>56.2</ele>
        <time>2017-12-18T18:14:24Z</time>
      </trkpt>
      <trkpt lat="62.635285996288" lon="17.964799116577">
        <ele>56.2</ele>
        <time>2017-12-18T18:14:25Z</time>
      </trkpt>
      <trkpt lat="62.635261856416" lon="17.964812192341">
        <ele>56.2</ele>
        <time>2017-12-18T18:14:26Z</time>
      </trkpt>
      <trkpt lat="62.635235034336" lon="17.964820741879">
        <ele>56.4</ele>
        <time>2017-12-18T18:14:27Z</time>
      </trkpt>
      <trkpt lat="62.635210810645" lon="17.964826022476">
        <ele>56.4</ele>
        <time>2017-12-18T18:14:28Z</time>
      </trkpt>
      <trkpt lat="62.635190526447" lon="17.964837170403">
        <ele>56.4</ele>
        <time>2017-12-18T18:14:29Z</time>
      </trkpt>
      <trkpt lat="62.635166470394" lon="17.964843456828">
        <ele>56.4</ele>
        <time>2017-12-18T18:14:30Z</time>
      </trkpt>
      <trkpt lat="62.635142414341" lon="17.964847563959">
        <ele>56.6</ele>
        <time>2017-12-18T18:14:31Z</time>
      </trkpt>
      <trkpt lat="62.635117603917" lon="17.964856448773">
        <ele>56.6</ele>
        <time>2017-12-18T18:14:32Z</time>
      </trkpt>
      <trkpt lat="62.635091452389" lon="17.964860555904">
        <ele>56.6</ele>
        <time>2017-12-18T18:14:33Z</time>
      </trkpt>
      <trkpt lat="62.635070330001" lon="17.964869943632">
        <ele>56.8</ele>
        <time>2017-12-18T18:14:34Z</time>
      </trkpt>
      <trkpt lat="62.635047028319" lon="17.964873547849">
        <ele>56.8</ele>
        <time>2017-12-18T18:14:35Z</time>
      </trkpt>
      <trkpt lat="62.63502347518" lon="17.964878828446">
        <ele>57</ele>
        <time>2017-12-18T18:14:36Z</time>
      </trkpt>
      <trkpt lat="62.635001011688" lon="17.964890060192">
        <ele>57</ele>
        <time>2017-12-18T18:14:37Z</time>
      </trkpt>
      <trkpt lat="62.634976871816" lon="17.964894502599">
        <ele>57</ele>
        <time>2017-12-18T18:14:38Z</time>
      </trkpt>
      <trkpt lat="62.634955833247" lon="17.964900537567">
        <ele>57</ele>
        <time>2017-12-18T18:14:39Z</time>
      </trkpt>
      <trkpt lat="62.634932866841" lon="17.964901627214">
        <ele>57</ele>
        <time>2017-12-18T18:14:40Z</time>
      </trkpt>
      <trkpt lat="62.634907469684" lon="17.964903135956">
        <ele>57</ele>
        <time>2017-12-18T18:14:41Z</time>
      </trkpt>
      <trkpt lat="62.634880312328" lon="17.964908081277">
        <ele>57</ele>
        <time>2017-12-18T18:14:42Z</time>
      </trkpt>
      <trkpt lat="62.63485248442" lon="17.964914116245">
        <ele>57.2</ele>
        <time>2017-12-18T18:14:43Z</time>
      </trkpt>
      <trkpt lat="62.634829350376" lon="17.964918558652">
        <ele>57.2</ele>
        <time>2017-12-18T18:14:44Z</time>
      </trkpt>
      <trkpt lat="62.634802779753" lon="17.964924677439">
        <ele>57.2</ele>
        <time>2017-12-18T18:14:45Z</time>
      </trkpt>
      <trkpt lat="62.634773024008" lon="17.964926437638">
        <ele>57</ele>
        <time>2017-12-18T18:14:46Z</time>
      </trkpt>
      <trkpt lat="62.634751817801" lon="17.964933310796">
        <ele>57.2</ele>
        <time>2017-12-18T18:14:47Z</time>
      </trkpt>
      <trkpt lat="62.63472256497" lon="17.964937753203">
        <ele>57.2</ele>
        <time>2017-12-18T18:14:48Z</time>
      </trkpt>
      <trkpt lat="62.634700520573" lon="17.964939094307">
        <ele>57.2</ele>
        <time>2017-12-18T18:14:49Z</time>
      </trkpt>
      <trkpt lat="62.634674536683" lon="17.964944291085">
        <ele>57.4</ele>
        <time>2017-12-18T18:14:50Z</time>
      </trkpt>
      <trkpt lat="62.634647714603" lon="17.964945129275">
        <ele>57.4</ele>
        <time>2017-12-18T18:14:51Z</time>
      </trkpt>
      <trkpt lat="62.634624832016" lon="17.964947140931">
        <ele>57.4</ele>
        <time>2017-12-18T18:14:52Z</time>
      </trkpt>
      <trkpt lat="62.634604883094" lon="17.964950493691">
        <ele>57.4</ele>
        <time>2017-12-18T18:14:53Z</time>
      </trkpt>
      <trkpt lat="62.634579905032" lon="17.964952170071">
        <ele>57.6</ele>
        <time>2017-12-18T18:14:54Z</time>
      </trkpt>
      <trkpt lat="62.634558866463" lon="17.964956025745">
        <ele>57.4</ele>
        <time>2017-12-18T18:14:55Z</time>
      </trkpt>
      <trkpt lat="62.634532798754" lon="17.964956612478">
        <ele>57.6</ele>
        <time>2017-12-18T18:14:56Z</time>
      </trkpt>
      <trkpt lat="62.634509245615" lon="17.964959043229">
        <ele>57.8</ele>
        <time>2017-12-18T18:14:57Z</time>
      </trkpt>
      <trkpt lat="62.634482758811" lon="17.964959043229">
        <ele>57.8</ele>
        <time>2017-12-18T18:14:58Z</time>
      </trkpt>
      <trkpt lat="62.634459457129" lon="17.964960551971">
        <ele>57.6</ele>
        <time>2017-12-18T18:14:59Z</time>
      </trkpt>
      <trkpt lat="62.634436574542" lon="17.964963401817">
        <ele>57.8</ele>
        <time>2017-12-18T18:15:00Z</time>
      </trkpt>
      <trkpt lat="62.634406651159" lon="17.964964994378">
        <ele>57.8</ele>
        <time>2017-12-18T18:15:01Z</time>
      </trkpt>
      <trkpt lat="62.634384439124" lon="17.964965413473">
        <ele>57.8</ele>
        <time>2017-12-18T18:15:02Z</time>
      </trkpt>
      <trkpt lat="62.63436046689" lon="17.964970526432">
        <ele>57.8</ele>
        <time>2017-12-18T18:15:03Z</time>
      </trkpt>
      <trkpt lat="62.634338171036" lon="17.96496901769">
        <ele>57.8</ele>
        <time>2017-12-18T18:15:04Z</time>
      </trkpt>
      <trkpt lat="62.634317635381" lon="17.964968850052">
        <ele>58</ele>
        <time>2017-12-18T18:15:05Z</time>
      </trkpt>
      <trkpt lat="62.634295423346" lon="17.964972118993">
        <ele>58</ele>
        <time>2017-12-18T18:15:06Z</time>
      </trkpt>
      <trkpt lat="62.634269690913" lon="17.964974801201">
        <ele>58</ele>
        <time>2017-12-18T18:15:07Z</time>
      </trkpt>
      <trkpt lat="62.634245970136" lon="17.964976142305">
        <ele>58.2</ele>
        <time>2017-12-18T18:15:08Z</time>
      </trkpt>
      <trkpt lat="62.634218980418" lon="17.964973795373">
        <ele>58.2</ele>
        <time>2017-12-18T18:15:09Z</time>
      </trkpt>
      <trkpt lat="62.634197271297" lon="17.964973041002">
        <ele>58.2</ele>
        <time>2017-12-18T18:15:10Z</time>
      </trkpt>
      <trkpt lat="62.634172963787" lon="17.964970023518">
        <ele>58.2</ele>
        <time>2017-12-18T18:15:11Z</time>
      </trkpt>
      <trkpt lat="62.634147063716" lon="17.964961306342">
        <ele>58.2</ele>
        <time>2017-12-18T18:15:12Z</time>
      </trkpt>
      <trkpt lat="62.634123426758" lon="17.964958205039">
        <ele>58.2</ele>
        <time>2017-12-18T18:15:13Z</time>
      </trkpt>
      <trkpt lat="62.634097359049" lon="17.96495057751">
        <ele>58.4</ele>
        <time>2017-12-18T18:15:14Z</time>
      </trkpt>
      <trkpt lat="62.634074057367" lon="17.96494890113">
        <ele>58.4</ele>
        <time>2017-12-18T18:15:15Z</time>
      </trkpt>
      <trkpt lat="62.634048073477" lon="17.964949487863">
        <ele>58.4</ele>
        <time>2017-12-18T18:15:16Z</time>
      </trkpt>
      <trkpt lat="62.634021754311" lon="17.964949655501">
        <ele>58.6</ele>
        <time>2017-12-18T18:15:17Z</time>
      </trkpt>
      <trkpt lat="62.633995686602" lon="17.964949236406">
        <ele>58.6</ele>
        <time>2017-12-18T18:15:18Z</time>
      </trkpt>
      <trkpt lat="62.633970373264" lon="17.964946302741">
        <ele>58.6</ele>
        <time>2017-12-18T18:15:19Z</time>
      </trkpt>
      <trkpt lat="62.633944892288" lon="17.964951750976">
        <ele>58.6</ele>
        <time>2017-12-18T18:15:20Z</time>
      </trkpt>
      <trkpt lat="62.633920500959" lon="17.964962731265">
        <ele>58.8</ele>
        <time>2017-12-18T18:15:21Z</time>
      </trkpt>
      <trkpt lat="62.633897618372" lon="17.964982764006">
        <ele>58.8</ele>
        <time>2017-12-18T18:15:22Z</time>
      </trkpt>
      <trkpt lat="62.633887057178" lon="17.965009586086">
        <ele>58.8</ele>
        <time>2017-12-18T18:15:23Z</time>
      </trkpt>
      <trkpt lat="62.633877920907" lon="17.965049316292">
        <ele>58.8</ele>
        <time>2017-12-18T18:15:24Z</time>
      </trkpt>
      <trkpt lat="62.633871718301" lon="17.965085609919">
        <ele>59</ele>
        <time>2017-12-18T18:15:25Z</time>
      </trkpt>
      <trkpt lat="62.633871550663" lon="17.965125088668">
        <ele>59.2</ele>
        <time>2017-12-18T18:15:26Z</time>
      </trkpt>
      <trkpt lat="62.63387264031" lon="17.96517521243">
        <ele>59.2</ele>
        <time>2017-12-18T18:15:27Z</time>
      </trkpt>
      <trkpt lat="62.633873813776" lon="17.965217373387">
        <ele>59.4</ele>
        <time>2017-12-18T18:15:28Z</time>
      </trkpt>
      <trkpt lat="62.633878340002" lon="17.965256181584">
        <ele>59.8</ele>
        <time>2017-12-18T18:15:29Z</time>
      </trkpt>
      <trkpt lat="62.633875238699" lon="17.965298510179">
        <ele>59.8</ele>
        <time>2017-12-18T18:15:30Z</time>
      </trkpt>
      <trkpt lat="62.633876915079" lon="17.965343856258">
        <ele>60</ele>
        <time>2017-12-18T18:15:31Z</time>
      </trkpt>
      <trkpt lat="62.633881106029" lon="17.965391297812">
        <ele>60.2</ele>
        <time>2017-12-18T18:15:32Z</time>
      </trkpt>
      <trkpt lat="62.63388353678" lon="17.965439493737">
        <ele>60.4</ele>
        <time>2017-12-18T18:15:33Z</time>
      </trkpt>
      <trkpt lat="62.633887140997" lon="17.965478972486">
        <ele>60.6</ele>
        <time>2017-12-18T18:15:34Z</time>
      </trkpt>
      <trkpt lat="62.633889068834" lon="17.965521887814">
        <ele>60.8</ele>
        <time>2017-12-18T18:15:35Z</time>
      </trkpt>
      <trkpt lat="62.633892673051" lon="17.965579052372">
        <ele>61</ele>
        <time>2017-12-18T18:15:36Z</time>
      </trkpt>
      <trkpt lat="62.633892589232" lon="17.965625488098">
        <ele>61</ele>
        <time>2017-12-18T18:15:37Z</time>
      </trkpt>
      <trkpt lat="62.633894517069" lon="17.965675192765">
        <ele>61.4</ele>
        <time>2017-12-18T18:15:38Z</time>
      </trkpt>
      <trkpt lat="62.633896277268" lon="17.965715258247">
        <ele>61.6</ele>
        <time>2017-12-18T18:15:39Z</time>
      </trkpt>
      <trkpt lat="62.633896444906" lon="17.965762364525">
        <ele>61.6</ele>
        <time>2017-12-18T18:15:40Z</time>
      </trkpt>
      <trkpt lat="62.633896528725" lon="17.965811650097">
        <ele>61.6</ele>
        <time>2017-12-18T18:15:41Z</time>
      </trkpt>
      <trkpt lat="62.633897450734" lon="17.965860684212">
        <ele>61.8</ele>
        <time>2017-12-18T18:15:42Z</time>
      </trkpt>
      <trkpt lat="62.633895355259" lon="17.965913993096">
        <ele>62</ele>
        <time>2017-12-18T18:15:43Z</time>
      </trkpt>
      <trkpt lat="62.633893092146" lon="17.965960428822">
        <ele>62</ele>
        <time>2017-12-18T18:15:44Z</time>
      </trkpt>
      <trkpt lat="62.6338902423" lon="17.966005774901">
        <ele>62.4</ele>
        <time>2017-12-18T18:15:45Z</time>
      </trkpt>
      <trkpt lat="62.633884794065" lon="17.96605363555">
        <ele>62.6</ele>
        <time>2017-12-18T18:15:46Z</time>
      </trkpt>
      <trkpt lat="62.633882950047" lon="17.966090767367">
        <ele>62.6</ele>
        <time>2017-12-18T18:15:47Z</time>
      </trkpt>
      <trkpt lat="62.633877585631" lon="17.966135861989">
        <ele>63</ele>
        <time>2017-12-18T18:15:48Z</time>
      </trkpt>
      <trkpt lat="62.63386593479" lon="17.966166204467">
        <ele>63.2</ele>
        <time>2017-12-18T18:15:49Z</time>
      </trkpt>
      <trkpt lat="62.633848500438" lon="17.966189925244">
        <ele>63</ele>
        <time>2017-12-18T18:15:50Z</time>
      </trkpt>
      <trkpt lat="62.633826623679" lon="17.966208197786">
        <ele>63.4</ele>
        <time>2017-12-18T18:15:51Z</time>
      </trkpt>
      <trkpt lat="62.633806088024" lon="17.966215909134">
        <ele>63.4</ele>
        <time>2017-12-18T18:15:52Z</time>
      </trkpt>
      <trkpt lat="62.633786977292" lon="17.96623217002">
        <ele>63.6</ele>
        <time>2017-12-18T18:15:53Z</time>
      </trkpt>
      <trkpt lat="62.633764346162" lon="17.966250442562">
        <ele>63.6</ele>
        <time>2017-12-18T18:15:54Z</time>
      </trkpt>
      <trkpt lat="62.633744229602" lon="17.966266451991">
        <ele>63.8</ele>
        <time>2017-12-18T18:15:55Z</time>
      </trkpt>
      <trkpt lat="62.63372092792" lon="17.966282377601">
        <ele>63.8</ele>
        <time>2017-12-18T18:15:56Z</time>
      </trkpt>
      <trkpt lat="62.633697374781" lon="17.966288747845">
        <ele>63.8</ele>
        <time>2017-12-18T18:15:57Z</time>
      </trkpt>
      <trkpt lat="62.633677090583" lon="17.966296626831">
        <ele>64</ele>
        <time>2017-12-18T18:15:58Z</time>
      </trkpt>
      <trkpt lat="62.633657057842" lon="17.966300398686">
        <ele>64</ele>
        <time>2017-12-18T18:15:59Z</time>
      </trkpt>
      <trkpt lat="62.633634929626" lon="17.966305846921">
        <ele>64</ele>
        <time>2017-12-18T18:16:00Z</time>
      </trkpt>
      <trkpt lat="62.633612717591" lon="17.966310792242">
        <ele>64</ele>
        <time>2017-12-18T18:16:01Z</time>
      </trkpt>
      <trkpt lat="62.633590840832" lon="17.966314647916">
        <ele>64</ele>
        <time>2017-12-18T18:16:02Z</time>
      </trkpt>
      <trkpt lat="62.633568964073" lon="17.966317330124">
        <ele>64</ele>
        <time>2017-12-18T18:16:03Z</time>
      </trkpt>
      <trkpt lat="62.633548596056" lon="17.966326214938">
        <ele>63.8</ele>
        <time>2017-12-18T18:16:04Z</time>
      </trkpt>
      <trkpt lat="62.633526216383" lon="17.96632940006">
        <ele>63.8</ele>
        <time>2017-12-18T18:16:05Z</time>
      </trkpt>
      <trkpt lat="62.633498304656" lon="17.966326214938">
        <ele>63.6</ele>
        <time>2017-12-18T18:16:06Z</time>
      </trkpt>
      <trkpt lat="62.633476427897" lon="17.966322023988">
        <ele>63.6</ele>
        <time>2017-12-18T18:16:07Z</time>
      </trkpt>
      <trkpt lat="62.633452371844" lon="17.966317749219">
        <ele>63.6</ele>
        <time>2017-12-18T18:16:08Z</time>
      </trkpt>
      <trkpt lat="62.633429992171" lon="17.966305595464">
        <ele>63.6</ele>
        <time>2017-12-18T18:16:09Z</time>
      </trkpt>
      <trkpt lat="62.633412138724" lon="17.966301236876">
        <ele>63.4</ele>
        <time>2017-12-18T18:16:10Z</time>
      </trkpt>
      <trkpt lat="62.633387495938" lon="17.966303164713">
        <ele>63.4</ele>
        <time>2017-12-18T18:16:11Z</time>
      </trkpt>
      <trkpt lat="62.633362014962" lon="17.966301991247">
        <ele>63.4</ele>
        <time>2017-12-18T18:16:12Z</time>
      </trkpt>
      <trkpt lat="62.633338797099" lon="17.966302745618">
        <ele>63.2</ele>
        <time>2017-12-18T18:16:13Z</time>
      </trkpt>
      <trkpt lat="62.633315998331" lon="17.96630509255">
        <ele>63.2</ele>
        <time>2017-12-18T18:16:14Z</time>
      </trkpt>
      <trkpt lat="62.633294792124" lon="17.966304170541">
        <ele>63.2</ele>
        <time>2017-12-18T18:16:15Z</time>
      </trkpt>
      <trkpt lat="62.633272999184" lon="17.966302913256">
        <ele>63.2</ele>
        <time>2017-12-18T18:16:16Z</time>
      </trkpt>
      <trkpt lat="62.633248524036" lon="17.966297045926">
        <ele>63.2</ele>
        <time>2017-12-18T18:16:17Z</time>
      </trkpt>
      <trkpt lat="62.633223210698" lon="17.966294028442">
        <ele>63.2</ele>
        <time>2017-12-18T18:16:18Z</time>
      </trkpt>
      <trkpt lat="62.633201585396" lon="17.966293860804">
        <ele>63.2</ele>
        <time>2017-12-18T18:16:19Z</time>
      </trkpt>
      <trkpt lat="62.633175852963" lon="17.966295201908">
        <ele>63.2</ele>
        <time>2017-12-18T18:16:20Z</time>
      </trkpt>
      <trkpt lat="62.633150791082" lon="17.966288077293">
        <ele>63.2</ele>
        <time>2017-12-18T18:16:21Z</time>
      </trkpt>
      <trkpt lat="62.633127237943" lon="17.966288580207">
        <ele>63</ele>
        <time>2017-12-18T18:16:22Z</time>
      </trkpt>
      <trkpt lat="62.633101421691" lon="17.966289753673">
        <ele>63</ele>
        <time>2017-12-18T18:16:23Z</time>
      </trkpt>
      <trkpt lat="62.633076024534" lon="17.966290508044">
        <ele>62.8</ele>
        <time>2017-12-18T18:16:24Z</time>
      </trkpt>
      <trkpt lat="62.633052639033" lon="17.966298303211">
        <ele>62.8</ele>
        <time>2017-12-18T18:16:25Z</time>
      </trkpt>
      <trkpt lat="62.633025649315" lon="17.966298889944">
        <ele>62.8</ele>
        <time>2017-12-18T18:16:26Z</time>
      </trkpt>
      <trkpt lat="62.63300259909" lon="17.966300817781">
        <ele>62.6</ele>
        <time>2017-12-18T18:16:27Z</time>
      </trkpt>
      <trkpt lat="62.632980219417" lon="17.966296878288">
        <ele>62.6</ele>
        <time>2017-12-18T18:16:28Z</time>
      </trkpt>
      <trkpt lat="62.63295566045" lon="17.966293944623">
        <ele>62.6</ele>
        <time>2017-12-18T18:16:29Z</time>
      </trkpt>
      <trkpt lat="62.632932526406" lon="17.966292603519">
        <ele>62.4</ele>
        <time>2017-12-18T18:16:30Z</time>
      </trkpt>
      <trkpt lat="62.632905117593" lon="17.966292687338">
        <ele>62.4</ele>
        <time>2017-12-18T18:16:31Z</time>
      </trkpt>
      <trkpt lat="62.632879720436" lon="17.966294112261">
        <ele>62.4</ele>
        <time>2017-12-18T18:16:32Z</time>
      </trkpt>
      <trkpt lat="62.632857676039" lon="17.966297465021">
        <ele>62.2</ele>
        <time>2017-12-18T18:16:33Z</time>
      </trkpt>
      <trkpt lat="62.632833033253" lon="17.966300398686">
        <ele>62.2</ele>
        <time>2017-12-18T18:16:34Z</time>
      </trkpt>
      <trkpt lat="62.632808222829" lon="17.966298051754">
        <ele>62.2</ele>
        <time>2017-12-18T18:16:35Z</time>
      </trkpt>
      <trkpt lat="62.632777796532" lon="17.966300314867">
        <ele>62</ele>
        <time>2017-12-18T18:16:36Z</time>
      </trkpt>
      <trkpt lat="62.632752567013" lon="17.966301488333">
        <ele>62</ele>
        <time>2017-12-18T18:16:37Z</time>
      </trkpt>
      <trkpt lat="62.632726247847" lon="17.966298051754">
        <ele>62</ele>
        <time>2017-12-18T18:16:38Z</time>
      </trkpt>
      <trkpt lat="62.63270252707" lon="17.966295201908">
        <ele>62</ele>
        <time>2017-12-18T18:16:39Z</time>
      </trkpt>
      <trkpt lat="62.632678135741" lon="17.96629503427">
        <ele>62</ele>
        <time>2017-12-18T18:16:40Z</time>
      </trkpt>
      <trkpt lat="62.632654498783" lon="17.96629000513">
        <ele>61.8</ele>
        <time>2017-12-18T18:16:41Z</time>
      </trkpt>
      <trkpt lat="62.632630610368" lon="17.966291094777">
        <ele>61.8</ele>
        <time>2017-12-18T18:16:42Z</time>
      </trkpt>
      <trkpt lat="62.632603788288" lon="17.966289418397">
        <ele>61.6</ele>
        <time>2017-12-18T18:16:43Z</time>
      </trkpt>
      <trkpt lat="62.632579396959" lon="17.966287574379">
        <ele>61.4</ele>
        <time>2017-12-18T18:16:44Z</time>
      </trkpt>
      <trkpt lat="62.632557855476" lon="17.966281455592">
        <ele>61.4</ele>
        <time>2017-12-18T18:16:45Z</time>
      </trkpt>
      <trkpt lat="62.632531620129" lon="17.966273157511">
        <ele>61.4</ele>
        <time>2017-12-18T18:16:46Z</time>
      </trkpt>
      <trkpt lat="62.632512760854" lon="17.966269972389">
        <ele>61.4</ele>
        <time>2017-12-18T18:16:47Z</time>
      </trkpt>
      <trkpt lat="62.632486190231" lon="17.966263853602">
        <ele>61.4</ele>
        <time>2017-12-18T18:16:48Z</time>
      </trkpt>
      <trkpt lat="62.632467330956" lon="17.966261003756">
        <ele>61.4</ele>
        <time>2017-12-18T18:16:49Z</time>
      </trkpt>
      <trkpt lat="62.632436150288" lon="17.966253543865">
        <ele>61.2</ele>
        <time>2017-12-18T18:16:50Z</time>
      </trkpt>
      <trkpt lat="62.632409579665" lon="17.96624977201">
        <ele>61.2</ele>
        <time>2017-12-18T18:16:51Z</time>
      </trkpt>
      <trkpt lat="62.632381751757" lon="17.96624474287">
        <ele>61</ele>
        <time>2017-12-18T18:16:52Z</time>
      </trkpt>
      <trkpt lat="62.632359874998" lon="17.966243988499">
        <ele>61</ele>
        <time>2017-12-18T18:16:53Z</time>
      </trkpt>
      <trkpt lat="62.63233288528" lon="17.966246251612">
        <ele>60.8</ele>
        <time>2017-12-18T18:16:54Z</time>
      </trkpt>
      <trkpt lat="62.632307991037" lon="17.966252957132">
        <ele>60.8</ele>
        <time>2017-12-18T18:16:55Z</time>
      </trkpt>
      <trkpt lat="62.632283348251" lon="17.966275001529">
        <ele>60.8</ele>
        <time>2017-12-18T18:16:56Z</time>
      </trkpt>
      <trkpt lat="62.632262058225" lon="17.966309199681">
        <ele>60.6</ele>
        <time>2017-12-18T18:16:57Z</time>
      </trkpt>
      <trkpt lat="62.632244120959" lon="17.966354713398">
        <ele>60.6</ele>
        <time>2017-12-18T18:16:58Z</time>
      </trkpt>
      <trkpt lat="62.632236996344" lon="17.966396539079">
        <ele>60.6</ele>
        <time>2017-12-18T18:16:59Z</time>
      </trkpt>
      <trkpt lat="62.632230039367" lon="17.966445573194">
        <ele>60.6</ele>
        <time>2017-12-18T18:17:00Z</time>
      </trkpt>
      <trkpt lat="62.632225094046" lon="17.966496786603">
        <ele>60.6</ele>
        <time>2017-12-18T18:17:01Z</time>
      </trkpt>
      <trkpt lat="62.632220400182" lon="17.966540288664">
        <ele>60.4</ele>
        <time>2017-12-18T18:17:02Z</time>
      </trkpt>
      <trkpt lat="62.632214532852" lon="17.966588316951">
        <ele>60.4</ele>
        <time>2017-12-18T18:17:03Z</time>
      </trkpt>
      <trkpt lat="62.632211850644" lon="17.966629807356">
        <ele>60.6</ele>
        <time>2017-12-18T18:17:04Z</time>
      </trkpt>
      <trkpt lat="62.632209336074" lon="17.966674063788">
        <ele>60.8</ele>
        <time>2017-12-18T18:17:05Z</time>
      </trkpt>
      <trkpt lat="62.63220296583" lon="17.966728294681">
        <ele>60.8</ele>
        <time>2017-12-18T18:17:06Z</time>
      </trkpt>
      <trkpt lat="62.632199110156" lon="17.966770874733">
        <ele>61</ele>
        <time>2017-12-18T18:17:07Z</time>
      </trkpt>
      <trkpt lat="62.632193997197" lon="17.96681555026">
        <ele>61.2</ele>
        <time>2017-12-18T18:17:08Z</time>
      </trkpt>
      <trkpt lat="62.632188297505" lon="17.966862740357">
        <ele>61.4</ele>
        <time>2017-12-18T18:17:09Z</time>
      </trkpt>
      <trkpt lat="62.632184022736" lon="17.966900710364">
        <ele>61.6</ele>
        <time>2017-12-18T18:17:10Z</time>
      </trkpt>
      <trkpt lat="62.632180250881" lon="17.966932729222">
        <ele>61.8</ele>
        <time>2017-12-18T18:17:11Z</time>
      </trkpt>
      <trkpt lat="62.632172455714" lon="17.966993833273">
        <ele>62</ele>
        <time>2017-12-18T18:17:12Z</time>
      </trkpt>
      <trkpt lat="62.632167678031" lon="17.967035910411">
        <ele>62.2</ele>
        <time>2017-12-18T18:17:13Z</time>
      </trkpt>
      <trkpt lat="62.632160804873" lon="17.96708209468">
        <ele>62.4</ele>
        <time>2017-12-18T18:17:14Z</time>
      </trkpt>
      <trkpt lat="62.632152758249" lon="17.967123668904">
        <ele>62.6</ele>
        <time>2017-12-18T18:17:15Z</time>
      </trkpt>
      <trkpt lat="62.632144376349" lon="17.967168260612">
        <ele>62.8</ele>
        <time>2017-12-18T18:17:16Z</time>
      </trkpt>
      <trkpt lat="62.632134569526" lon="17.967211595035">
        <ele>63</ele>
        <time>2017-12-18T18:17:17Z</time>
      </trkpt>
      <trkpt lat="62.632125517074" lon="17.967251828155">
        <ele>63.2</ele>
        <time>2017-12-18T18:17:18Z</time>
      </trkpt>
      <trkpt lat="62.632114452966" lon="17.967287199773">
        <ele>63.2</ele>
        <time>2017-12-18T18:17:19Z</time>
      </trkpt>
      <trkpt lat="62.632102047754" lon="17.967330031282">
        <ele>63.2</ele>
        <time>2017-12-18T18:17:20Z</time>
      </trkpt>
      <trkpt lat="62.632090313094" lon="17.967369929126">
        <ele>63.6</ele>
        <time>2017-12-18T18:17:21Z</time>
      </trkpt>
      <trkpt lat="62.632077404968" lon="17.967410162246">
        <ele>63.6</ele>
        <time>2017-12-18T18:17:22Z</time>
      </trkpt>
      <trkpt lat="62.632064245385" lon="17.967446623511">
        <ele>63.8</ele>
        <time>2017-12-18T18:17:23Z</time>
      </trkpt>
      <trkpt lat="62.632051923992" lon="17.967484509699">
        <ele>64</ele>
        <time>2017-12-18T18:17:24Z</time>
      </trkpt>
      <trkpt lat="62.632039351142" lon="17.967523988448">
        <ele>64.2</ele>
        <time>2017-12-18T18:17:25Z</time>
      </trkpt>
      <trkpt lat="62.632025940102" lon="17.967568077242">
        <ele>64.4</ele>
        <time>2017-12-18T18:17:26Z</time>
      </trkpt>
      <trkpt lat="62.632015043632" lon="17.967606047249">
        <ele>64.6</ele>
        <time>2017-12-18T18:17:27Z</time>
      </trkpt>
      <trkpt lat="62.63200180023" lon="17.967649716948">
        <ele>64.8</ele>
        <time>2017-12-18T18:17:28Z</time>
      </trkpt>
      <trkpt lat="62.631990233208" lon="17.967682573996">
        <ele>65</ele>
        <time>2017-12-18T18:17:29Z</time>
      </trkpt>
      <trkpt lat="62.631978917643" lon="17.967719621994">
        <ele>65.4</ele>
        <time>2017-12-18T18:17:30Z</time>
      </trkpt>
      <trkpt lat="62.631964500775" lon="17.967765303349">
        <ele>65.6</ele>
        <time>2017-12-18T18:17:31Z</time>
      </trkpt>
      <trkpt lat="62.63195234702" lon="17.967801429338">
        <ele>65.8</ele>
        <time>2017-12-18T18:17:32Z</time>
      </trkpt>
      <trkpt lat="62.631938768342" lon="17.967838644974">
        <ele>66</ele>
        <time>2017-12-18T18:17:33Z</time>
      </trkpt>
      <trkpt lat="62.631924938207" lon="17.967876112067">
        <ele>66</ele>
        <time>2017-12-18T18:17:34Z</time>
      </trkpt>
      <trkpt lat="62.631915047565" lon="17.967907041278">
        <ele>66</ele>
        <time>2017-12-18T18:17:35Z</time>
      </trkpt>
      <trkpt lat="62.631900965973" lon="17.96795632685">
        <ele>66.4</ele>
        <time>2017-12-18T18:17:36Z</time>
      </trkpt>
      <trkpt lat="62.631887135838" lon="17.967992788115">
        <ele>66.6</ele>
        <time>2017-12-18T18:17:37Z</time>
      </trkpt>
      <trkpt lat="62.631876574644" lon="17.96803008757">
        <ele>66.6</ele>
        <time>2017-12-18T18:17:38Z</time>
      </trkpt>
      <trkpt lat="62.631863666518" lon="17.968077780581">
        <ele>66.8</ele>
        <time>2017-12-18T18:17:39Z</time>
      </trkpt>
      <trkpt lat="62.631853775876" lon="17.968112565466">
        <ele>67</ele>
        <time>2017-12-18T18:17:40Z</time>
      </trkpt>
      <trkpt lat="62.631843549958" lon="17.968148691455">
        <ele>67.2</ele>
        <time>2017-12-18T18:17:41Z</time>
      </trkpt>
      <trkpt lat="62.631828462538" lon="17.96819185824">
        <ele>67.2</ele>
        <time>2017-12-18T18:17:42Z</time>
      </trkpt>
      <trkpt lat="62.631817649887" lon="17.968227313677">
        <ele>67.4</ele>
        <time>2017-12-18T18:17:43Z</time>
      </trkpt>
      <trkpt lat="62.631804657942" lon="17.96826561896">
        <ele>67.6</ele>
        <time>2017-12-18T18:17:44Z</time>
      </trkpt>
      <trkpt lat="62.631794012929" lon="17.968298476008">
        <ele>67.6</ele>
        <time>2017-12-18T18:17:45Z</time>
      </trkpt>
      <trkpt lat="62.631780015156" lon="17.9683377033">
        <ele>67.8</ele>
        <time>2017-12-18T18:17:46Z</time>
      </trkpt>
      <trkpt lat="62.63176794522" lon="17.968371566176">
        <ele>68</ele>
        <time>2017-12-18T18:17:47Z</time>
      </trkpt>
      <trkpt lat="62.631757132569" lon="17.968408697993">
        <ele>68.2</ele>
        <time>2017-12-18T18:17:48Z</time>
      </trkpt>
      <trkpt lat="62.631745062633" lon="17.968446584181">
        <ele>68.6</ele>
        <time>2017-12-18T18:17:49Z</time>
      </trkpt>
      <trkpt lat="62.63173106486" lon="17.968488409862">
        <ele>68.8</ele>
        <time>2017-12-18T18:17:50Z</time>
      </trkpt>
      <trkpt lat="62.631719749295" lon="17.96853216338">
        <ele>69</ele>
        <time>2017-12-18T18:17:51Z</time>
      </trkpt>
      <trkpt lat="62.631708769006" lon="17.968579353477">
        <ele>69.2</ele>
        <time>2017-12-18T18:17:52Z</time>
      </trkpt>
      <trkpt lat="62.63170340459" lon="17.968618748407">
        <ele>69.4</ele>
        <time>2017-12-18T18:17:53Z</time>
      </trkpt>
      <trkpt lat="62.631698878364" lon="17.968666776694">
        <ele>69.6</ele>
        <time>2017-12-18T18:17:54Z</time>
      </trkpt>
      <trkpt lat="62.631694268319" lon="17.968710362574">
        <ele>69.8</ele>
        <time>2017-12-18T18:17:55Z</time>
      </trkpt>
      <trkpt lat="62.631691083197" lon="17.968753948454">
        <ele>70</ele>
        <time>2017-12-18T18:17:56Z</time>
      </trkpt>
      <trkpt lat="62.631688400989" lon="17.968796612325">
        <ele>70.2</ele>
        <time>2017-12-18T18:17:57Z</time>
      </trkpt>
      <trkpt lat="62.631689742093" lon="17.968843718603">
        <ele>70.4</ele>
        <time>2017-12-18T18:17:58Z</time>
      </trkpt>
      <trkpt lat="62.631690328826" lon="17.968881269515">
        <ele>70.6</ele>
        <time>2017-12-18T18:17:59Z</time>
      </trkpt>
      <trkpt lat="62.631692843396" lon="17.968927872879">
        <ele>70.8</ele>
        <time>2017-12-18T18:18:00Z</time>
      </trkpt>
      <trkpt lat="62.631696782889" lon="17.968975733528">
        <ele>71</ele>
        <time>2017-12-18T18:18:01Z</time>
      </trkpt>
      <trkpt lat="62.631700973839" lon="17.969017140114">
        <ele>71</ele>
        <time>2017-12-18T18:18:02Z</time>
      </trkpt>
      <trkpt lat="62.631706170617" lon="17.96906609041">
        <ele>71.2</ele>
        <time>2017-12-18T18:18:03Z</time>
      </trkpt>
      <trkpt lat="62.631712205585" lon="17.969105150064">
        <ele>71.4</ele>
        <time>2017-12-18T18:18:04Z</time>
      </trkpt>
      <trkpt lat="62.631720755123" lon="17.969143036252">
        <ele>71.6</ele>
        <time>2017-12-18T18:18:05Z</time>
      </trkpt>
      <trkpt lat="62.631732154507" lon="17.969193998204">
        <ele>71.6</ele>
        <time>2017-12-18T18:18:06Z</time>
      </trkpt>
      <trkpt lat="62.631742967158" lon="17.969233560772">
        <ele>71.8</ele>
        <time>2017-12-18T18:18:07Z</time>
      </trkpt>
      <trkpt lat="62.631754115085" lon="17.969281337602">
        <ele>72</ele>
        <time>2017-12-18T18:18:08Z</time>
      </trkpt>
      <trkpt lat="62.631764424822" lon="17.969320397256">
        <ele>72.2</ele>
        <time>2017-12-18T18:18:09Z</time>
      </trkpt>
      <trkpt lat="62.631776075663" lon="17.969355182141">
        <ele>72.4</ele>
        <time>2017-12-18T18:18:10Z</time>
      </trkpt>
      <trkpt lat="62.63179057635" lon="17.969391140492">
        <ele>72.6</ele>
        <time>2017-12-18T18:18:11Z</time>
      </trkpt>
      <trkpt lat="62.631807088693" lon="17.969424668092">
        <ele>73</ele>
        <time>2017-12-18T18:18:12Z</time>
      </trkpt>
      <trkpt lat="62.631824774502" lon="17.969451406353">
        <ele>73.2</ele>
        <time>2017-12-18T18:18:13Z</time>
      </trkpt>
      <trkpt lat="62.63184254413" lon="17.969477054967">
        <ele>73.4</ele>
        <time>2017-12-18T18:18:14Z</time>
      </trkpt>
      <trkpt lat="62.631858721197" lon="17.969495746604">
        <ele>73.6</ele>
        <time>2017-12-18T18:18:15Z</time>
      </trkpt>
      <trkpt lat="62.631880597956" lon="17.969515276431">
        <ele>73.8</ele>
        <time>2017-12-18T18:18:16Z</time>
      </trkpt>
      <trkpt lat="62.631898954317" lon="17.96952541853">
        <ele>74</ele>
        <time>2017-12-18T18:18:17Z</time>
      </trkpt>
      <trkpt lat="62.631922507456" lon="17.969529274204">
        <ele>74</ele>
        <time>2017-12-18T18:18:18Z</time>
      </trkpt>
      <trkpt lat="62.631945557681" lon="17.969530028575">
        <ele>74.2</ele>
        <time>2017-12-18T18:18:19Z</time>
      </trkpt>
      <trkpt lat="62.63196659625" lon="17.969528855109">
        <ele>74.2</ele>
        <time>2017-12-18T18:18:20Z</time>
      </trkpt>
      <trkpt lat="62.631990233208" lon="17.96952458034">
        <ele>74.2</ele>
        <time>2017-12-18T18:18:21Z</time>
      </trkpt>
      <trkpt lat="62.632013115795" lon="17.969526340539">
        <ele>74.4</ele>
        <time>2017-12-18T18:18:22Z</time>
      </trkpt>
      <trkpt lat="62.632033064717" lon="17.969520724666">
        <ele>74.4</ele>
        <time>2017-12-18T18:18:23Z</time>
      </trkpt>
      <trkpt lat="62.63205544439" lon="17.969516785173">
        <ele>74.6</ele>
        <time>2017-12-18T18:18:24Z</time>
      </trkpt>
      <trkpt lat="62.632076902054" lon="17.969518964467">
        <ele>74.6</ele>
        <time>2017-12-18T18:18:25Z</time>
      </trkpt>
      <trkpt lat="62.632096599519" lon="17.969519132105">
        <ele>74.6</ele>
        <time>2017-12-18T18:18:26Z</time>
      </trkpt>
      <trkpt lat="62.632118224821" lon="17.969515527888">
        <ele>74.6</ele>
        <time>2017-12-18T18:18:27Z</time>
      </trkpt>
      <trkpt lat="62.632142951426" lon="17.96951200749">
        <ele>74.8</ele>
        <time>2017-12-18T18:18:28Z</time>
      </trkpt>
      <trkpt lat="62.632164241452" lon="17.969508403273">
        <ele>74.8</ele>
        <time>2017-12-18T18:18:29Z</time>
      </trkpt>
      <trkpt lat="62.632187459315" lon="17.969501446296">
        <ele>74.8</ele>
        <time>2017-12-18T18:18:30Z</time>
      </trkpt>
      <trkpt lat="62.632210760997" lon="17.969502535943">
        <ele>75</ele>
        <time>2017-12-18T18:18:31Z</time>
      </trkpt>
      <trkpt lat="62.632231212833" lon="17.96949859645">
        <ele>74.8</ele>
        <time>2017-12-18T18:18:32Z</time>
      </trkpt>
      <trkpt lat="62.632255017429" lon="17.969493651129">
        <ele>74.8</ele>
        <time>2017-12-18T18:18:33Z</time>
      </trkpt>
      <trkpt lat="62.632279492577" lon="17.969492226206">
        <ele>74.8</ele>
        <time>2017-12-18T18:18:34Z</time>
      </trkpt>
      <trkpt lat="62.632298938585" lon="17.969488957265">
        <ele>74.8</ele>
        <time>2017-12-18T18:18:35Z</time>
      </trkpt>
      <trkpt lat="62.632324754837" lon="17.969483341392">
        <ele>74.8</ele>
        <time>2017-12-18T18:18:36Z</time>
      </trkpt>
      <trkpt lat="62.632348307976" lon="17.969480910641">
        <ele>74.8</ele>
        <time>2017-12-18T18:18:37Z</time>
      </trkpt>
      <trkpt lat="62.632370017097" lon="17.969479234261">
        <ele>74.8</ele>
        <time>2017-12-18T18:18:38Z</time>
      </trkpt>
      <trkpt lat="62.632390971847" lon="17.969481413555">
        <ele>74.8</ele>
        <time>2017-12-18T18:18:39Z</time>
      </trkpt>
      <trkpt lat="62.632414357348" lon="17.969478731347">
        <ele>74.8</ele>
        <time>2017-12-18T18:18:40Z</time>
      </trkpt>
      <trkpt lat="62.632436066469" lon="17.969477557881">
        <ele>74.8</ele>
        <time>2017-12-18T18:18:41Z</time>
      </trkpt>
      <trkpt lat="62.632463475282" lon="17.969476635872">
        <ele>74.8</ele>
        <time>2017-12-18T18:18:42Z</time>
      </trkpt>
      <trkpt lat="62.632486357869" lon="17.969478815166">
        <ele>74.8</ele>
        <time>2017-12-18T18:18:43Z</time>
      </trkpt>
      <trkpt lat="62.632508737542" lon="17.969484431039">
        <ele>74.8</ele>
        <time>2017-12-18T18:18:44Z</time>
      </trkpt>
      <trkpt lat="62.632529189378" lon="17.969485101591">
        <ele>74.8</ele>
        <time>2017-12-18T18:18:45Z</time>
      </trkpt>
      <trkpt lat="62.632554502716" lon="17.969490130731">
        <ele>74.8</ele>
        <time>2017-12-18T18:18:46Z</time>
      </trkpt>
      <trkpt lat="62.632574703095" lon="17.969492645301">
        <ele>74.8</ele>
        <time>2017-12-18T18:18:47Z</time>
      </trkpt>
      <trkpt lat="62.632597166587" lon="17.969495578966">
        <ele>75</ele>
        <time>2017-12-18T18:18:48Z</time>
      </trkpt>
      <trkpt lat="62.632620049174" lon="17.969500775744">
        <ele>75</ele>
        <time>2017-12-18T18:18:49Z</time>
      </trkpt>
      <trkpt lat="62.632639159906" lon="17.969502200667">
        <ele>75</ele>
        <time>2017-12-18T18:18:50Z</time>
      </trkpt>
      <trkpt lat="62.632660366113" lon="17.969506223979">
        <ele>75</ele>
        <time>2017-12-18T18:18:51Z</time>
      </trkpt>
      <trkpt lat="62.632684170709" lon="17.969516030802">
        <ele>75</ele>
        <time>2017-12-18T18:18:52Z</time>
      </trkpt>
      <trkpt lat="62.632703616717" lon="17.969523155417">
        <ele>75</ele>
        <time>2017-12-18T18:18:53Z</time>
      </trkpt>
      <trkpt lat="62.632727756589" lon="17.969530196213">
        <ele>75</ele>
        <time>2017-12-18T18:18:54Z</time>
      </trkpt>
      <trkpt lat="62.632747034959" lon="17.969537404647">
        <ele>75</ele>
        <time>2017-12-18T18:18:55Z</time>
      </trkpt>
      <trkpt lat="62.632768157347" lon="17.969545283633">
        <ele>75</ele>
        <time>2017-12-18T18:18:56Z</time>
      </trkpt>
      <trkpt lat="62.632791207572" lon="17.969547798203">
        <ele>75.2</ele>
        <time>2017-12-18T18:18:57Z</time>
      </trkpt>
      <trkpt lat="62.632813587245" lon="17.969554671361">
        <ele>75.2</ele>
        <time>2017-12-18T18:18:58Z</time>
      </trkpt>
      <trkpt lat="62.632836050737" lon="17.969555006637">
        <ele>75.2</ele>
        <time>2017-12-18T18:18:59Z</time>
      </trkpt>
      <trkpt lat="62.632859100962" lon="17.969558527035">
        <ele>75.2</ele>
        <time>2017-12-18T18:19:00Z</time>
      </trkpt>
      <trkpt lat="62.632884330481" lon="17.969564981098">
        <ele>75.4</ele>
        <time>2017-12-18T18:19:01Z</time>
      </trkpt>
      <trkpt lat="62.632905033774" lon="17.969567411849">
        <ele>75.4</ele>
        <time>2017-12-18T18:19:02Z</time>
      </trkpt>
      <trkpt lat="62.632930347112" lon="17.969575039378">
        <ele>75.6</ele>
        <time>2017-12-18T18:19:03Z</time>
      </trkpt>
      <trkpt lat="62.632953062061" lon="17.969578559776">
        <ele>75.6</ele>
        <time>2017-12-18T18:19:04Z</time>
      </trkpt>
      <trkpt lat="62.632972172793" lon="17.969580906708">
        <ele>75.6</ele>
        <time>2017-12-18T18:19:05Z</time>
      </trkpt>
      <trkpt lat="62.632999497787" lon="17.969586271124">
        <ele>75.8</ele>
        <time>2017-12-18T18:19:06Z</time>
      </trkpt>
      <trkpt lat="62.633022128917" lon="17.969591970816">
        <ele>75.8</ele>
        <time>2017-12-18T18:19:07Z</time>
      </trkpt>
      <trkpt lat="62.633043586581" lon="17.969596916137">
        <ele>75.8</ele>
        <time>2017-12-18T18:19:08Z</time>
      </trkpt>
      <trkpt lat="62.633068145548" lon="17.969605381856">
        <ele>76</ele>
        <time>2017-12-18T18:19:09Z</time>
      </trkpt>
      <trkpt lat="62.633088513565" lon="17.969613512299">
        <ele>76</ele>
        <time>2017-12-18T18:19:10Z</time>
      </trkpt>
      <trkpt lat="62.633107708116" lon="17.969619714905">
        <ele>76</ele>
        <time>2017-12-18T18:19:11Z</time>
      </trkpt>
      <trkpt lat="62.633134027282" lon="17.96962683952">
        <ele>76</ele>
        <time>2017-12-18T18:19:12Z</time>
      </trkpt>
      <trkpt lat="62.633157245145" lon="17.969635053782">
        <ele>76.2</ele>
        <time>2017-12-18T18:19:13Z</time>
      </trkpt>
      <trkpt lat="62.633178451352" lon="17.969637987447">
        <ele>76.2</ele>
        <time>2017-12-18T18:19:14Z</time>
      </trkpt>
      <trkpt lat="62.633199406102" lon="17.969645866433">
        <ele>76.2</ele>
        <time>2017-12-18T18:19:15Z</time>
      </trkpt>
      <trkpt lat="62.633226312001" lon="17.969652236677">
        <ele>76.2</ele>
        <time>2017-12-18T18:19:16Z</time>
      </trkpt>
      <trkpt lat="62.633246344742" lon="17.969661875862">
        <ele>76.2</ele>
        <time>2017-12-18T18:19:17Z</time>
      </trkpt>
      <trkpt lat="62.633273921193" lon="17.969674029617">
        <ele>76.2</ele>
        <time>2017-12-18T18:19:18Z</time>
      </trkpt>
      <trkpt lat="62.633295462676" lon="17.969692050702">
        <ele>76.4</ele>
        <time>2017-12-18T18:19:19Z</time>
      </trkpt>
      <trkpt lat="62.633314573408" lon="17.969708898321">
        <ele>76.4</ele>
        <time>2017-12-18T18:19:20Z</time>
      </trkpt>
      <trkpt lat="62.633337288357" lon="17.969741755369">
        <ele>76.4</ele>
        <time>2017-12-18T18:19:21Z</time>
      </trkpt>
      <trkpt lat="62.633353633062" lon="17.969775534426">
        <ele>76.4</ele>
        <time>2017-12-18T18:19:22Z</time>
      </trkpt>
      <trkpt lat="62.633367966111" lon="17.969810906044">
        <ele>76.4</ele>
        <time>2017-12-18T18:19:23Z</time>
      </trkpt>
      <trkpt lat="62.633377772934" lon="17.969861281263">
        <ele>76.6</ele>
        <time>2017-12-18T18:19:24Z</time>
      </trkpt>
      <trkpt lat="62.633386406291" lon="17.96990428041">
        <ele>76.8</ele>
        <time>2017-12-18T18:19:25Z</time>
      </trkpt>
      <trkpt lat="62.633389675232" lon="17.969951889602">
        <ele>76.8</ele>
        <time>2017-12-18T18:19:26Z</time>
      </trkpt>
      <trkpt lat="62.633391854526" lon="17.970004695572">
        <ele>77</ele>
        <time>2017-12-18T18:19:27Z</time>
      </trkpt>
      <trkpt lat="62.633397051304" lon="17.970047946176">
        <ele>77</ele>
        <time>2017-12-18T18:19:28Z</time>
      </trkpt>
      <trkpt lat="62.633400152607" lon="17.970076193179">
        <ele>77.2</ele>
        <time>2017-12-18T18:19:29Z</time>
      </trkpt>
      <trkpt lat="62.633406858127" lon="17.970138051601">
        <ele>77.2</ele>
        <time>2017-12-18T18:19:30Z</time>
      </trkpt>
      <trkpt lat="62.633412641638" lon="17.97019345596">
        <ele>77.2</ele>
        <time>2017-12-18T18:19:31Z</time>
      </trkpt>
      <trkpt lat="62.633416916407" lon="17.970249782328">
        <ele>77.2</ele>
        <time>2017-12-18T18:19:32Z</time>
      </trkpt>
      <trkpt lat="62.633419766253" lon="17.9702990679">
        <ele>77.4</ele>
        <time>2017-12-18T18:19:33Z</time>
      </trkpt>
      <trkpt lat="62.633421861728" lon="17.97035103568">
        <ele>77.4</ele>
        <time>2017-12-18T18:19:34Z</time>
      </trkpt>
      <trkpt lat="62.633421274995" lon="17.970395962664">
        <ele>77.6</ele>
        <time>2017-12-18T18:19:35Z</time>
      </trkpt>
      <trkpt lat="62.63342337047" lon="17.970450864109">
        <ele>77.6</ele>
        <time>2017-12-18T18:19:36Z</time>
      </trkpt>
      <trkpt lat="62.633424627755" lon="17.970502915708">
        <ele>78</ele>
        <time>2017-12-18T18:19:37Z</time>
      </trkpt>
      <trkpt lat="62.633423789565" lon="17.970554632031">
        <ele>78</ele>
        <time>2017-12-18T18:19:38Z</time>
      </trkpt>
      <trkpt lat="62.633426387954" lon="17.970598720825">
        <ele>78.2</ele>
        <time>2017-12-18T18:19:39Z</time>
      </trkpt>
      <trkpt lat="62.633427393782" lon="17.970649934234">
        <ele>78.2</ele>
        <time>2017-12-18T18:19:40Z</time>
      </trkpt>
      <trkpt lat="62.633429824533" lon="17.970694106847">
        <ele>78.4</ele>
        <time>2017-12-18T18:19:41Z</time>
      </trkpt>
      <trkpt lat="62.633432003827" lon="17.970748589197">
        <ele>78.4</ele>
        <time>2017-12-18T18:19:42Z</time>
      </trkpt>
      <trkpt lat="62.63343426694" lon="17.970801478986">
        <ele>78.6</ele>
        <time>2017-12-18T18:19:43Z</time>
      </trkpt>
      <trkpt lat="62.633436949148" lon="17.970849842549">
        <ele>78.6</ele>
        <time>2017-12-18T18:19:44Z</time>
      </trkpt>
      <trkpt lat="62.633437954976" lon="17.970900636863">
        <ele>78.8</ele>
        <time>2017-12-18T18:19:45Z</time>
      </trkpt>
      <trkpt lat="62.63343929608" lon="17.970956627955">
        <ele>78.8</ele>
        <time>2017-12-18T18:19:46Z</time>
      </trkpt>
      <trkpt lat="62.63344013427" lon="17.971003818052">
        <ele>79</ele>
        <time>2017-12-18T18:19:47Z</time>
      </trkpt>
      <trkpt lat="62.633441056279" lon="17.971063916275">
        <ele>79.2</ele>
        <time>2017-12-18T18:19:48Z</time>
      </trkpt>
      <trkpt lat="62.633441475374" lon="17.971112447476">
        <ele>79.2</ele>
        <time>2017-12-18T18:19:49Z</time>
      </trkpt>
      <trkpt lat="62.633441391555" lon="17.971160811039">
        <ele>79.2</ele>
        <time>2017-12-18T18:19:50Z</time>
      </trkpt>
      <trkpt lat="62.633439547537" lon="17.971219987253">
        <ele>79.2</ele>
        <time>2017-12-18T18:19:51Z</time>
      </trkpt>
      <trkpt lat="62.633438374071" lon="17.971268266997">
        <ele>79.4</ele>
        <time>2017-12-18T18:19:52Z</time>
      </trkpt>
      <trkpt lat="62.633438038795" lon="17.971320402415">
        <ele>79.6</ele>
        <time>2017-12-18T18:19:53Z</time>
      </trkpt>
      <trkpt lat="62.633439631356" lon="17.971378405163">
        <ele>79.6</ele>
        <time>2017-12-18T18:19:54Z</time>
      </trkpt>
      <trkpt lat="62.633437787338" lon="17.971425427622">
        <ele>79.6</ele>
        <time>2017-12-18T18:19:55Z</time>
      </trkpt>
      <trkpt lat="62.633435859501" lon="17.971480999619">
        <ele>79.8</ele>
        <time>2017-12-18T18:19:56Z</time>
      </trkpt>
      <trkpt lat="62.633433931664" lon="17.971533805589">
        <ele>79.8</ele>
        <time>2017-12-18T18:19:57Z</time>
      </trkpt>
      <trkpt lat="62.633431165637" lon="17.971584180808">
        <ele>80</ele>
        <time>2017-12-18T18:19:58Z</time>
      </trkpt>
      <trkpt lat="62.633428734886" lon="17.971633131104">
        <ele>80.2</ele>
        <time>2017-12-18T18:19:59Z</time>
      </trkpt>
      <trkpt lat="62.633426387954" lon="17.971683590142">
        <ele>80.2</ele>
        <time>2017-12-18T18:20:00Z</time>
      </trkpt>
      <trkpt lat="62.633421023538" lon="17.971741425252">
        <ele>80.2</ele>
        <time>2017-12-18T18:20:01Z</time>
      </trkpt>
      <trkpt lat="62.633415156208" lon="17.971792554842">
        <ele>80.4</ele>
        <time>2017-12-18T18:20:02Z</time>
      </trkpt>
      <trkpt lat="62.633410546163" lon="17.971846785735">
        <ele>80.4</ele>
        <time>2017-12-18T18:20:03Z</time>
      </trkpt>
      <trkpt lat="62.633405936118" lon="17.971899591705">
        <ele>80.4</ele>
        <time>2017-12-18T18:20:04Z</time>
      </trkpt>
      <trkpt lat="62.633400571702" lon="17.9719419203">
        <ele>80.6</ele>
        <time>2017-12-18T18:20:05Z</time>
      </trkpt>
      <trkpt lat="62.633394704372" lon="17.97200143179">
        <ele>80.6</ele>
        <time>2017-12-18T18:20:06Z</time>
      </trkpt>
      <trkpt lat="62.633387998852" lon="17.972054489217">
        <ele>80.8</ele>
        <time>2017-12-18T18:20:07Z</time>
      </trkpt>
      <trkpt lat="62.633384981368" lon="17.972099332382">
        <ele>80.8</ele>
        <time>2017-12-18T18:20:08Z</time>
      </trkpt>
      <trkpt lat="62.633377353839" lon="17.972152892723">
        <ele>81</ele>
        <time>2017-12-18T18:20:09Z</time>
      </trkpt>
      <trkpt lat="62.633371570328" lon="17.972198071164">
        <ele>81</ele>
        <time>2017-12-18T18:20:10Z</time>
      </trkpt>
      <trkpt lat="62.633364110437" lon="17.972247524374">
        <ele>81.2</ele>
        <time>2017-12-18T18:20:11Z</time>
      </trkpt>
      <trkpt lat="62.633355728537" lon="17.972303431647">
        <ele>81.2</ele>
        <time>2017-12-18T18:20:12Z</time>
      </trkpt>
      <trkpt lat="62.633349525931" lon="17.97235430978">
        <ele>81.2</ele>
        <time>2017-12-18T18:20:13Z</time>
      </trkpt>
      <trkpt lat="62.633340641117" lon="17.972408456854">
        <ele>81.4</ele>
        <time>2017-12-18T18:20:14Z</time>
      </trkpt>
      <trkpt lat="62.633334354692" lon="17.972453886752">
        <ele>81.4</ele>
        <time>2017-12-18T18:20:15Z</time>
      </trkpt>
      <trkpt lat="62.633325386059" lon="17.972504178152">
        <ele>81.4</ele>
        <time>2017-12-18T18:20:16Z</time>
      </trkpt>
      <trkpt lat="62.633316333607" lon="17.97255463719">
        <ele>81.6</ele>
        <time>2017-12-18T18:20:17Z</time>
      </trkpt>
      <trkpt lat="62.633306442965" lon="17.972607024065">
        <ele>81.6</ele>
        <time>2017-12-18T18:20:18Z</time>
      </trkpt>
      <trkpt lat="62.633294959762" lon="17.972654800895">
        <ele>81.8</ele>
        <time>2017-12-18T18:20:19Z</time>
      </trkpt>
      <trkpt lat="62.633283644197" lon="17.972702242449">
        <ele>81.8</ele>
        <time>2017-12-18T18:20:20Z</time>
      </trkpt>
      <trkpt lat="62.633271741899" lon="17.972747337071">
        <ele>82</ele>
        <time>2017-12-18T18:20:21Z</time>
      </trkpt>
      <trkpt lat="62.633261432162" lon="17.972792431693">
        <ele>82</ele>
        <time>2017-12-18T18:20:22Z</time>
      </trkpt>
      <trkpt lat="62.633250451873" lon="17.972836101392">
        <ele>82.2</ele>
        <time>2017-12-18T18:20:23Z</time>
      </trkpt>
      <trkpt lat="62.633241818516" lon="17.972885638421">
        <ele>82.2</ele>
        <time>2017-12-18T18:20:24Z</time>
      </trkpt>
      <trkpt lat="62.633231592598" lon="17.972935259269">
        <ele>82.4</ele>
        <time>2017-12-18T18:20:25Z</time>
      </trkpt>
      <trkpt lat="62.633219941757" lon="17.97298043771">
        <ele>82.4</ele>
        <time>2017-12-18T18:20:26Z</time>
      </trkpt>
      <trkpt lat="62.633209296744" lon="17.973028633635">
        <ele>82.4</ele>
        <time>2017-12-18T18:20:27Z</time>
      </trkpt>
      <trkpt lat="62.633198567912" lon="17.973078757397">
        <ele>82.6</ele>
        <time>2017-12-18T18:20:28Z</time>
      </trkpt>
      <trkpt lat="62.633189934555" lon="17.97311957725">
        <ele>82.8</ele>
        <time>2017-12-18T18:20:29Z</time>
      </trkpt>
      <trkpt lat="62.633179121904" lon="17.973165929157">
        <ele>82.8</ele>
        <time>2017-12-18T18:20:30Z</time>
      </trkpt>
      <trkpt lat="62.633167303425" lon="17.973220579145">
        <ele>82.8</ele>
        <time>2017-12-18T18:20:31Z</time>
      </trkpt>
      <trkpt lat="62.633158753887" lon="17.973265506129">
        <ele>83</ele>
        <time>2017-12-18T18:20:32Z</time>
      </trkpt>
      <trkpt lat="62.633147019227" lon="17.973313115321">
        <ele>83</ele>
        <time>2017-12-18T18:20:33Z</time>
      </trkpt>
      <trkpt lat="62.633134697834" lon="17.973362400893">
        <ele>83</ele>
        <time>2017-12-18T18:20:34Z</time>
      </trkpt>
      <trkpt lat="62.633125729201" lon="17.973402717832">
        <ele>83</ele>
        <time>2017-12-18T18:20:35Z</time>
      </trkpt>
      <trkpt lat="62.633112821075" lon="17.973459714752">
        <ele>83.2</ele>
        <time>2017-12-18T18:20:36Z</time>
      </trkpt>
      <trkpt lat="62.633102008424" lon="17.973505815202">
        <ele>83.2</ele>
        <time>2017-12-18T18:20:37Z</time>
      </trkpt>
      <trkpt lat="62.633092117782" lon="17.973553005299">
        <ele>83.4</ele>
        <time>2017-12-18T18:20:38Z</time>
      </trkpt>
      <trkpt lat="62.633080131665" lon="17.973599105749">
        <ele>83.4</ele>
        <time>2017-12-18T18:20:39Z</time>
      </trkpt>
      <trkpt lat="62.633071498308" lon="17.97364428419">
        <ele>83.6</ele>
        <time>2017-12-18T18:20:40Z</time>
      </trkpt>
      <trkpt lat="62.63306127239" lon="17.973694827047">
        <ele>83.6</ele>
        <time>2017-12-18T18:20:41Z</time>
      </trkpt>
      <trkpt lat="62.633048531902" lon="17.973749560854">
        <ele>83.8</ele>
        <time>2017-12-18T18:20:42Z</time>
      </trkpt>
      <trkpt lat="62.633038305984" lon="17.973794068743">
        <ele>83.8</ele>
        <time>2017-12-18T18:20:43Z</time>
      </trkpt>
      <trkpt lat="62.633023805297" lon="17.973844863057">
        <ele>84</ele>
        <time>2017-12-18T18:20:44Z</time>
      </trkpt>
      <trkpt lat="62.63301265737" lon="17.97388987386">
        <ele>84.2</ele>
        <time>2017-12-18T18:20:45Z</time>
      </trkpt>
      <trkpt lat="62.633001174167" lon="17.973944775305">
        <ele>84.2</ele>
        <time>2017-12-18T18:20:46Z</time>
      </trkpt>
      <trkpt lat="62.632989439507" lon="17.973996575447">
        <ele>84.2</ele>
        <time>2017-12-18T18:20:47Z</time>
      </trkpt>
      <trkpt lat="62.632977369571" lon="17.974045441924">
        <ele>84.2</ele>
        <time>2017-12-18T18:20:48Z</time>
      </trkpt>
      <trkpt lat="62.632965048178" lon="17.974098164075">
        <ele>84.2</ele>
        <time>2017-12-18T18:20:49Z</time>
      </trkpt>
      <trkpt lat="62.632953816432" lon="17.974149042208">
        <ele>84.2</ele>
        <time>2017-12-18T18:20:50Z</time>
      </trkpt>
      <trkpt lat="62.632943339057" lon="17.974199249789">
        <ele>84.4</ele>
        <time>2017-12-18T18:20:51Z</time>
      </trkpt>
      <trkpt lat="62.632929928017" lon="17.974253480682">
        <ele>84.6</ele>
        <time>2017-12-18T18:20:52Z</time>
      </trkpt>
      <trkpt lat="62.632918612452" lon="17.974303017711">
        <ele>84.6</ele>
        <time>2017-12-18T18:20:53Z</time>
      </trkpt>
      <trkpt lat="62.632906458697" lon="17.974354398758">
        <ele>84.6</ele>
        <time>2017-12-18T18:20:54Z</time>
      </trkpt>
      <trkpt lat="62.632891790372" lon="17.974401840312">
        <ele>84.6</ele>
        <time>2017-12-18T18:20:55Z</time>
      </trkpt>
      <trkpt lat="62.632875613305" lon="17.974439391224">
        <ele>84.6</ele>
        <time>2017-12-18T18:20:56Z</time>
      </trkpt>
      <trkpt lat="62.632852311623" lon="17.974475684851">
        <ele>84.6</ele>
        <time>2017-12-18T18:20:57Z</time>
      </trkpt>
      <trkpt lat="62.63282741738" lon="17.974500830551">
        <ele>84.6</ele>
        <time>2017-12-18T18:20:58Z</time>
      </trkpt>
      <trkpt lat="62.632806797906" lon="17.974512816668">
        <ele>84.6</ele>
        <time>2017-12-18T18:20:59Z</time>
      </trkpt>
      <trkpt lat="62.632781484568" lon="17.974517259075">
        <ele>84.8</ele>
        <time>2017-12-18T18:21:00Z</time>
      </trkpt>
      <trkpt lat="62.632753740479" lon="17.974527987907">
        <ele>84.8</ele>
        <time>2017-12-18T18:21:01Z</time>
      </trkpt>
      <trkpt lat="62.632732450453" lon="17.974525305699">
        <ele>84.8</ele>
        <time>2017-12-18T18:21:02Z</time>
      </trkpt>
      <trkpt lat="62.632708059124" lon="17.974515750333">
        <ele>85</ele>
        <time>2017-12-18T18:21:03Z</time>
      </trkpt>
      <trkpt lat="62.632685176537" lon="17.974498148343">
        <ele>85</ele>
        <time>2017-12-18T18:21:04Z</time>
      </trkpt>
      <trkpt lat="62.632667406909" lon="17.97447744505">
        <ele>84.8</ele>
        <time>2017-12-18T18:21:05Z</time>
      </trkpt>
      <trkpt lat="62.632642345028" lon="17.974446934934">
        <ele>85</ele>
        <time>2017-12-18T18:21:06Z</time>
      </trkpt>
      <trkpt lat="62.632624156305" lon="17.974431260781">
        <ele>84.8</ele>
        <time>2017-12-18T18:21:07Z</time>
      </trkpt>
      <trkpt lat="62.632605967582" lon="17.974412317687">
        <ele>84.8</ele>
        <time>2017-12-18T18:21:08Z</time>
      </trkpt>
      <trkpt lat="62.632586270117" lon="17.974391530575">
        <ele>84.8</ele>
        <time>2017-12-18T18:21:09Z</time>
      </trkpt>
      <trkpt lat="62.632566907928" lon="17.974367390703">
        <ele>85</ele>
        <time>2017-12-18T18:21:10Z</time>
      </trkpt>
      <trkpt lat="62.632550647042" lon="17.974349369618">
        <ele>85</ele>
        <time>2017-12-18T18:21:11Z</time>
      </trkpt>
      <trkpt lat="62.632527680636" lon="17.974319194778">
        <ele>85</ele>
        <time>2017-12-18T18:21:12Z</time>
      </trkpt>
      <trkpt lat="62.632511503569" lon="17.974298491485">
        <ele>85</ele>
        <time>2017-12-18T18:21:13Z</time>
      </trkpt>
      <trkpt lat="62.632489291534" lon="17.974276195631">
        <ele>84.8</ele>
        <time>2017-12-18T18:21:14Z</time>
      </trkpt>
      <trkpt lat="62.632465151662" lon="17.97425281013">
        <ele>84.8</ele>
        <time>2017-12-18T18:21:15Z</time>
      </trkpt>
      <trkpt lat="62.632445621835" lon="17.974227161516">
        <ele>84.8</ele>
        <time>2017-12-18T18:21:16Z</time>
      </trkpt>
      <trkpt lat="62.632430366777" lon="17.974207128775">
        <ele>84.8</ele>
        <time>2017-12-18T18:21:17Z</time>
      </trkpt>
      <trkpt lat="62.632405472534" lon="17.974185838749">
        <ele>84.8</ele>
        <time>2017-12-18T18:21:18Z</time>
      </trkpt>
      <trkpt lat="62.632387870544" lon="17.974160022497">
        <ele>84.8</ele>
        <time>2017-12-18T18:21:19Z</time>
      </trkpt>
      <trkpt lat="62.632369262726" lon="17.97414636">
        <ele>84.8</ele>
        <time>2017-12-18T18:21:20Z</time>
      </trkpt>
      <trkpt lat="62.63234881089" lon="17.974122303947">
        <ele>84.8</ele>
        <time>2017-12-18T18:21:21Z</time>
      </trkpt>
      <trkpt lat="62.632326431217" lon="17.97409774498">
        <ele>84.8</ele>
        <time>2017-12-18T18:21:22Z</time>
      </trkpt>
      <trkpt lat="62.632306314657" lon="17.974080226809">
        <ele>84.8</ele>
        <time>2017-12-18T18:21:23Z</time>
      </trkpt>
      <trkpt lat="62.632285024631" lon="17.974050471064">
        <ele>84.8</ele>
        <time>2017-12-18T18:21:24Z</time>
      </trkpt>
      <trkpt lat="62.632265243347" lon="17.974031444151">
        <ele>84.6</ele>
        <time>2017-12-18T18:21:25Z</time>
      </trkpt>
      <trkpt lat="62.632241774027" lon="17.974008226288">
        <ele>84.8</ele>
        <time>2017-12-18T18:21:26Z</time>
      </trkpt>
      <trkpt lat="62.632220232544" lon="17.973981907122">
        <ele>84.6</ele>
        <time>2017-12-18T18:21:27Z</time>
      </trkpt>
      <trkpt lat="62.632196427948" lon="17.973956342327">
        <ele>84.6</ele>
        <time>2017-12-18T18:21:28Z</time>
      </trkpt>
      <trkpt lat="62.63217446737" lon="17.973932202455">
        <ele>84.6</ele>
        <time>2017-12-18T18:21:29Z</time>
      </trkpt>
      <trkpt lat="62.632151249507" lon="17.973908062583">
        <ele>84.6</ele>
        <time>2017-12-18T18:21:30Z</time>
      </trkpt>
      <trkpt lat="62.632126606721" lon="17.973883838892">
        <ele>84.6</ele>
        <time>2017-12-18T18:21:31Z</time>
      </trkpt>
      <trkpt lat="62.632104478505" lon="17.973857603545">
        <ele>84.6</ele>
        <time>2017-12-18T18:21:32Z</time>
      </trkpt>
      <trkpt lat="62.632085786868" lon="17.97383455332">
        <ele>84.6</ele>
        <time>2017-12-18T18:21:33Z</time>
      </trkpt>
      <trkpt lat="62.632064077747" lon="17.973811084">
        <ele>84.6</ele>
        <time>2017-12-18T18:21:34Z</time>
      </trkpt>
      <trkpt lat="62.632040776065" lon="17.973784429558">
        <ele>84.6</ele>
        <time>2017-12-18T18:21:35Z</time>
      </trkpt>
      <trkpt lat="62.632011942329" lon="17.973750147587">
        <ele>84.6</ele>
        <time>2017-12-18T18:21:36Z</time>
      </trkpt>
      <trkpt lat="62.631986880448" lon="17.973724163697">
        <ele>84.6</ele>
        <time>2017-12-18T18:21:37Z</time>
      </trkpt>
      <trkpt lat="62.631960896558" lon="17.973693569762">
        <ele>84.6</ele>
        <time>2017-12-18T18:21:38Z</time>
      </trkpt>
      <trkpt lat="62.631934242116" lon="17.973664568388">
        <ele>84.6</ele>
        <time>2017-12-18T18:21:39Z</time>
      </trkpt>
      <trkpt lat="62.631912197719" lon="17.973640009421">
        <ele>84.6</ele>
        <time>2017-12-18T18:21:40Z</time>
      </trkpt>
      <trkpt lat="62.631888057847" lon="17.973615366635">
        <ele>84.6</ele>
        <time>2017-12-18T18:21:41Z</time>
      </trkpt>
      <trkpt lat="62.631864504708" lon="17.973589215107">
        <ele>84.6</ele>
        <time>2017-12-18T18:21:42Z</time>
      </trkpt>
      <trkpt lat="62.631844555786" lon="17.97356465614">
        <ele>84.6</ele>
        <time>2017-12-18T18:21:43Z</time>
      </trkpt>
      <trkpt lat="62.631823433398" lon="17.973535151852">
        <ele>84.6</ele>
        <time>2017-12-18T18:21:44Z</time>
      </trkpt>
      <trkpt lat="62.631803819752" lon="17.973505815202">
        <ele>84.4</ele>
        <time>2017-12-18T18:21:45Z</time>
      </trkpt>
      <trkpt lat="62.631779428423" lon="17.97346994067">
        <ele>84.4</ele>
        <time>2017-12-18T18:21:46Z</time>
      </trkpt>
      <trkpt lat="62.631759228044" lon="17.973438760002">
        <ele>84.4</ele>
        <time>2017-12-18T18:21:47Z</time>
      </trkpt>
      <trkpt lat="62.631739027665" lon="17.973405735316">
        <ele>84.4</ele>
        <time>2017-12-18T18:21:48Z</time>
      </trkpt>
      <trkpt lat="62.631720838942" lon="17.973372040078">
        <ele>84.4</ele>
        <time>2017-12-18T18:21:49Z</time>
      </trkpt>
      <trkpt lat="62.631700219468" lon="17.973340943229">
        <ele>84.4</ele>
        <time>2017-12-18T18:21:50Z</time>
      </trkpt>
      <trkpt lat="62.631679013261" lon="17.973307415629">
        <ele>84.2</ele>
        <time>2017-12-18T18:21:51Z</time>
      </trkpt>
      <trkpt lat="62.63165730414" lon="17.973269864717">
        <ele>84.4</ele>
        <time>2017-12-18T18:21:52Z</time>
      </trkpt>
      <trkpt lat="62.631633415725" lon="17.97323440928">
        <ele>84.2</ele>
        <time>2017-12-18T18:21:53Z</time>
      </trkpt>
      <trkpt lat="62.631610533138" lon="17.973198953843">
        <ele>84.2</ele>
        <time>2017-12-18T18:21:54Z</time>
      </trkpt>
      <trkpt lat="62.631595026623" lon="17.973163749863">
        <ele>84.2</ele>
        <time>2017-12-18T18:21:55Z</time>
      </trkpt>
      <trkpt lat="62.631575580615" lon="17.97311957725">
        <ele>84.2</ele>
        <time>2017-12-18T18:21:56Z</time>
      </trkpt>
      <trkpt lat="62.631557056616" lon="17.97308018232">
        <ele>84</ele>
        <time>2017-12-18T18:21:57Z</time>
      </trkpt>
      <trkpt lat="62.631537023875" lon="17.973040619752">
        <ele>84</ele>
        <time>2017-12-18T18:21:58Z</time>
      </trkpt>
      <trkpt lat="62.631517913143" lon="17.973000302813">
        <ele>83.8</ele>
        <time>2017-12-18T18:21:59Z</time>
      </trkpt>
      <trkpt lat="62.631499556782" lon="17.972964093005">
        <ele>83.8</ele>
        <time>2017-12-18T18:22:00Z</time>
      </trkpt>
      <trkpt lat="62.631478685851" lon="17.972921429134">
        <ele>83.8</ele>
        <time>2017-12-18T18:22:01Z</time>
      </trkpt>
      <trkpt lat="62.631459323662" lon="17.972873652304">
        <ele>83.8</ele>
        <time>2017-12-18T18:22:02Z</time>
      </trkpt>
      <trkpt lat="62.631443398052" lon="17.972829814967">
        <ele>83.6</ele>
        <time>2017-12-18T18:22:03Z</time>
      </trkpt>
      <trkpt lat="62.631424957872" lon="17.972787570191">
        <ele>83.4</ele>
        <time>2017-12-18T18:22:04Z</time>
      </trkpt>
      <trkpt lat="62.63140668533" lon="17.972746750338">
        <ele>83.2</ele>
        <time>2017-12-18T18:22:05Z</time>
      </trkpt>
      <trkpt lat="62.631386904046" lon="17.972699560241">
        <ele>82.8</ele>
        <time>2017-12-18T18:22:06Z</time>
      </trkpt>
      <trkpt lat="62.631371732807" lon="17.972659075664">
        <ele>82.8</ele>
        <time>2017-12-18T18:22:07Z</time>
      </trkpt>
      <trkpt lat="62.631353544084" lon="17.972606521151">
        <ele>82.6</ele>
        <time>2017-12-18T18:22:08Z</time>
      </trkpt>
      <trkpt lat="62.631336025913" lon="17.972562851452">
        <ele>82.4</ele>
        <time>2017-12-18T18:22:09Z</time>
      </trkpt>
      <trkpt lat="62.631318004828" lon="17.972524294712">
        <ele>82.2</ele>
        <time>2017-12-18T18:22:10Z</time>
      </trkpt>
      <trkpt lat="62.63130191158" lon="17.972476098787">
        <ele>82</ele>
        <time>2017-12-18T18:22:11Z</time>
      </trkpt>
      <trkpt lat="62.631286069789" lon="17.972424131007">
        <ele>81.8</ele>
        <time>2017-12-18T18:22:12Z</time>
      </trkpt>
      <trkpt lat="62.631268216342" lon="17.972377695281">
        <ele>81.8</ele>
        <time>2017-12-18T18:22:13Z</time>
      </trkpt>
      <trkpt lat="62.631249859981" lon="17.97232664951">
        <ele>81.6</ele>
        <time>2017-12-18T18:22:14Z</time>
      </trkpt>
      <trkpt lat="62.63123569457" lon="17.97228306363">
        <ele>81.6</ele>
        <time>2017-12-18T18:22:15Z</time>
      </trkpt>
      <trkpt lat="62.631220858607" lon="17.97223444861">
        <ele>81.4</ele>
        <time>2017-12-18T18:22:16Z</time>
      </trkpt>
      <trkpt lat="62.631207028472" lon="17.972183654296">
        <ele>81.2</ele>
        <time>2017-12-18T18:22:17Z</time>
      </trkpt>
      <trkpt lat="62.631193365975" lon="17.972130932145">
        <ele>81.2</ele>
        <time>2017-12-18T18:22:18Z</time>
      </trkpt>
      <trkpt lat="62.631178781469" lon="17.972082400944">
        <ele>81</ele>
        <time>2017-12-18T18:22:19Z</time>
      </trkpt>
      <trkpt lat="62.63116528661" lon="17.972036216675">
        <ele>81</ele>
        <time>2017-12-18T18:22:20Z</time>
      </trkpt>
      <trkpt lat="62.631149947733" lon="17.971990032406">
        <ele>80.8</ele>
        <time>2017-12-18T18:22:21Z</time>
      </trkpt>
      <trkpt lat="62.631136536693" lon="17.97194108211">
        <ele>80.8</ele>
        <time>2017-12-18T18:22:22Z</time>
      </trkpt>
      <trkpt lat="62.631126310775" lon="17.971894311108">
        <ele>80.6</ele>
        <time>2017-12-18T18:22:23Z</time>
      </trkpt>
      <trkpt lat="62.631113905563" lon="17.971843432975">
        <ele>80.4</ele>
        <time>2017-12-18T18:22:24Z</time>
      </trkpt>
      <trkpt lat="62.631099572514" lon="17.971798003077">
        <ele>80.4</ele>
        <time>2017-12-18T18:22:25Z</time>
      </trkpt>
      <trkpt lat="62.631087586397" lon="17.97174159289">
        <ele>80.2</ele>
        <time>2017-12-18T18:22:26Z</time>
      </trkpt>
      <trkpt lat="62.631077528117" lon="17.971690630938">
        <ele>80</ele>
        <time>2017-12-18T18:22:27Z</time>
      </trkpt>
      <trkpt lat="62.631065290543" lon="17.97163598095">
        <ele>79.8</ele>
        <time>2017-12-18T18:22:28Z</time>
      </trkpt>
      <trkpt lat="62.631054729349" lon="17.971582588247">
        <ele>79.8</ele>
        <time>2017-12-18T18:22:29Z</time>
      </trkpt>
      <trkpt lat="62.631045257802" lon="17.971540259652">
        <ele>79.8</ele>
        <time>2017-12-18T18:22:30Z</time>
      </trkpt>
      <trkpt lat="62.631032182038" lon="17.971471947167">
        <ele>79.6</ele>
        <time>2017-12-18T18:22:31Z</time>
      </trkpt>
      <trkpt lat="62.631022542853" lon="17.971412770953">
        <ele>79.6</ele>
        <time>2017-12-18T18:22:32Z</time>
      </trkpt>
      <trkpt lat="62.631014328591" lon="17.971362060458">
        <ele>79.4</ele>
        <time>2017-12-18T18:22:33Z</time>
      </trkpt>
      <trkpt lat="62.631003851216" lon="17.971301040226">
        <ele>79.4</ele>
        <time>2017-12-18T18:22:34Z</time>
      </trkpt>
      <trkpt lat="62.63099597223" lon="17.971248401894">
        <ele>79.4</ele>
        <time>2017-12-18T18:22:35Z</time>
      </trkpt>
      <trkpt lat="62.630986500683" lon="17.971187130205">
        <ele>79.2</ele>
        <time>2017-12-18T18:22:36Z</time>
      </trkpt>
      <trkpt lat="62.63097837024" lon="17.971128624543">
        <ele>79</ele>
        <time>2017-12-18T18:22:37Z</time>
      </trkpt>
      <trkpt lat="62.630971580901" lon="17.971075567116">
        <ele>78.8</ele>
        <time>2017-12-18T18:22:38Z</time>
      </trkpt>
      <trkpt lat="62.630963534277" lon="17.971021420042">
        <ele>78.8</ele>
        <time>2017-12-18T18:22:39Z</time>
      </trkpt>
      <trkpt lat="62.630956828757" lon="17.970966015683">
        <ele>78.6</ele>
        <time>2017-12-18T18:22:40Z</time>
      </trkpt>
      <trkpt lat="62.630950458513" lon="17.970914802274">
        <ele>78.6</ele>
        <time>2017-12-18T18:22:41Z</time>
      </trkpt>
      <trkpt lat="62.630941406061" lon="17.970852943852">
        <ele>78.4</ele>
        <time>2017-12-18T18:22:42Z</time>
      </trkpt>
      <trkpt lat="62.630934029989" lon="17.970795695475">
        <ele>78.4</ele>
        <time>2017-12-18T18:22:43Z</time>
      </trkpt>
      <trkpt lat="62.630926821555" lon="17.97074163222">
        <ele>78.4</ele>
        <time>2017-12-18T18:22:44Z</time>
      </trkpt>
      <trkpt lat="62.630915757447" lon="17.970685808766">
        <ele>78.4</ele>
        <time>2017-12-18T18:22:45Z</time>
      </trkpt>
      <trkpt lat="62.630904944796" lon="17.970625207629">
        <ele>78.2</ele>
        <time>2017-12-18T18:22:46Z</time>
      </trkpt>
      <trkpt lat="62.630897987819" lon="17.970573407487">
        <ele>78</ele>
        <time>2017-12-18T18:22:47Z</time>
      </trkpt>
      <trkpt lat="62.630890695566" lon="17.970511884341">
        <ele>78</ele>
        <time>2017-12-18T18:22:48Z</time>
      </trkpt>
      <trkpt lat="62.630884576779" lon="17.970458994552">
        <ele>77.8</ele>
        <time>2017-12-18T18:22:49Z</time>
      </trkpt>
      <trkpt lat="62.630876278698" lon="17.970406775315">
        <ele>77.8</ele>
        <time>2017-12-18T18:22:50Z</time>
      </trkpt>
      <trkpt lat="62.630868483531" lon="17.970345922721">
        <ele>77.8</ele>
        <time>2017-12-18T18:22:51Z</time>
      </trkpt>
      <trkpt lat="62.630858592889" lon="17.970299235538">
        <ele>77.6</ele>
        <time>2017-12-18T18:22:52Z</time>
      </trkpt>
      <trkpt lat="62.630841493813" lon="17.97027224582">
        <ele>77.6</ele>
        <time>2017-12-18T18:22:53Z</time>
      </trkpt>
      <trkpt lat="62.630819617054" lon="17.970254140916">
        <ele>77.4</ele>
        <time>2017-12-18T18:22:54Z</time>
      </trkpt>
      <trkpt lat="62.630801260693" lon="17.970251039613">
        <ele>77.4</ele>
        <time>2017-12-18T18:22:55Z</time>
      </trkpt>
      <trkpt lat="62.630781311771" lon="17.970253889459">
        <ele>77.2</ele>
        <time>2017-12-18T18:22:56Z</time>
      </trkpt>
      <trkpt lat="62.630757758632" lon="17.970259421513">
        <ele>77.2</ele>
        <time>2017-12-18T18:22:57Z</time>
      </trkpt>
      <trkpt lat="62.630737642072" lon="17.970268138689">
        <ele>77.2</ele>
        <time>2017-12-18T18:22:58Z</time>
      </trkpt>
      <trkpt lat="62.630719285711" lon="17.97027476039">
        <ele>77.2</ele>
        <time>2017-12-18T18:22:59Z</time>
      </trkpt>
      <trkpt lat="62.6306967384" lon="17.97027811315">
        <ele>77.4</ele>
        <time>2017-12-18T18:23:00Z</time>
      </trkpt>
      <trkpt lat="62.630672766166" lon="17.970284148118">
        <ele>77.4</ele>
        <time>2017-12-18T18:23:01Z</time>
      </trkpt>
      <trkpt lat="62.63065147614" lon="17.970293452027">
        <ele>77.6</ele>
        <time>2017-12-18T18:23:02Z</time>
      </trkpt>
      <trkpt lat="62.630628761191" lon="17.970305102868">
        <ele>77.6</ele>
        <time>2017-12-18T18:23:03Z</time>
      </trkpt>
      <trkpt lat="62.630611494477" lon="17.970316502252">
        <ele>77.6</ele>
        <time>2017-12-18T18:23:04Z</time>
      </trkpt>
      <trkpt lat="62.630592970478" lon="17.970329075102">
        <ele>77.8</ele>
        <time>2017-12-18T18:23:05Z</time>
      </trkpt>
      <trkpt lat="62.630565813122" lon="17.970333936604">
        <ele>77.8</ele>
        <time>2017-12-18T18:23:06Z</time>
      </trkpt>
      <trkpt lat="62.630544271639" lon="17.970328656007">
        <ele>77.6</ele>
        <time>2017-12-18T18:23:07Z</time>
      </trkpt>
      <trkpt lat="62.630523568346" lon="17.970301833927">
        <ele>77.8</ele>
        <time>2017-12-18T18:23:08Z</time>
      </trkpt>
      <trkpt lat="62.630507642736" lon="17.970264199196">
        <ele>77.8</ele>
        <time>2017-12-18T18:23:09Z</time>
      </trkpt>
      <trkpt lat="62.630495405162" lon="17.970219691307">
        <ele>77.6</ele>
        <time>2017-12-18T18:23:10Z</time>
      </trkpt>
      <trkpt lat="62.630489286375" lon="17.970183062404">
        <ele>77.8</ele>
        <time>2017-12-18T18:23:11Z</time>
      </trkpt>
      <trkpt lat="62.630483586683" lon="17.970145846768">
        <ele>78</ele>
        <time>2017-12-18T18:23:12Z</time>
      </trkpt>
      <trkpt lat="62.630477551715" lon="17.970108128218">
        <ele>78</ele>
        <time>2017-12-18T18:23:13Z</time>
      </trkpt>
      <trkpt lat="62.630473863679" lon="17.970083820708">
        <ele>78</ele>
        <time>2017-12-18T18:23:14Z</time>
      </trkpt>
      <trkpt lat="62.630471935842" lon="17.97005096366">
        <ele>77.8</ele>
        <time>2017-12-18T18:23:15Z</time>
      </trkpt>
      <trkpt lat="62.630471097652" lon="17.970028667806">
        <ele>77.6</ele>
        <time>2017-12-18T18:23:16Z</time>
      </trkpt>
      <trkpt lat="62.63047294167" lon="17.970013664205">
        <ele>77.6</ele>
        <time>2017-12-18T18:23:17Z</time>
      </trkpt>
      <trkpt lat="62.630472606394" lon="17.969984998107">
        <ele>77.4</ele>
        <time>2017-12-18T18:23:18Z</time>
      </trkpt>
      <trkpt lat="62.630471013833" lon="17.969958427484">
        <ele>77.4</ele>
        <time>2017-12-18T18:23:19Z</time>
      </trkpt>
      <trkpt lat="62.6304704271" lon="17.969935544897">
        <ele>77.4</ele>
        <time>2017-12-18T18:23:20Z</time>
      </trkpt>
      <trkpt lat="62.63046791253" lon="17.969916098889">
        <ele>77.4</ele>
        <time>2017-12-18T18:23:21Z</time>
      </trkpt>
      <trkpt lat="62.630468080168" lon="17.96990176584">
        <ele>77.4</ele>
        <time>2017-12-18T18:23:22Z</time>
      </trkpt>
      <trkpt lat="62.630467493435" lon="17.969889695904">
        <ele>77.6</ele>
        <time>2017-12-18T18:23:23Z</time>
      </trkpt>
      <trkpt lat="62.630465314141" lon="17.969878799434">
        <ele>77.4</ele>
        <time>2017-12-18T18:23:24Z</time>
      </trkpt>
      <trkpt lat="62.630462799571" lon="17.969865556032">
        <ele>77.4</ele>
        <time>2017-12-18T18:23:25Z</time>
      </trkpt>
      <trkpt lat="62.630463470123" lon="17.969864969299">
        <ele>77.4</ele>
        <time>2017-12-18T18:23:26Z</time>
      </trkpt>
      <trkpt lat="62.630464140675" lon="17.969873770294">
        <ele>77.4</ele>
        <time>2017-12-18T18:23:27Z</time>
      </trkpt>
      <trkpt lat="62.630522478699" lon="17.970186163707">
        <ele>77.2</ele>
        <time>2017-12-18T18:24:17Z</time>
      </trkpt>
      <trkpt lat="62.630536225015" lon="17.970221702963">
        <ele>77.2</ele>
        <time>2017-12-18T18:24:18Z</time>
      </trkpt>
      <trkpt lat="62.630550809521" lon="17.970244250274">
        <ele>77</ele>
        <time>2017-12-18T18:24:19Z</time>
      </trkpt>
      <trkpt lat="62.630566567493" lon="17.970258415685">
        <ele>77.2</ele>
        <time>2017-12-18T18:24:20Z</time>
      </trkpt>
      <trkpt lat="62.630584504759" lon="17.970264283015">
        <ele>77.2</ele>
        <time>2017-12-18T18:24:21Z</time>
      </trkpt>
      <trkpt lat="62.630603950767" lon="17.970260008246">
        <ele>77.2</ele>
        <time>2017-12-18T18:24:22Z</time>
      </trkpt>
      <trkpt lat="62.630619960196" lon="17.970249363233">
        <ele>77.4</ele>
        <time>2017-12-18T18:24:23Z</time>
      </trkpt>
      <trkpt lat="62.630641753136" lon="17.970237963849">
        <ele>77.6</ele>
        <time>2017-12-18T18:24:24Z</time>
      </trkpt>
      <trkpt lat="62.630662037334" lon="17.970229917225">
        <ele>77.6</ele>
        <time>2017-12-18T18:24:25Z</time>
      </trkpt>
      <trkpt lat="62.63068165098" lon="17.970218853117">
        <ele>77.4</ele>
        <time>2017-12-18T18:24:26Z</time>
      </trkpt>
      <trkpt lat="62.630701935178" lon="17.970208208104">
        <ele>77.6</ele>
        <time>2017-12-18T18:24:27Z</time>
      </trkpt>
      <trkpt lat="62.630721716462" lon="17.970195802892">
        <ele>77.4</ele>
        <time>2017-12-18T18:24:28Z</time>
      </trkpt>
      <trkpt lat="62.63073948609" lon="17.970188845915">
        <ele>77.2</ele>
        <time>2017-12-18T18:24:29Z</time>
      </trkpt>
      <trkpt lat="62.630754657329" lon="17.970183732956">
        <ele>77</ele>
        <time>2017-12-18T18:24:30Z</time>
      </trkpt>
      <trkpt lat="62.630768571283" lon="17.970176524522">
        <ele>77</ele>
        <time>2017-12-18T18:24:31Z</time>
      </trkpt>
      <trkpt lat="62.630782485237" lon="17.970174512866">
        <ele>76.8</ele>
        <time>2017-12-18T18:24:32Z</time>
      </trkpt>
      <trkpt lat="62.630794136078" lon="17.97016998664">
        <ele>76.6</ele>
        <time>2017-12-18T18:24:33Z</time>
      </trkpt>
      <trkpt lat="62.630807798575" lon="17.970165879509">
        <ele>76.6</ele>
        <time>2017-12-18T18:24:34Z</time>
      </trkpt>
      <trkpt lat="62.630818778864" lon="17.970164538405">
        <ele>76.6</ele>
        <time>2017-12-18T18:24:35Z</time>
      </trkpt>
      <trkpt lat="62.630830513524" lon="17.970158335799">
        <ele>76.6</ele>
        <time>2017-12-18T18:24:36Z</time>
      </trkpt>
      <trkpt lat="62.630841829089" lon="17.970154480125">
        <ele>76.6</ele>
        <time>2017-12-18T18:24:37Z</time>
      </trkpt>
      <trkpt lat="62.630853647568" lon="17.970149199528">
        <ele>76.6</ele>
        <time>2017-12-18T18:24:38Z</time>
      </trkpt>
      <trkpt lat="62.630861442735" lon="17.970143080741">
        <ele>76.6</ele>
        <time>2017-12-18T18:24:39Z</time>
      </trkpt>
      <trkpt lat="62.630862364744" lon="17.970141907275">
        <ele>76.6</ele>
        <time>2017-12-18T18:24:40Z</time>
      </trkpt>
      <trkpt lat="62.630868064436" lon="17.970141320542">
        <ele>76.4</ele>
        <time>2017-12-18T18:24:41Z</time>
      </trkpt>
      <trkpt lat="62.630865298409" lon="17.970142074913">
        <ele>76.2</ele>
        <time>2017-12-18T18:24:42Z</time>
      </trkpt>
      <trkpt lat="62.631132848657" lon="17.970005282305">
        <ele>75.4</ele>
        <time>2017-12-18T18:27:35Z</time>
      </trkpt>
      <trkpt lat="62.63117199213" lon="17.969985668659">
        <ele>75.4</ele>
        <time>2017-12-18T18:27:36Z</time>
      </trkpt>
      <trkpt lat="62.631201915513" lon="17.969964043357">
        <ele>75.4</ele>
        <time>2017-12-18T18:27:37Z</time>
      </trkpt>
      <trkpt lat="62.631235526932" lon="17.969945267901">
        <ele>75.4</ele>
        <time>2017-12-18T18:27:38Z</time>
      </trkpt>
      <trkpt lat="62.631267461971" lon="17.969927162997">
        <ele>75.4</ele>
        <time>2017-12-18T18:27:39Z</time>
      </trkpt>
      <trkpt lat="62.631299229372" lon="17.96991182412">
        <ele>75.4</ele>
        <time>2017-12-18T18:27:40Z</time>
      </trkpt>
      <trkpt lat="62.631330326221" lon="17.969894976501">
        <ele>75.4</ele>
        <time>2017-12-18T18:27:41Z</time>
      </trkpt>
      <trkpt lat="62.631367709495" lon="17.969881146366">
        <ele>75.2</ele>
        <time>2017-12-18T18:27:42Z</time>
      </trkpt>
      <trkpt lat="62.631399057801" lon="17.969865053118">
        <ele>75</ele>
        <time>2017-12-18T18:27:43Z</time>
      </trkpt>
      <trkpt lat="62.631431747211" lon="17.969849378965">
        <ele>74.8</ele>
        <time>2017-12-18T18:27:44Z</time>
      </trkpt>
      <trkpt lat="62.631460916223" lon="17.969834962097">
        <ele>74.8</ele>
        <time>2017-12-18T18:27:45Z</time>
      </trkpt>
      <trkpt lat="62.631492683624" lon="17.969816354279">
        <ele>74.6</ele>
        <time>2017-12-18T18:27:46Z</time>
      </trkpt>
      <trkpt lat="62.631522690826" lon="17.969805038714">
        <ele>74.4</ele>
        <time>2017-12-18T18:27:47Z</time>
      </trkpt>
      <trkpt lat="62.631553620037" lon="17.969790454208">
        <ele>74.4</ele>
        <time>2017-12-18T18:27:48Z</time>
      </trkpt>
      <trkpt lat="62.631585806533" lon="17.969773774227">
        <ele>74.6</ele>
        <time>2017-12-18T18:27:49Z</time>
      </trkpt>
      <trkpt lat="62.631613466803" lon="17.969752735658">
        <ele>74.6</ele>
        <time>2017-12-18T18:27:50Z</time>
      </trkpt>
      <trkpt lat="62.631646659127" lon="17.969720884438">
        <ele>74.6</ele>
        <time>2017-12-18T18:27:51Z</time>
      </trkpt>
      <trkpt lat="62.63167658251" lon="17.969688362666">
        <ele>74.4</ele>
        <time>2017-12-18T18:27:52Z</time>
      </trkpt>
      <trkpt lat="62.631704661875" lon="17.969653242505">
        <ele>74.4</ele>
        <time>2017-12-18T18:27:53Z</time>
      </trkpt>
      <trkpt lat="62.631738105656" lon="17.969617870887">
        <ele>74.4</ele>
        <time>2017-12-18T18:27:54Z</time>
      </trkpt>
      <trkpt lat="62.631767861401" lon="17.969593898653">
        <ele>74</ele>
        <time>2017-12-18T18:27:55Z</time>
      </trkpt>
      <trkpt lat="62.631801305182" lon="17.969583672735">
        <ele>73.8</ele>
        <time>2017-12-18T18:27:56Z</time>
      </trkpt>
      <trkpt lat="62.631833994592" lon="17.969584259468">
        <ele>73.6</ele>
        <time>2017-12-18T18:27:57Z</time>
      </trkpt>
      <trkpt lat="62.631864756165" lon="17.969589623884">
        <ele>73.4</ele>
        <time>2017-12-18T18:27:58Z</time>
      </trkpt>
      <trkpt lat="62.631893170806" lon="17.969587193133">
        <ele>73.4</ele>
        <time>2017-12-18T18:27:59Z</time>
      </trkpt>
      <trkpt lat="62.631925692578" lon="17.969586019667">
        <ele>73.4</ele>
        <time>2017-12-18T18:28:00Z</time>
      </trkpt>
      <trkpt lat="62.631958801083" lon="17.969579397966">
        <ele>73.6</ele>
        <time>2017-12-18T18:28:01Z</time>
      </trkpt>
      <trkpt lat="62.63198838919" lon="17.969579733242">
        <ele>73.8</ele>
        <time>2017-12-18T18:28:02Z</time>
      </trkpt>
      <trkpt lat="62.632019234582" lon="17.969582247812">
        <ele>74</ele>
        <time>2017-12-18T18:28:03Z</time>
      </trkpt>
      <trkpt lat="62.632046727214" lon="17.96958409183">
        <ele>74</ele>
        <time>2017-12-18T18:28:04Z</time>
      </trkpt>
      <trkpt lat="62.632074219846" lon="17.969582331631">
        <ele>74.2</ele>
        <time>2017-12-18T18:28:05Z</time>
      </trkpt>
      <trkpt lat="62.632106825437" lon="17.969571435161">
        <ele>74.2</ele>
        <time>2017-12-18T18:28:06Z</time>
      </trkpt>
      <trkpt lat="62.632139933942" lon="17.969560203415">
        <ele>74.2</ele>
        <time>2017-12-18T18:28:07Z</time>
      </trkpt>
      <trkpt lat="62.6321719528" lon="17.969549977497">
        <ele>74.2</ele>
        <time>2017-12-18T18:28:08Z</time>
      </trkpt>
      <trkpt lat="62.632202043821" lon="17.969541427959">
        <ele>74.4</ele>
        <time>2017-12-18T18:28:09Z</time>
      </trkpt>
      <trkpt lat="62.632233056851" lon="17.969536398819">
        <ele>74.4</ele>
        <time>2017-12-18T18:28:10Z</time>
      </trkpt>
      <trkpt lat="62.632261722949" lon="17.969530028575">
        <ele>74.4</ele>
        <time>2017-12-18T18:28:11Z</time>
      </trkpt>
      <trkpt lat="62.632296759291" lon="17.969522317227">
        <ele>74.4</ele>
        <time>2017-12-18T18:28:12Z</time>
      </trkpt>
      <trkpt lat="62.632326682674" lon="17.969521646675">
        <ele>74.4</ele>
        <time>2017-12-18T18:28:13Z</time>
      </trkpt>
      <trkpt lat="62.632358198618" lon="17.969523071598">
        <ele>74.4</ele>
        <time>2017-12-18T18:28:14Z</time>
      </trkpt>
      <trkpt lat="62.632385439793" lon="17.969520976123">
        <ele>74.2</ele>
        <time>2017-12-18T18:28:15Z</time>
      </trkpt>
      <trkpt lat="62.632417374832" lon="17.969522233408">
        <ele>74.4</ele>
        <time>2017-12-18T18:28:16Z</time>
      </trkpt>
      <trkpt lat="62.632446627663" lon="17.969526927272">
        <ele>74.2</ele>
        <time>2017-12-18T18:28:17Z</time>
      </trkpt>
      <trkpt lat="62.632478897978" lon="17.969530363851">
        <ele>74.2</ele>
        <time>2017-12-18T18:28:18Z</time>
      </trkpt>
      <trkpt lat="62.632511084474" lon="17.96953966776">
        <ele>74.2</ele>
        <time>2017-12-18T18:28:19Z</time>
      </trkpt>
      <trkpt lat="62.632540169667" lon="17.969545618909">
        <ele>74.2</ele>
        <time>2017-12-18T18:28:20Z</time>
      </trkpt>
      <trkpt lat="62.632574116362" lon="17.969550312773">
        <ele>74.4</ele>
        <time>2017-12-18T18:28:21Z</time>
      </trkpt>
      <trkpt lat="62.632605632306" lon="17.969552911162">
        <ele>74.4</ele>
        <time>2017-12-18T18:28:22Z</time>
      </trkpt>
      <trkpt lat="62.63263547187" lon="17.969557437388">
        <ele>74.4</ele>
        <time>2017-12-18T18:28:23Z</time>
      </trkpt>
      <trkpt lat="62.632667490728" lon="17.969566322202">
        <ele>74.4</ele>
        <time>2017-12-18T18:28:24Z</time>
      </trkpt>
      <trkpt lat="62.632693809894" lon="17.969574117369">
        <ele>74.4</ele>
        <time>2017-12-18T18:28:25Z</time>
      </trkpt>
      <trkpt lat="62.632723984734" lon="17.96958325364">
        <ele>74.4</ele>
        <time>2017-12-18T18:28:26Z</time>
      </trkpt>
      <trkpt lat="62.632755081583" lon="17.96959079735">
        <ele>74.2</ele>
        <time>2017-12-18T18:28:27Z</time>
      </trkpt>
      <trkpt lat="62.632784166776" lon="17.969595994128">
        <ele>74.2</ele>
        <time>2017-12-18T18:28:28Z</time>
      </trkpt>
      <trkpt lat="62.632812413779" lon="17.96960085563">
        <ele>74.2</ele>
        <time>2017-12-18T18:28:29Z</time>
      </trkpt>
      <trkpt lat="62.632842672438" lon="17.969605633313">
        <ele>74.4</ele>
        <time>2017-12-18T18:28:30Z</time>
      </trkpt>
      <trkpt lat="62.632876200038" lon="17.969615523955">
        <ele>74.4</ele>
        <time>2017-12-18T18:28:31Z</time>
      </trkpt>
      <trkpt lat="62.632904866136" lon="17.969621307466">
        <ele>74.6</ele>
        <time>2017-12-18T18:28:32Z</time>
      </trkpt>
      <trkpt lat="62.632937807003" lon="17.969625330778">
        <ele>74.6</ele>
        <time>2017-12-18T18:28:33Z</time>
      </trkpt>
      <trkpt lat="62.632967981843" lon="17.969630695194">
        <ele>74.6</ele>
        <time>2017-12-18T18:28:34Z</time>
      </trkpt>
      <trkpt lat="62.632995390656" lon="17.969637233076">
        <ele>74.8</ele>
        <time>2017-12-18T18:28:35Z</time>
      </trkpt>
      <trkpt lat="62.633030510817" lon="17.969647375175">
        <ele>75</ele>
        <time>2017-12-18T18:28:36Z</time>
      </trkpt>
      <trkpt lat="62.633061523847" lon="17.969657265817">
        <ele>75.2</ele>
        <time>2017-12-18T18:28:37Z</time>
      </trkpt>
      <trkpt lat="62.633093710343" lon="17.96966791083">
        <ele>75.2</ele>
        <time>2017-12-18T18:28:38Z</time>
      </trkpt>
      <trkpt lat="62.633123382269" lon="17.969679477852">
        <ele>75.2</ele>
        <time>2017-12-18T18:28:39Z</time>
      </trkpt>
      <trkpt lat="62.633153808566" lon="17.969686937743">
        <ele>75.4</ele>
        <time>2017-12-18T18:28:40Z</time>
      </trkpt>
      <trkpt lat="62.633182726121" lon="17.969695990195">
        <ele>75.4</ele>
        <time>2017-12-18T18:28:41Z</time>
      </trkpt>
      <trkpt lat="62.633216588997" lon="17.969706719027">
        <ele>75.4</ele>
        <time>2017-12-18T18:28:42Z</time>
      </trkpt>
      <trkpt lat="62.633246344742" lon="17.969726165035">
        <ele>75.4</ele>
        <time>2017-12-18T18:28:43Z</time>
      </trkpt>
      <trkpt lat="62.633272747727" lon="17.969753657667">
        <ele>75.4</ele>
        <time>2017-12-18T18:28:44Z</time>
      </trkpt>
      <trkpt lat="62.633295295038" lon="17.969792717321">
        <ele>75.4</ele>
        <time>2017-12-18T18:28:45Z</time>
      </trkpt>
      <trkpt lat="62.633318261444" lon="17.969844182187">
        <ele>75.6</ele>
        <time>2017-12-18T18:28:46Z</time>
      </trkpt>
      <trkpt lat="62.633332678312" lon="17.969895647053">
        <ele>75.4</ele>
        <time>2017-12-18T18:28:47Z</time>
      </trkpt>
      <trkpt lat="62.633345167343" lon="17.969955745276">
        <ele>75.6</ele>
        <time>2017-12-18T18:28:48Z</time>
      </trkpt>
      <trkpt lat="62.633350364121" lon="17.970013999481">
        <ele>75.6</ele>
        <time>2017-12-18T18:28:49Z</time>
      </trkpt>
      <trkpt lat="62.633354135976" lon="17.970073678609">
        <ele>75.6</ele>
        <time>2017-12-18T18:28:50Z</time>
      </trkpt>
      <trkpt lat="62.633362266419" lon="17.970137213411">
        <ele>75.8</ele>
        <time>2017-12-18T18:28:51Z</time>
      </trkpt>
      <trkpt lat="62.633367463197" lon="17.970200748213">
        <ele>76</ele>
        <time>2017-12-18T18:28:52Z</time>
      </trkpt>
      <trkpt lat="62.633371067414" lon="17.97025967297">
        <ele>76.2</ele>
        <time>2017-12-18T18:28:53Z</time>
      </trkpt>
      <trkpt lat="62.633373414346" lon="17.970327231084">
        <ele>76</ele>
        <time>2017-12-18T18:28:54Z</time>
      </trkpt>
      <trkpt lat="62.633376096554" lon="17.970388586592">
        <ele>76</ele>
        <time>2017-12-18T18:28:55Z</time>
      </trkpt>
      <trkpt lat="62.633380455142" lon="17.970452037575">
        <ele>76.4</ele>
        <time>2017-12-18T18:28:56Z</time>
      </trkpt>
      <trkpt lat="62.633383807902" lon="17.970519930965">
        <ele>76.4</ele>
        <time>2017-12-18T18:28:57Z</time>
      </trkpt>
      <trkpt lat="62.633387831214" lon="17.97057986155">
        <ele>76.6</ele>
        <time>2017-12-18T18:28:58Z</time>
      </trkpt>
      <trkpt lat="62.633392441259" lon="17.970640630325">
        <ele>76.6</ele>
        <time>2017-12-18T18:28:59Z</time>
      </trkpt>
      <trkpt lat="62.633396380752" lon="17.970703243118">
        <ele>77</ele>
        <time>2017-12-18T18:29:00Z</time>
      </trkpt>
      <trkpt lat="62.633399314417" lon="17.97076593973">
        <ele>77.2</ele>
        <time>2017-12-18T18:29:01Z</time>
      </trkpt>
      <trkpt lat="62.633401158435" lon="17.970826708505">
        <ele>77.2</ele>
        <time>2017-12-18T18:29:02Z</time>
      </trkpt>
      <trkpt lat="62.633404343557" lon="17.970891835868">
        <ele>77.4</ele>
        <time>2017-12-18T18:29:03Z</time>
      </trkpt>
      <trkpt lat="62.633407361041" lon="17.970957717602">
        <ele>77.4</ele>
        <time>2017-12-18T18:29:04Z</time>
      </trkpt>
      <trkpt lat="62.633409288878" lon="17.971012283771">
        <ele>77.6</ele>
        <time>2017-12-18T18:29:05Z</time>
      </trkpt>
      <trkpt lat="62.63340995943" lon="17.971084787206">
        <ele>77.6</ele>
        <time>2017-12-18T18:29:06Z</time>
      </trkpt>
      <trkpt lat="62.633410210887" lon="17.971144717791">
        <ele>77.8</ele>
        <time>2017-12-18T18:29:07Z</time>
      </trkpt>
      <trkpt lat="62.633408702145" lon="17.971202720539">
        <ele>78</ele>
        <time>2017-12-18T18:29:08Z</time>
      </trkpt>
      <trkpt lat="62.633408031593" lon="17.97126717735">
        <ele>78</ele>
        <time>2017-12-18T18:29:09Z</time>
      </trkpt>
      <trkpt lat="62.633408115412" lon="17.971327862306">
        <ele>78.2</ele>
        <time>2017-12-18T18:29:10Z</time>
      </trkpt>
      <trkpt lat="62.633404427376" lon="17.971389133995">
        <ele>78.2</ele>
        <time>2017-12-18T18:29:11Z</time>
      </trkpt>
      <trkpt lat="62.633400823159" lon="17.971462978534">
        <ele>78.2</ele>
        <time>2017-12-18T18:29:12Z</time>
      </trkpt>
      <trkpt lat="62.633397051304" lon="17.971528441173">
        <ele>78.2</ele>
        <time>2017-12-18T18:29:13Z</time>
      </trkpt>
      <trkpt lat="62.633393027992" lon="17.971589377586">
        <ele>78.2</ele>
        <time>2017-12-18T18:29:14Z</time>
      </trkpt>
      <trkpt lat="62.633390261965" lon="17.97164939199">
        <ele>78.4</ele>
        <time>2017-12-18T18:29:15Z</time>
      </trkpt>
      <trkpt lat="62.633386993024" lon="17.971716698647">
        <ele>78.4</ele>
        <time>2017-12-18T18:29:16Z</time>
      </trkpt>
      <trkpt lat="62.633383891721" lon="17.971777970336">
        <ele>78.6</ele>
        <time>2017-12-18T18:29:17Z</time>
      </trkpt>
      <trkpt lat="62.633380036047" lon="17.9718413375">
        <ele>78.6</ele>
        <time>2017-12-18T18:29:18Z</time>
      </trkpt>
      <trkpt lat="62.633369893948" lon="17.97190671632">
        <ele>79</ele>
        <time>2017-12-18T18:29:19Z</time>
      </trkpt>
      <trkpt lat="62.633362685514" lon="17.971969412932">
        <ele>79</ele>
        <time>2017-12-18T18:29:20Z</time>
      </trkpt>
      <trkpt lat="62.63335631527" lon="17.972039234159">
        <ele>79</ele>
        <time>2017-12-18T18:29:21Z</time>
      </trkpt>
      <trkpt lat="62.633349190655" lon="17.972106624635">
        <ele>79.2</ele>
        <time>2017-12-18T18:29:22Z</time>
      </trkpt>
      <trkpt lat="62.63334206604" lon="17.972162196632">
        <ele>79.2</ele>
        <time>2017-12-18T18:29:23Z</time>
      </trkpt>
      <trkpt lat="62.633332343036" lon="17.972230928212">
        <ele>79.4</ele>
        <time>2017-12-18T18:29:24Z</time>
      </trkpt>
      <trkpt lat="62.633322703851" lon="17.972288176589">
        <ele>79.6</ele>
        <time>2017-12-18T18:29:25Z</time>
      </trkpt>
      <trkpt lat="62.633310885372" lon="17.972350035011">
        <ele>79.6</ele>
        <time>2017-12-18T18:29:26Z</time>
      </trkpt>
      <trkpt lat="62.633299905083" lon="17.97241633584">
        <ele>79.6</ele>
        <time>2017-12-18T18:29:27Z</time>
      </trkpt>
      <trkpt lat="62.633290182079" lon="17.972475595873">
        <ele>79.8</ele>
        <time>2017-12-18T18:29:28Z</time>
      </trkpt>
      <trkpt lat="62.633279620885" lon="17.972532676612">
        <ele>79.8</ele>
        <time>2017-12-18T18:29:29Z</time>
      </trkpt>
      <trkpt lat="62.6332699817" lon="17.972592104283">
        <ele>80</ele>
        <time>2017-12-18T18:29:30Z</time>
      </trkpt>
      <trkpt lat="62.633258666135" lon="17.972656141999">
        <ele>80</ele>
        <time>2017-12-18T18:29:31Z</time>
      </trkpt>
      <trkpt lat="62.633247266751" lon="17.972717665145">
        <ele>80</ele>
        <time>2017-12-18T18:29:32Z</time>
      </trkpt>
      <trkpt lat="62.633233352797" lon="17.972781032309">
        <ele>80.2</ele>
        <time>2017-12-18T18:29:33Z</time>
      </trkpt>
      <trkpt lat="62.633221534318" lon="17.972842303998">
        <ele>80.2</ele>
        <time>2017-12-18T18:29:34Z</time>
      </trkpt>
      <trkpt lat="62.633211978952" lon="17.972892511579">
        <ele>80.4</ele>
        <time>2017-12-18T18:29:35Z</time>
      </trkpt>
      <trkpt lat="62.633196975351" lon="17.972960153512">
        <ele>80.4</ele>
        <time>2017-12-18T18:29:36Z</time>
      </trkpt>
      <trkpt lat="62.633184737777" lon="17.973015976966">
        <ele>80.6</ele>
        <time>2017-12-18T18:29:37Z</time>
      </trkpt>
      <trkpt lat="62.633172667841" lon="17.973074901723">
        <ele>80.6</ele>
        <time>2017-12-18T18:29:38Z</time>
      </trkpt>
      <trkpt lat="62.633160765543" lon="17.973136089593">
        <ele>80.6</ele>
        <time>2017-12-18T18:29:39Z</time>
      </trkpt>
      <trkpt lat="62.633146935408" lon="17.973197109825">
        <ele>80.8</ele>
        <time>2017-12-18T18:29:40Z</time>
      </trkpt>
      <trkpt lat="62.633132434721" lon="17.973252765641">
        <ele>81</ele>
        <time>2017-12-18T18:29:41Z</time>
      </trkpt>
      <trkpt lat="62.633114748912" lon="17.973318563556">
        <ele>81.2</ele>
        <time>2017-12-18T18:29:42Z</time>
      </trkpt>
      <trkpt lat="62.633100751139" lon="17.973376650123">
        <ele>81.4</ele>
        <time>2017-12-18T18:29:43Z</time>
      </trkpt>
      <trkpt lat="62.633087591556" lon="17.973435910156">
        <ele>81.4</ele>
        <time>2017-12-18T18:29:44Z</time>
      </trkpt>
      <trkpt lat="62.633076024534" lon="17.973489721954">
        <ele>81.6</ele>
        <time>2017-12-18T18:29:45Z</time>
      </trkpt>
      <trkpt lat="62.633063451684" lon="17.973549233444">
        <ele>81.6</ele>
        <time>2017-12-18T18:29:46Z</time>
      </trkpt>
      <trkpt lat="62.633051717024" lon="17.973606817097">
        <ele>81.6</ele>
        <time>2017-12-18T18:29:47Z</time>
      </trkpt>
      <trkpt lat="62.633039144174" lon="17.973667837329">
        <ele>81.6</ele>
        <time>2017-12-18T18:29:48Z</time>
      </trkpt>
      <trkpt lat="62.633025062582" lon="17.97373061776">
        <ele>81.8</ele>
        <time>2017-12-18T18:29:49Z</time>
      </trkpt>
      <trkpt lat="62.63301098099" lon="17.97378929106">
        <ele>82</ele>
        <time>2017-12-18T18:29:50Z</time>
      </trkpt>
      <trkpt lat="62.632995977389" lon="17.973859028468">
        <ele>82</ele>
        <time>2017-12-18T18:29:51Z</time>
      </trkpt>
      <trkpt lat="62.632982147254" lon="17.973925580754">
        <ele>82.2</ele>
        <time>2017-12-18T18:29:52Z</time>
      </trkpt>
      <trkpt lat="62.632968820033" lon="17.973987187719">
        <ele>82.2</ele>
        <time>2017-12-18T18:29:53Z</time>
      </trkpt>
      <trkpt lat="62.632950128396" lon="17.974056422213">
        <ele>82.2</ele>
        <time>2017-12-18T18:29:54Z</time>
      </trkpt>
      <trkpt lat="62.632933783691" lon="17.974112413305">
        <ele>82.2</ele>
        <time>2017-12-18T18:29:55Z</time>
      </trkpt>
      <trkpt lat="62.63291542733" lon="17.974171421881">
        <ele>82.4</ele>
        <time>2017-12-18T18:29:56Z</time>
      </trkpt>
      <trkpt lat="62.632898328254" lon="17.974230262819">
        <ele>82.4</ele>
        <time>2017-12-18T18:29:57Z</time>
      </trkpt>
      <trkpt lat="62.632881312997" lon="17.974291534508">
        <ele>82.4</ele>
        <time>2017-12-18T18:29:58Z</time>
      </trkpt>
      <trkpt lat="62.632866057939" lon="17.974345262487">
        <ele>82.6</ele>
        <time>2017-12-18T18:29:59Z</time>
      </trkpt>
      <trkpt lat="62.632846276655" lon="17.974400499208">
        <ele>82.6</ele>
        <time>2017-12-18T18:30:00Z</time>
      </trkpt>
      <trkpt lat="62.632818784023" lon="17.974452047893">
        <ele>83</ele>
        <time>2017-12-18T18:30:01Z</time>
      </trkpt>
      <trkpt lat="62.632791961943" lon="17.974487251873">
        <ele>82.8</ele>
        <time>2017-12-18T18:30:02Z</time>
      </trkpt>
      <trkpt lat="62.6327586858" lon="17.974504183311">
        <ele>82.8</ele>
        <time>2017-12-18T18:30:03Z</time>
      </trkpt>
      <trkpt lat="62.632727253675" lon="17.974507955166">
        <ele>83</ele>
        <time>2017-12-18T18:30:04Z</time>
      </trkpt>
      <trkpt lat="62.632701772699" lon="17.974496052868">
        <ele>83</ele>
        <time>2017-12-18T18:30:05Z</time>
      </trkpt>
      <trkpt lat="62.632667574547" lon="17.974468895512">
        <ele>83.2</ele>
        <time>2017-12-18T18:30:06Z</time>
      </trkpt>
      <trkpt lat="62.632639411363" lon="17.974438469215">
        <ele>83</ele>
        <time>2017-12-18T18:30:07Z</time>
      </trkpt>
      <trkpt lat="62.632609571799" lon="17.974404187244">
        <ele>83.2</ele>
        <time>2017-12-18T18:30:08Z</time>
      </trkpt>
      <trkpt lat="62.63258182771" lon="17.974372755119">
        <ele>83.2</ele>
        <time>2017-12-18T18:30:09Z</time>
      </trkpt>
      <trkpt lat="62.63255500563" lon="17.974349034342">
        <ele>83.2</ele>
        <time>2017-12-18T18:30:10Z</time>
      </trkpt>
      <trkpt lat="62.63253321269" lon="17.974323469547">
        <ele>83.2</ele>
        <time>2017-12-18T18:30:11Z</time>
      </trkpt>
      <trkpt lat="62.632502451117" lon="17.97429220506">
        <ele>83</ele>
        <time>2017-12-18T18:30:12Z</time>
      </trkpt>
      <trkpt lat="62.632476131951" lon="17.974261862582">
        <ele>83</ele>
        <time>2017-12-18T18:30:13Z</time>
      </trkpt>
      <trkpt lat="62.632449058414" lon="17.974238141805">
        <ele>83</ele>
        <time>2017-12-18T18:30:14Z</time>
      </trkpt>
      <trkpt lat="62.632423493619" lon="17.974216013589">
        <ele>83</ele>
        <time>2017-12-18T18:30:15Z</time>
      </trkpt>
      <trkpt lat="62.632397677367" lon="17.974189442966">
        <ele>83</ele>
        <time>2017-12-18T18:30:16Z</time>
      </trkpt>
      <trkpt lat="62.632377057893" lon="17.974167230931">
        <ele>83</ele>
        <time>2017-12-18T18:30:17Z</time>
      </trkpt>
      <trkpt lat="62.632344536121" lon="17.974141749955">
        <ele>82.8</ele>
        <time>2017-12-18T18:30:18Z</time>
      </trkpt>
      <trkpt lat="62.632313271634" lon="17.974115682246">
        <ele>83</ele>
        <time>2017-12-18T18:30:19Z</time>
      </trkpt>
      <trkpt lat="62.63228343207" lon="17.974086764691">
        <ele>83</ele>
        <time>2017-12-18T18:30:20Z</time>
      </trkpt>
      <trkpt lat="62.632252083764" lon="17.974053237091">
        <ele>83</ele>
        <time>2017-12-18T18:30:21Z</time>
      </trkpt>
      <trkpt lat="62.632226351331" lon="17.97402482245">
        <ele>82.8</ele>
        <time>2017-12-18T18:30:22Z</time>
      </trkpt>
      <trkpt lat="62.63219961307" lon="17.97399464761">
        <ele>83</ele>
        <time>2017-12-18T18:30:23Z</time>
      </trkpt>
      <trkpt lat="62.632169270592" lon="17.973960449458">
        <ele>83</ele>
        <time>2017-12-18T18:30:24Z</time>
      </trkpt>
      <trkpt lat="62.632139095752" lon="17.973926838039">
        <ele>82.8</ele>
        <time>2017-12-18T18:30:25Z</time>
      </trkpt>
      <trkpt lat="62.632103305039" lon="17.973894567724">
        <ele>82.8</ele>
        <time>2017-12-18T18:30:26Z</time>
      </trkpt>
      <trkpt lat="62.632068268697" lon="17.97385802264">
        <ele>82.8</ele>
        <time>2017-12-18T18:30:27Z</time>
      </trkpt>
      <trkpt lat="62.632034573459" lon="17.973819382081">
        <ele>82.8</ele>
        <time>2017-12-18T18:30:28Z</time>
      </trkpt>
      <trkpt lat="62.632000626764" lon="17.973784932472">
        <ele>82.8</ele>
        <time>2017-12-18T18:30:29Z</time>
      </trkpt>
      <trkpt lat="62.631967015345" lon="17.973744699352">
        <ele>82.6</ele>
        <time>2017-12-18T18:30:30Z</time>
      </trkpt>
      <trkpt lat="62.631936589048" lon="17.973707064621">
        <ele>82.6</ele>
        <time>2017-12-18T18:30:31Z</time>
      </trkpt>
      <trkpt lat="62.631905073104" lon="17.973672363555">
        <ele>82.6</ele>
        <time>2017-12-18T18:30:32Z</time>
      </trkpt>
      <trkpt lat="62.631875149721" lon="17.973640763792">
        <ele>82.4</ele>
        <time>2017-12-18T18:30:33Z</time>
      </trkpt>
      <trkpt lat="62.631843047044" lon="17.973607990563">
        <ele>82.6</ele>
        <time>2017-12-18T18:30:34Z</time>
      </trkpt>
      <trkpt lat="62.631814380946" lon="17.973574630601">
        <ele>82.4</ele>
        <time>2017-12-18T18:30:35Z</time>
      </trkpt>
      <trkpt lat="62.631779428423" lon="17.973532050549">
        <ele>82.4</ele>
        <time>2017-12-18T18:30:36Z</time>
      </trkpt>
      <trkpt lat="62.631750510868" lon="17.973490979239">
        <ele>82.4</ele>
        <time>2017-12-18T18:30:37Z</time>
      </trkpt>
      <trkpt lat="62.631720922761" lon="17.973449405015">
        <ele>82.4</ele>
        <time>2017-12-18T18:30:38Z</time>
      </trkpt>
      <trkpt lat="62.631690664102" lon="17.973409255714">
        <ele>82.4</ele>
        <time>2017-12-18T18:30:39Z</time>
      </trkpt>
      <trkpt lat="62.631660824538" lon="17.973370531336">
        <ele>82.2</ele>
        <time>2017-12-18T18:30:40Z</time>
      </trkpt>
      <trkpt lat="62.631629476232" lon="17.973330549673">
        <ele>82.4</ele>
        <time>2017-12-18T18:30:41Z</time>
      </trkpt>
      <trkpt lat="62.631593685519" lon="17.973281683196">
        <ele>82.4</ele>
        <time>2017-12-18T18:30:42Z</time>
      </trkpt>
      <trkpt lat="62.631561163747" lon="17.973236420936">
        <ele>82.4</ele>
        <time>2017-12-18T18:30:43Z</time>
      </trkpt>
      <trkpt lat="62.631532581468" lon="17.973190069029">
        <ele>82.2</ele>
        <time>2017-12-18T18:30:44Z</time>
      </trkpt>
      <trkpt lat="62.631508441596" lon="17.973136927783">
        <ele>82.2</ele>
        <time>2017-12-18T18:30:45Z</time>
      </trkpt>
      <trkpt lat="62.631484637" lon="17.973080601415">
        <ele>82.2</ele>
        <time>2017-12-18T18:30:46Z</time>
      </trkpt>
      <trkpt lat="62.63145865311" lon="17.973028298359">
        <ele>82</ele>
        <time>2017-12-18T18:30:47Z</time>
      </trkpt>
      <trkpt lat="62.631428142994" lon="17.972969122145">
        <ele>81.8</ele>
        <time>2017-12-18T18:30:48Z</time>
      </trkpt>
      <trkpt lat="62.631400147448" lon="17.972906341714">
        <ele>81.6</ele>
        <time>2017-12-18T18:30:49Z</time>
      </trkpt>
      <trkpt lat="62.631381120535" lon="17.97285219464">
        <ele>81.4</ele>
        <time>2017-12-18T18:30:50Z</time>
      </trkpt>
      <trkpt lat="62.631355891016" lon="17.972792264055">
        <ele>81.2</ele>
        <time>2017-12-18T18:30:51Z</time>
      </trkpt>
      <trkpt lat="62.631330661497" lon="17.972737781705">
        <ele>81.2</ele>
        <time>2017-12-18T18:30:52Z</time>
      </trkpt>
      <trkpt lat="62.63131113167" lon="17.972680952423">
        <ele>81</ele>
        <time>2017-12-18T18:30:53Z</time>
      </trkpt>
      <trkpt lat="62.631289674006" lon="17.97262588334">
        <ele>80.6</ele>
        <time>2017-12-18T18:30:54Z</time>
      </trkpt>
      <trkpt lat="62.63126838398" lon="17.972571484809">
        <ele>80.6</ele>
        <time>2017-12-18T18:30:55Z</time>
      </trkpt>
      <trkpt lat="62.631246171945" lon="17.972511721862">
        <ele>80.6</ele>
        <time>2017-12-18T18:30:56Z</time>
      </trkpt>
      <trkpt lat="62.631224127548" lon="17.972450953087">
        <ele>80.4</ele>
        <time>2017-12-18T18:30:57Z</time>
      </trkpt>
      <trkpt lat="62.63120551973" lon="17.972386831552">
        <ele>80.2</ele>
        <time>2017-12-18T18:30:58Z</time>
      </trkpt>
      <trkpt lat="62.631189007387" lon="17.972328409709">
        <ele>80</ele>
        <time>2017-12-18T18:30:59Z</time>
      </trkpt>
      <trkpt lat="62.631170399569" lon="17.97226127069">
        <ele>80</ele>
        <time>2017-12-18T18:31:00Z</time>
      </trkpt>
      <trkpt lat="62.631151791751" lon="17.972188012884">
        <ele>79.8</ele>
        <time>2017-12-18T18:31:01Z</time>
      </trkpt>
      <trkpt lat="62.631136536693" lon="17.972123136978">
        <ele>79.6</ele>
        <time>2017-12-18T18:31:02Z</time>
      </trkpt>
      <trkpt lat="62.631118599427" lon="17.972053315751">
        <ele>79.4</ele>
        <time>2017-12-18T18:31:03Z</time>
      </trkpt>
      <trkpt lat="62.631095130107" lon="17.971983662162">
        <ele>79.2</ele>
        <time>2017-12-18T18:31:04Z</time>
      </trkpt>
      <trkpt lat="62.631070738778" lon="17.971917109876">
        <ele>79.2</ele>
        <time>2017-12-18T18:31:05Z</time>
      </trkpt>
      <trkpt lat="62.63106302743" lon="17.971850306133">
        <ele>79</ele>
        <time>2017-12-18T18:31:06Z</time>
      </trkpt>
      <trkpt lat="62.631044000517" lon="17.971778557069">
        <ele>78.8</ele>
        <time>2017-12-18T18:31:07Z</time>
      </trkpt>
      <trkpt lat="62.631027991088" lon="17.971711166593">
        <ele>78.4</ele>
        <time>2017-12-18T18:31:08Z</time>
      </trkpt>
      <trkpt lat="62.631012484573" lon="17.971638998434">
        <ele>78.2</ele>
        <time>2017-12-18T18:31:09Z</time>
      </trkpt>
      <trkpt lat="62.630997480972" lon="17.971572781424">
        <ele>78.2</ele>
        <time>2017-12-18T18:31:10Z</time>
      </trkpt>
      <trkpt lat="62.630983734656" lon="17.971506564414">
        <ele>78.2</ele>
        <time>2017-12-18T18:31:11Z</time>
      </trkpt>
      <trkpt lat="62.630969401607" lon="17.971427439278">
        <ele>77.8</ele>
        <time>2017-12-18T18:31:12Z</time>
      </trkpt>
      <trkpt lat="62.630956996395" lon="17.971352002178">
        <ele>77.6</ele>
        <time>2017-12-18T18:31:13Z</time>
      </trkpt>
      <trkpt lat="62.630947524848" lon="17.971276984173">
        <ele>77.8</ele>
        <time>2017-12-18T18:31:14Z</time>
      </trkpt>
      <trkpt lat="62.630935790188" lon="17.971209258421">
        <ele>77.4</ele>
        <time>2017-12-18T18:31:15Z</time>
      </trkpt>
      <trkpt lat="62.6309230497" lon="17.971129043638">
        <ele>77.2</ele>
        <time>2017-12-18T18:31:16Z</time>
      </trkpt>
      <trkpt lat="62.630913745791" lon="17.971057378393">
        <ele>77.2</ele>
        <time>2017-12-18T18:31:17Z</time>
      </trkpt>
      <trkpt lat="62.630901675855" lon="17.970977247429">
        <ele>77.2</ele>
        <time>2017-12-18T18:31:18Z</time>
      </trkpt>
      <trkpt lat="62.630893629231" lon="17.970903319071">
        <ele>77</ele>
        <time>2017-12-18T18:31:19Z</time>
      </trkpt>
      <trkpt lat="62.630884912055" lon="17.970833330206">
        <ele>76.8</ele>
        <time>2017-12-18T18:31:20Z</time>
      </trkpt>
      <trkpt lat="62.63087192011" lon="17.970752612509">
        <ele>76.6</ele>
        <time>2017-12-18T18:31:21Z</time>
      </trkpt>
      <trkpt lat="62.630862197106" lon="17.970683461834">
        <ele>76.6</ele>
        <time>2017-12-18T18:31:22Z</time>
      </trkpt>
      <trkpt lat="62.630851971188" lon="17.970614478797">
        <ele>76.6</ele>
        <time>2017-12-18T18:31:23Z</time>
      </trkpt>
      <trkpt lat="62.630843673107" lon="17.970539544611">
        <ele>76.4</ele>
        <time>2017-12-18T18:31:24Z</time>
      </trkpt>
      <trkpt lat="62.630837386682" lon="17.970472824687">
        <ele>76.2</ele>
        <time>2017-12-18T18:31:25Z</time>
      </trkpt>
      <trkpt lat="62.630833866284" lon="17.970395878845">
        <ele>76.2</ele>
        <time>2017-12-18T18:31:26Z</time>
      </trkpt>
      <trkpt lat="62.630830345886" lon="17.970311305474">
        <ele>76.2</ele>
        <time>2017-12-18T18:31:27Z</time>
      </trkpt>
      <trkpt lat="62.630830345886" lon="17.970213237244">
        <ele>75.8</ele>
        <time>2017-12-18T18:31:29Z</time>
      </trkpt>
      <trkpt lat="62.630830513524" lon="17.970177614169">
        <ele>75.6</ele>
        <time>2017-12-18T18:31:30Z</time>
      </trkpt>
      <trkpt lat="62.630832357542" lon="17.97014903189">
        <ele>75.4</ele>
        <time>2017-12-18T18:31:31Z</time>
      </trkpt>
      <trkpt lat="62.630838560148" lon="17.970123048">
        <ele>75.4</ele>
        <time>2017-12-18T18:31:32Z</time>
      </trkpt>
      <trkpt lat="62.63084425984" lon="17.970101590336">
        <ele>75.4</ele>
        <time>2017-12-18T18:31:33Z</time>
      </trkpt>
      <trkpt lat="62.630847696419" lon="17.970082731061">
        <ele>75.4</ele>
        <time>2017-12-18T18:31:34Z</time>
      </trkpt>
      <trkpt lat="62.630847025867" lon="17.970074600618">
        <ele>75.4</ele>
        <time>2017-12-18T18:31:35Z</time>
      </trkpt>
      <trkpt lat="62.630846020039" lon="17.970069236202">
        <ele>75.4</ele>
        <time>2017-12-18T18:31:36Z</time>
      </trkpt>
      <trkpt lat="62.631112899735" lon="17.970048784366">
        <ele>74.6</ele>
        <time>2017-12-18T18:34:02Z</time>
      </trkpt>
      <trkpt lat="62.631146259697" lon="17.970030344186">
        <ele>74.8</ele>
        <time>2017-12-18T18:34:03Z</time>
      </trkpt>
      <trkpt lat="62.631186995731" lon="17.97000905416">
        <ele>74.6</ele>
        <time>2017-12-18T18:34:04Z</time>
      </trkpt>
      <trkpt lat="62.631214907458" lon="17.969988434686">
        <ele>74.6</ele>
        <time>2017-12-18T18:34:05Z</time>
      </trkpt>
      <trkpt lat="62.631250698171" lon="17.969968653402">
        <ele>74.4</ele>
        <time>2017-12-18T18:34:06Z</time>
      </trkpt>
      <trkpt lat="62.631284812504" lon="17.969952224878">
        <ele>74.2</ele>
        <time>2017-12-18T18:34:07Z</time>
      </trkpt>
      <trkpt lat="62.631316412267" lon="17.969933114146">
        <ele>74.2</ele>
        <time>2017-12-18T18:34:08Z</time>
      </trkpt>
      <trkpt lat="62.631353376446" lon="17.96991685326">
        <ele>74</ele>
        <time>2017-12-18T18:34:09Z</time>
      </trkpt>
      <trkpt lat="62.631382126363" lon="17.96990008946">
        <ele>74</ele>
        <time>2017-12-18T18:34:10Z</time>
      </trkpt>
      <trkpt lat="62.631416995067" lon="17.969881062547">
        <ele>74</ele>
        <time>2017-12-18T18:34:11Z</time>
      </trkpt>
      <trkpt lat="62.631453121056" lon="17.9698632091">
        <ele>74</ele>
        <time>2017-12-18T18:34:12Z</time>
      </trkpt>
      <trkpt lat="62.631488325036" lon="17.969848205499">
        <ele>74</ele>
        <time>2017-12-18T18:34:13Z</time>
      </trkpt>
      <trkpt lat="62.631520176256" lon="17.969831944613">
        <ele>73.8</ele>
        <time>2017-12-18T18:34:14Z</time>
      </trkpt>
      <trkpt lat="62.631552949485" lon="17.969814761718">
        <ele>73.6</ele>
        <time>2017-12-18T18:34:15Z</time>
      </trkpt>
      <trkpt lat="62.631588237284" lon="17.969788191095">
        <ele>73.6</ele>
        <time>2017-12-18T18:34:16Z</time>
      </trkpt>
      <trkpt lat="62.631619334133" lon="17.969766649612">
        <ele>73.8</ele>
        <time>2017-12-18T18:34:17Z</time>
      </trkpt>
      <trkpt lat="62.631651939724" lon="17.969737732057">
        <ele>73.8</ele>
        <time>2017-12-18T18:34:18Z</time>
      </trkpt>
      <trkpt lat="62.631684796772" lon="17.969702444258">
        <ele>73.8</ele>
        <time>2017-12-18T18:34:19Z</time>
      </trkpt>
      <trkpt lat="62.631713379051" lon="17.969665899174">
        <ele>73.8</ele>
        <time>2017-12-18T18:34:20Z</time>
      </trkpt>
      <trkpt lat="62.63174699047" lon="17.969620134">
        <ele>73.8</ele>
        <time>2017-12-18T18:34:21Z</time>
      </trkpt>
      <trkpt lat="62.631778506414" lon="17.969591467902">
        <ele>73.6</ele>
        <time>2017-12-18T18:34:22Z</time>
      </trkpt>
      <trkpt lat="62.63180734015" lon="17.969580152337">
        <ele>73.4</ele>
        <time>2017-12-18T18:34:23Z</time>
      </trkpt>
      <trkpt lat="62.631842627949" lon="17.969578559776">
        <ele>73.2</ele>
        <time>2017-12-18T18:34:24Z</time>
      </trkpt>
      <trkpt lat="62.631868947115" lon="17.969577218672">
        <ele>73</ele>
        <time>2017-12-18T18:34:25Z</time>
      </trkpt>
      <trkpt lat="62.631903648181" lon="17.969577218672">
        <ele>73</ele>
        <time>2017-12-18T18:34:26Z</time>
      </trkpt>
      <trkpt lat="62.631933152469" lon="17.969581074346">
        <ele>73</ele>
        <time>2017-12-18T18:34:27Z</time>
      </trkpt>
      <trkpt lat="62.631965925698" lon="17.969583421278">
        <ele>73</ele>
        <time>2017-12-18T18:34:28Z</time>
      </trkpt>
      <trkpt lat="62.631993250692" lon="17.969578727414">
        <ele>73</ele>
        <time>2017-12-18T18:34:29Z</time>
      </trkpt>
      <trkpt lat="62.632026359197" lon="17.969573279179">
        <ele>73</ele>
        <time>2017-12-18T18:34:30Z</time>
      </trkpt>
      <trkpt lat="62.632058880969" lon="17.969568836772">
        <ele>73.2</ele>
        <time>2017-12-18T18:34:31Z</time>
      </trkpt>
      <trkpt lat="62.632091905655" lon="17.969556347741">
        <ele>73.2</ele>
        <time>2017-12-18T18:34:32Z</time>
      </trkpt>
      <trkpt lat="62.632123589237" lon="17.969551234782">
        <ele>73.4</ele>
        <time>2017-12-18T18:34:33Z</time>
      </trkpt>
      <trkpt lat="62.632157200656" lon="17.969535309172">
        <ele>73.4</ele>
        <time>2017-12-18T18:34:34Z</time>
      </trkpt>
      <trkpt lat="62.632187626953" lon="17.969525837625">
        <ele>73.4</ele>
        <time>2017-12-18T18:34:35Z</time>
      </trkpt>
      <trkpt lat="62.632223417666" lon="17.969518126277">
        <ele>73.4</ele>
        <time>2017-12-18T18:34:36Z</time>
      </trkpt>
      <trkpt lat="62.632259711293" lon="17.96951033111">
        <ele>73.4</ele>
        <time>2017-12-18T18:34:37Z</time>
      </trkpt>
      <trkpt lat="62.632288042115" lon="17.96950111102">
        <ele>73.2</ele>
        <time>2017-12-18T18:34:38Z</time>
      </trkpt>
      <trkpt lat="62.632325593027" lon="17.96949859645">
        <ele>73.2</ele>
        <time>2017-12-18T18:34:39Z</time>
      </trkpt>
      <trkpt lat="62.632354259125" lon="17.969493651129">
        <ele>73.4</ele>
        <time>2017-12-18T18:34:40Z</time>
      </trkpt>
      <trkpt lat="62.632385355974" lon="17.969491723292">
        <ele>73.4</ele>
        <time>2017-12-18T18:34:41Z</time>
      </trkpt>
      <trkpt lat="62.632416788099" lon="17.969493399672">
        <ele>73.4</ele>
        <time>2017-12-18T18:34:42Z</time>
      </trkpt>
      <trkpt lat="62.632448806957" lon="17.969495578966">
        <ele>73.4</ele>
        <time>2017-12-18T18:34:43Z</time>
      </trkpt>
      <trkpt lat="62.632479819987" lon="17.969501781572">
        <ele>73.4</ele>
        <time>2017-12-18T18:34:44Z</time>
      </trkpt>
      <trkpt lat="62.632508988999" lon="17.969499602278">
        <ele>73.4</ele>
        <time>2017-12-18T18:34:45Z</time>
      </trkpt>
      <trkpt lat="62.632545366445" lon="17.969507145988">
        <ele>73.4</ele>
        <time>2017-12-18T18:34:46Z</time>
      </trkpt>
      <trkpt lat="62.632575289828" lon="17.969510414929">
        <ele>73.2</ele>
        <time>2017-12-18T18:34:47Z</time>
      </trkpt>
      <trkpt lat="62.632611331998" lon="17.969516701354">
        <ele>73.2</ele>
        <time>2017-12-18T18:34:48Z</time>
      </trkpt>
      <trkpt lat="62.632641087743" lon="17.969516449897">
        <ele>73.2</ele>
        <time>2017-12-18T18:34:49Z</time>
      </trkpt>
      <trkpt lat="62.63267319042" lon="17.969526172901">
        <ele>73.2</ele>
        <time>2017-12-18T18:34:50Z</time>
      </trkpt>
      <trkpt lat="62.632705544554" lon="17.969531956412">
        <ele>73.2</ele>
        <time>2017-12-18T18:34:51Z</time>
      </trkpt>
      <trkpt lat="62.632737060498" lon="17.969542098511">
        <ele>73.2</ele>
        <time>2017-12-18T18:34:52Z</time>
      </trkpt>
      <trkpt lat="62.632764972225" lon="17.969547043832">
        <ele>73.2</ele>
        <time>2017-12-18T18:34:53Z</time>
      </trkpt>
      <trkpt lat="62.632798164549" lon="17.969553497895">
        <ele>73.4</ele>
        <time>2017-12-18T18:34:54Z</time>
      </trkpt>
      <trkpt lat="62.632827165923" lon="17.969556766836">
        <ele>73.4</ele>
        <time>2017-12-18T18:34:55Z</time>
      </trkpt>
      <trkpt lat="62.632858514229" lon="17.969557605026">
        <ele>73.6</ele>
        <time>2017-12-18T18:34:56Z</time>
      </trkpt>
      <trkpt lat="62.632890784544" lon="17.969565148736">
        <ele>73.6</ele>
        <time>2017-12-18T18:34:57Z</time>
      </trkpt>
      <trkpt lat="62.632923557773" lon="17.969571099885">
        <ele>73.6</ele>
        <time>2017-12-18T18:34:58Z</time>
      </trkpt>
      <trkpt lat="62.632955828088" lon="17.969579733242">
        <ele>74</ele>
        <time>2017-12-18T18:34:59Z</time>
      </trkpt>
      <trkpt lat="62.632985919109" lon="17.969588031323">
        <ele>74</ele>
        <time>2017-12-18T18:35:00Z</time>
      </trkpt>
      <trkpt lat="62.633019446709" lon="17.969596077947">
        <ele>74</ele>
        <time>2017-12-18T18:35:01Z</time>
      </trkpt>
      <trkpt lat="62.633051800843" lon="17.969606220046">
        <ele>74.2</ele>
        <time>2017-12-18T18:35:02Z</time>
      </trkpt>
      <trkpt lat="62.633082394778" lon="17.969611835919">
        <ele>74.2</ele>
        <time>2017-12-18T18:35:03Z</time>
      </trkpt>
      <trkpt lat="62.633115419464" lon="17.969620134">
        <ele>74.2</ele>
        <time>2017-12-18T18:35:04Z</time>
      </trkpt>
      <trkpt lat="62.633142073906" lon="17.969620553095">
        <ele>74.2</ele>
        <time>2017-12-18T18:35:05Z</time>
      </trkpt>
      <trkpt lat="62.6331777808" lon="17.969630862832">
        <ele>74.2</ele>
        <time>2017-12-18T18:35:06Z</time>
      </trkpt>
      <trkpt lat="62.633209296744" lon="17.969644022415">
        <ele>74.4</ele>
        <time>2017-12-18T18:35:07Z</time>
      </trkpt>
      <trkpt lat="62.633239639222" lon="17.969651063211">
        <ele>74.4</ele>
        <time>2017-12-18T18:35:08Z</time>
      </trkpt>
      <trkpt lat="62.633272077175" lon="17.969663636061">
        <ele>74.4</ele>
        <time>2017-12-18T18:35:09Z</time>
      </trkpt>
      <trkpt lat="62.633300324178" lon="17.969678388205">
        <ele>74.4</ele>
        <time>2017-12-18T18:35:10Z</time>
      </trkpt>
      <trkpt lat="62.63332781681" lon="17.969703785362">
        <ele>74.4</ele>
        <time>2017-12-18T18:35:11Z</time>
      </trkpt>
      <trkpt lat="62.633350531759" lon="17.969741168636">
        <ele>74.6</ele>
        <time>2017-12-18T18:35:12Z</time>
      </trkpt>
      <trkpt lat="62.633366876464" lon="17.969797327366">
        <ele>74.6</ele>
        <time>2017-12-18T18:35:13Z</time>
      </trkpt>
      <trkpt lat="62.633381628608" lon="17.969856335942">
        <ele>74.6</ele>
        <time>2017-12-18T18:35:14Z</time>
      </trkpt>
      <trkpt lat="62.633393614725" lon="17.969913668138">
        <ele>74.8</ele>
        <time>2017-12-18T18:35:15Z</time>
      </trkpt>
      <trkpt lat="62.63340073934" lon="17.969983405546">
        <ele>75</ele>
        <time>2017-12-18T18:35:16Z</time>
      </trkpt>
      <trkpt lat="62.63340828305" lon="17.97005012547">
        <ele>75</ele>
        <time>2017-12-18T18:35:17Z</time>
      </trkpt>
      <trkpt lat="62.633416832588" lon="17.970120701068">
        <ele>75.2</ele>
        <time>2017-12-18T18:35:18Z</time>
      </trkpt>
      <trkpt lat="62.633422113185" lon="17.970183984413">
        <ele>75.4</ele>
        <time>2017-12-18T18:35:19Z</time>
      </trkpt>
      <trkpt lat="62.633425214488" lon="17.970244250274">
        <ele>75.4</ele>
        <time>2017-12-18T18:35:20Z</time>
      </trkpt>
      <trkpt lat="62.633430243628" lon="17.97031080256">
        <ele>75.6</ele>
        <time>2017-12-18T18:35:21Z</time>
      </trkpt>
      <trkpt lat="62.633434602216" lon="17.970378109217">
        <ele>75.6</ele>
        <time>2017-12-18T18:35:22Z</time>
      </trkpt>
      <trkpt lat="62.633435272768" lon="17.970429071169">
        <ele>75.8</ele>
        <time>2017-12-18T18:35:23Z</time>
      </trkpt>
      <trkpt lat="62.633437787338" lon="17.970505430278">
        <ele>76</ele>
        <time>2017-12-18T18:35:24Z</time>
      </trkpt>
      <trkpt lat="62.633440218089" lon="17.970567959252">
        <ele>76</ele>
        <time>2017-12-18T18:35:25Z</time>
      </trkpt>
      <trkpt lat="62.633446672152" lon="17.97063602028">
        <ele>76.2</ele>
        <time>2017-12-18T18:35:26Z</time>
      </trkpt>
      <trkpt lat="62.633451449835" lon="17.970706512059">
        <ele>76.2</ele>
        <time>2017-12-18T18:35:27Z</time>
      </trkpt>
      <trkpt lat="62.633455640785" lon="17.970772812888">
        <ele>76.4</ele>
        <time>2017-12-18T18:35:28Z</time>
      </trkpt>
      <trkpt lat="62.633455640785" lon="17.970838694622">
        <ele>76.4</ele>
        <time>2017-12-18T18:35:29Z</time>
      </trkpt>
      <trkpt lat="62.633457065708" lon="17.970903067614">
        <ele>76.6</ele>
        <time>2017-12-18T18:35:30Z</time>
      </trkpt>
      <trkpt lat="62.633457065708" lon="17.97097716361">
        <ele>76.6</ele>
        <time>2017-12-18T18:35:31Z</time>
      </trkpt>
      <trkpt lat="62.63345857445" lon="17.971040279317">
        <ele>76.8</ele>
        <time>2017-12-18T18:35:32Z</time>
      </trkpt>
      <trkpt lat="62.633460753744" lon="17.971104149395">
        <ele>76.8</ele>
        <time>2017-12-18T18:35:33Z</time>
      </trkpt>
      <trkpt lat="62.633461675753" lon="17.971172964794">
        <ele>77</ele>
        <time>2017-12-18T18:35:34Z</time>
      </trkpt>
      <trkpt lat="62.633460753744" lon="17.9712294588">
        <ele>77.2</ele>
        <time>2017-12-18T18:35:35Z</time>
      </trkpt>
      <trkpt lat="62.633461759572" lon="17.971305566452">
        <ele>77.2</ele>
        <time>2017-12-18T18:35:36Z</time>
      </trkpt>
      <trkpt lat="62.633461843391" lon="17.971370861453">
        <ele>77.4</ele>
        <time>2017-12-18T18:35:37Z</time>
      </trkpt>
      <trkpt lat="62.633460083192" lon="17.971438922481">
        <ele>77.6</ele>
        <time>2017-12-18T18:35:38Z</time>
      </trkpt>
      <trkpt lat="62.633456562794" lon="17.971506732052">
        <ele>77.6</ele>
        <time>2017-12-18T18:35:39Z</time>
      </trkpt>
      <trkpt lat="62.633451198378" lon="17.971566830275">
        <ele>77.8</ele>
        <time>2017-12-18T18:35:40Z</time>
      </trkpt>
      <trkpt lat="62.633448767627" lon="17.971633047285">
        <ele>78</ele>
        <time>2017-12-18T18:35:41Z</time>
      </trkpt>
      <trkpt lat="62.633447761799" lon="17.971705383082">
        <ele>78.2</ele>
        <time>2017-12-18T18:35:42Z</time>
      </trkpt>
      <trkpt lat="62.63344264884" lon="17.97177344411">
        <ele>78.2</ele>
        <time>2017-12-18T18:35:43Z</time>
      </trkpt>
      <trkpt lat="62.633435188949" lon="17.971827255908">
        <ele>78.2</ele>
        <time>2017-12-18T18:35:44Z</time>
      </trkpt>
      <trkpt lat="62.63343091418" lon="17.971895736031">
        <ele>78.2</ele>
        <time>2017-12-18T18:35:45Z</time>
      </trkpt>
      <trkpt lat="62.633423957203" lon="17.971963797059">
        <ele>78.4</ele>
        <time>2017-12-18T18:35:46Z</time>
      </trkpt>
      <trkpt lat="62.633416916407" lon="17.97202490111">
        <ele>78.4</ele>
        <time>2017-12-18T18:35:47Z</time>
      </trkpt>
      <trkpt lat="62.63340995943" lon="17.972094387061">
        <ele>78.6</ele>
        <time>2017-12-18T18:35:48Z</time>
      </trkpt>
      <trkpt lat="62.633401745168" lon="17.972159598243">
        <ele>78.6</ele>
        <time>2017-12-18T18:35:49Z</time>
      </trkpt>
      <trkpt lat="62.633396213114" lon="17.972220786113">
        <ele>78.8</ele>
        <time>2017-12-18T18:35:50Z</time>
      </trkpt>
      <trkpt lat="62.633388753223" lon="17.972290355883">
        <ele>78.8</ele>
        <time>2017-12-18T18:35:51Z</time>
      </trkpt>
      <trkpt lat="62.633377689115" lon="17.972355567065">
        <ele>78.8</ele>
        <time>2017-12-18T18:35:52Z</time>
      </trkpt>
      <trkpt lat="62.633372073242" lon="17.972408289216">
        <ele>79</ele>
        <time>2017-12-18T18:35:53Z</time>
      </trkpt>
      <trkpt lat="62.633359332754" lon="17.972478194262">
        <ele>79</ele>
        <time>2017-12-18T18:35:54Z</time>
      </trkpt>
      <trkpt lat="62.633349358293" lon="17.972529072395">
        <ele>79</ele>
        <time>2017-12-18T18:35:55Z</time>
      </trkpt>
      <trkpt lat="62.633336785443" lon="17.972595373224">
        <ele>79</ele>
        <time>2017-12-18T18:35:56Z</time>
      </trkpt>
      <trkpt lat="62.633326475706" lon="17.97265605818">
        <ele>79.2</ele>
        <time>2017-12-18T18:35:57Z</time>
      </trkpt>
      <trkpt lat="62.633313651399" lon="17.97271137872">
        <ele>79.4</ele>
        <time>2017-12-18T18:35:58Z</time>
      </trkpt>
      <trkpt lat="62.633301078549" lon="17.972770219658">
        <ele>79.6</ele>
        <time>2017-12-18T18:35:59Z</time>
      </trkpt>
      <trkpt lat="62.633288002785" lon="17.972829228234">
        <ele>79.8</ele>
        <time>2017-12-18T18:36:00Z</time>
      </trkpt>
      <trkpt lat="62.63327584903" lon="17.972893433588">
        <ele>79.8</ele>
        <time>2017-12-18T18:36:01Z</time>
      </trkpt>
      <trkpt lat="62.633264617284" lon="17.972948670309">
        <ele>80</ele>
        <time>2017-12-18T18:36:02Z</time>
      </trkpt>
      <trkpt lat="62.633248272579" lon="17.973004829039">
        <ele>80</ele>
        <time>2017-12-18T18:36:03Z</time>
      </trkpt>
      <trkpt lat="62.633233771892" lon="17.973057467371">
        <ele>80.2</ele>
        <time>2017-12-18T18:36:04Z</time>
      </trkpt>
      <trkpt lat="62.633226479639" lon="17.973093509541">
        <ele>80.2</ele>
        <time>2017-12-18T18:36:05Z</time>
      </trkpt>
      <trkpt lat="62.633207033631" lon="17.97316819227">
        <ele>80.4</ele>
        <time>2017-12-18T18:36:06Z</time>
      </trkpt>
      <trkpt lat="62.633194963695" lon="17.973222926077">
        <ele>80.4</ele>
        <time>2017-12-18T18:36:07Z</time>
      </trkpt>
      <trkpt lat="62.633180798284" lon="17.973278414255">
        <ele>80.6</ele>
        <time>2017-12-18T18:36:08Z</time>
      </trkpt>
      <trkpt lat="62.633166129959" lon="17.97333834484">
        <ele>80.6</ele>
        <time>2017-12-18T18:36:09Z</time>
      </trkpt>
      <trkpt lat="62.63315095872" lon="17.973391066991">
        <ele>80.6</ele>
        <time>2017-12-18T18:36:10Z</time>
      </trkpt>
      <trkpt lat="62.633135619843" lon="17.973454182698">
        <ele>80.8</ele>
        <time>2017-12-18T18:36:11Z</time>
      </trkpt>
      <trkpt lat="62.633120029509" lon="17.973519729156">
        <ele>80.8</ele>
        <time>2017-12-18T18:36:12Z</time>
      </trkpt>
      <trkpt lat="62.633104439175" lon="17.973578318637">
        <ele>81</ele>
        <time>2017-12-18T18:36:13Z</time>
      </trkpt>
      <trkpt lat="62.633091279592" lon="17.973636405204">
        <ele>81</ele>
        <time>2017-12-18T18:36:14Z</time>
      </trkpt>
      <trkpt lat="62.633076778905" lon="17.973693318305">
        <ele>81</ele>
        <time>2017-12-18T18:36:15Z</time>
      </trkpt>
      <trkpt lat="62.633060518019" lon="17.973756098736">
        <ele>81</ele>
        <time>2017-12-18T18:36:16Z</time>
      </trkpt>
      <trkpt lat="62.633046939341" lon="17.973812592742">
        <ele>81.2</ele>
        <time>2017-12-18T18:36:17Z</time>
      </trkpt>
      <trkpt lat="62.633031684283" lon="17.973879983218">
        <ele>81.2</ele>
        <time>2017-12-18T18:36:18Z</time>
      </trkpt>
      <trkpt lat="62.633016596863" lon="17.973943266563">
        <ele>81.4</ele>
        <time>2017-12-18T18:36:19Z</time>
      </trkpt>
      <trkpt lat="62.633000503615" lon="17.974002358958">
        <ele>81.4</ele>
        <time>2017-12-18T18:36:20Z</time>
      </trkpt>
      <trkpt lat="62.632985919109" lon="17.974069330339">
        <ele>81.6</ele>
        <time>2017-12-18T18:36:21Z</time>
      </trkpt>
      <trkpt lat="62.632969658223" lon="17.974138313376">
        <ele>81.8</ele>
        <time>2017-12-18T18:36:22Z</time>
      </trkpt>
      <trkpt lat="62.632955995726" lon="17.974199333608">
        <ele>81.8</ele>
        <time>2017-12-18T18:36:23Z</time>
      </trkpt>
      <trkpt lat="62.632935879166" lon="17.974277872011">
        <ele>81.8</ele>
        <time>2017-12-18T18:36:24Z</time>
      </trkpt>
      <trkpt lat="62.632918947728" lon="17.974330510343">
        <ele>82</ele>
        <time>2017-12-18T18:36:25Z</time>
      </trkpt>
      <trkpt lat="62.632900004634" lon="17.974389854195">
        <ele>82</ele>
        <time>2017-12-18T18:36:26Z</time>
      </trkpt>
      <trkpt lat="62.632876954409" lon="17.974442827803">
        <ele>82.2</ele>
        <time>2017-12-18T18:36:27Z</time>
      </trkpt>
      <trkpt lat="62.632854407098" lon="17.974482977104">
        <ele>82.2</ele>
        <time>2017-12-18T18:36:28Z</time>
      </trkpt>
      <trkpt lat="62.632825405724" lon="17.974507955166">
        <ele>82.4</ele>
        <time>2017-12-18T18:36:29Z</time>
      </trkpt>
      <trkpt lat="62.632794392694" lon="17.97452270731">
        <ele>82.4</ele>
        <time>2017-12-18T18:36:30Z</time>
      </trkpt>
      <trkpt lat="62.632760445999" lon="17.974525473337">
        <ele>82.4</ele>
        <time>2017-12-18T18:36:31Z</time>
      </trkpt>
      <trkpt lat="62.63273521648" lon="17.974503680397">
        <ele>82.4</ele>
        <time>2017-12-18T18:36:32Z</time>
      </trkpt>
      <trkpt lat="62.632714429368" lon="17.974484904941">
        <ele>82.4</ele>
        <time>2017-12-18T18:36:33Z</time>
      </trkpt>
      <trkpt lat="62.632687355831" lon="17.974453556635">
        <ele>82.4</ele>
        <time>2017-12-18T18:36:34Z</time>
      </trkpt>
      <trkpt lat="62.632661539579" lon="17.974433607713">
        <ele>82.4</ele>
        <time>2017-12-18T18:36:35Z</time>
      </trkpt>
      <trkpt lat="62.63262708997" lon="17.974406785633">
        <ele>82.4</ele>
        <time>2017-12-18T18:36:36Z</time>
      </trkpt>
      <trkpt lat="62.632601357537" lon="17.974381723752">
        <ele>82.4</ele>
        <time>2017-12-18T18:36:37Z</time>
      </trkpt>
      <trkpt lat="62.632574284" lon="17.974352973835">
        <ele>82.2</ele>
        <time>2017-12-18T18:36:38Z</time>
      </trkpt>
      <trkpt lat="62.632543857703" lon="17.974322212262">
        <ele>82.6</ele>
        <time>2017-12-18T18:36:39Z</time>
      </trkpt>
      <trkpt lat="62.632517538537" lon="17.974302598616">
        <ele>82.4</ele>
        <time>2017-12-18T18:36:40Z</time>
      </trkpt>
      <trkpt lat="62.632488872439" lon="17.974275022165">
        <ele>82.4</ele>
        <time>2017-12-18T18:36:41Z</time>
      </trkpt>
      <trkpt lat="62.632461715083" lon="17.974248786818">
        <ele>82.4</ele>
        <time>2017-12-18T18:36:42Z</time>
      </trkpt>
      <trkpt lat="62.632431037329" lon="17.974222886747">
        <ele>82.6</ele>
        <time>2017-12-18T18:36:43Z</time>
      </trkpt>
      <trkpt lat="62.632399772842" lon="17.974190700251">
        <ele>82.4</ele>
        <time>2017-12-18T18:36:44Z</time>
      </trkpt>
      <trkpt lat="62.632372950762" lon="17.974165889827">
        <ele>82.4</ele>
        <time>2017-12-18T18:36:45Z</time>
      </trkpt>
      <trkpt lat="62.632343362655" lon="17.974123393594">
        <ele>82.4</ele>
        <time>2017-12-18T18:36:46Z</time>
      </trkpt>
      <trkpt lat="62.632318300774" lon="17.97408601032">
        <ele>82.4</ele>
        <time>2017-12-18T18:36:47Z</time>
      </trkpt>
      <trkpt lat="62.632286449554" lon="17.974046196295">
        <ele>82.4</ele>
        <time>2017-12-18T18:36:48Z</time>
      </trkpt>
      <trkpt lat="62.632256274714" lon="17.974010908496">
        <ele>82.2</ele>
        <time>2017-12-18T18:36:49Z</time>
      </trkpt>
      <trkpt lat="62.632230877557" lon="17.973982410036">
        <ele>82.2</ele>
        <time>2017-12-18T18:36:50Z</time>
      </trkpt>
      <trkpt lat="62.63219793669" lon="17.97395022354">
        <ele>82.2</ele>
        <time>2017-12-18T18:36:51Z</time>
      </trkpt>
      <trkpt lat="62.632164241452" lon="17.97392675422">
        <ele>82.2</ele>
        <time>2017-12-18T18:36:52Z</time>
      </trkpt>
      <trkpt lat="62.63213423425" lon="17.973895238276">
        <ele>82.2</ele>
        <time>2017-12-18T18:36:53Z</time>
      </trkpt>
      <trkpt lat="62.632099449365" lon="17.973866739816">
        <ele>82.2</ele>
        <time>2017-12-18T18:36:54Z</time>
      </trkpt>
      <trkpt lat="62.632071621457" lon="17.973839414822">
        <ele>82.2</ele>
        <time>2017-12-18T18:36:55Z</time>
      </trkpt>
      <trkpt lat="62.632039015866" lon="17.973800858082">
        <ele>82.2</ele>
        <time>2017-12-18T18:36:56Z</time>
      </trkpt>
      <trkpt lat="62.632010098311" lon="17.973764815912">
        <ele>82.2</ele>
        <time>2017-12-18T18:36:57Z</time>
      </trkpt>
      <trkpt lat="62.6319791691" lon="17.973723660783">
        <ele>82.2</ele>
        <time>2017-12-18T18:36:58Z</time>
      </trkpt>
      <trkpt lat="62.631953604305" lon="17.973694072676">
        <ele>82</ele>
        <time>2017-12-18T18:36:59Z</time>
      </trkpt>
      <trkpt lat="62.631919992886" lon="17.973659706886">
        <ele>82</ele>
        <time>2017-12-18T18:37:00Z</time>
      </trkpt>
      <trkpt lat="62.631887554933" lon="17.973621988336">
        <ele>82.2</ele>
        <time>2017-12-18T18:37:01Z</time>
      </trkpt>
      <trkpt lat="62.631857212455" lon="17.973587203451">
        <ele>82</ele>
        <time>2017-12-18T18:37:02Z</time>
      </trkpt>
      <trkpt lat="62.631826786158" lon="17.973544371942">
        <ele>82</ele>
        <time>2017-12-18T18:37:03Z</time>
      </trkpt>
      <trkpt lat="62.631795689309" lon="17.97351017379">
        <ele>82</ele>
        <time>2017-12-18T18:37:04Z</time>
      </trkpt>
      <trkpt lat="62.631768112858" lon="17.973477149104">
        <ele>82</ele>
        <time>2017-12-18T18:37:05Z</time>
      </trkpt>
      <trkpt lat="62.631735088172" lon="17.973429036998">
        <ele>82</ele>
        <time>2017-12-18T18:37:06Z</time>
      </trkpt>
      <trkpt lat="62.631707763178" lon="17.973384612928">
        <ele>82</ele>
        <time>2017-12-18T18:37:07Z</time>
      </trkpt>
      <trkpt lat="62.631681444012" lon="17.973341027048">
        <ele>82</ele>
        <time>2017-12-18T18:37:08Z</time>
      </trkpt>
      <trkpt lat="62.631654035199" lon="17.973304062869">
        <ele>82</ele>
        <time>2017-12-18T18:37:09Z</time>
      </trkpt>
      <trkpt lat="62.631628302766" lon="17.973257543324">
        <ele>82</ele>
        <time>2017-12-18T18:37:10Z</time>
      </trkpt>
      <trkpt lat="62.631602654152" lon="17.973204653535">
        <ele>82</ele>
        <time>2017-12-18T18:37:11Z</time>
      </trkpt>
      <trkpt lat="62.63157432333" lon="17.973149584452">
        <ele>82</ele>
        <time>2017-12-18T18:37:12Z</time>
      </trkpt>
      <trkpt lat="62.631550770191" lon="17.973095521197">
        <ele>82</ele>
        <time>2017-12-18T18:37:13Z</time>
      </trkpt>
      <trkpt lat="62.631525121577" lon="17.973047157634">
        <ele>81.8</ele>
        <time>2017-12-18T18:37:14Z</time>
      </trkpt>
      <trkpt lat="62.631498718592" lon="17.972994770759">
        <ele>81.8</ele>
        <time>2017-12-18T18:37:15Z</time>
      </trkpt>
      <trkpt lat="62.631472818521" lon="17.972929391939">
        <ele>81.8</ele>
        <time>2017-12-18T18:37:16Z</time>
      </trkpt>
      <trkpt lat="62.631450857943" lon="17.972875580141">
        <ele>81.4</ele>
        <time>2017-12-18T18:37:17Z</time>
      </trkpt>
      <trkpt lat="62.63142764008" lon="17.972810704235">
        <ele>81.4</ele>
        <time>2017-12-18T18:37:18Z</time>
      </trkpt>
      <trkpt lat="62.631405260407" lon="17.972749600184">
        <ele>81.2</ele>
        <time>2017-12-18T18:37:19Z</time>
      </trkpt>
      <trkpt lat="62.63138237782" lon="17.972696542757">
        <ele>81</ele>
        <time>2017-12-18T18:37:20Z</time>
      </trkpt>
      <trkpt lat="62.631355723378" lon="17.97263677981">
        <ele>80.8</ele>
        <time>2017-12-18T18:37:21Z</time>
      </trkpt>
      <trkpt lat="62.631332589334" lon="17.972580788718">
        <ele>80.4</ele>
        <time>2017-12-18T18:37:22Z</time>
      </trkpt>
      <trkpt lat="62.631311215489" lon="17.972526557825">
        <ele>80.2</ele>
        <time>2017-12-18T18:37:23Z</time>
      </trkpt>
      <trkpt lat="62.631286991798" lon="17.972456820417">
        <ele>80</ele>
        <time>2017-12-18T18:37:24Z</time>
      </trkpt>
      <trkpt lat="62.631266456143" lon="17.972405104094">
        <ele>79.6</ele>
        <time>2017-12-18T18:37:25Z</time>
      </trkpt>
      <trkpt lat="62.631242148633" lon="17.97233503141">
        <ele>79.4</ele>
        <time>2017-12-18T18:37:26Z</time>
      </trkpt>
      <trkpt lat="62.631222870263" lon="17.972270826056">
        <ele>79.2</ele>
        <time>2017-12-18T18:37:27Z</time>
      </trkpt>
      <trkpt lat="62.631205016816" lon="17.97220511196">
        <ele>79</ele>
        <time>2017-12-18T18:37:28Z</time>
      </trkpt>
      <trkpt lat="62.631186492817" lon="17.972142666805">
        <ele>78.8</ele>
        <time>2017-12-18T18:37:29Z</time>
      </trkpt>
      <trkpt lat="62.631169142284" lon="17.972082652401">
        <ele>78.8</ele>
        <time>2017-12-18T18:37:30Z</time>
      </trkpt>
      <trkpt lat="62.631150450647" lon="17.972015764839">
        <ele>78.6</ele>
        <time>2017-12-18T18:37:31Z</time>
      </trkpt>
      <trkpt lat="62.631131088458" lon="17.971949547829">
        <ele>78.6</ele>
        <time>2017-12-18T18:37:32Z</time>
      </trkpt>
      <trkpt lat="62.631109714613" lon="17.971888946692">
        <ele>78.2</ele>
        <time>2017-12-18T18:37:33Z</time>
      </trkpt>
      <trkpt lat="62.631090268605" lon="17.971815688886">
        <ele>78.2</ele>
        <time>2017-12-18T18:37:34Z</time>
      </trkpt>
      <trkpt lat="62.631073001891" lon="17.971752740817">
        <ele>78</ele>
        <time>2017-12-18T18:37:35Z</time>
      </trkpt>
      <trkpt lat="62.631056405729" lon="17.971670849654">
        <ele>77.8</ele>
        <time>2017-12-18T18:37:36Z</time>
      </trkpt>
      <trkpt lat="62.63104291087" lon="17.971598681495">
        <ele>77.8</ele>
        <time>2017-12-18T18:37:37Z</time>
      </trkpt>
      <trkpt lat="62.631028494002" lon="17.971539253824">
        <ele>77.6</ele>
        <time>2017-12-18T18:37:38Z</time>
      </trkpt>
      <trkpt lat="62.631016675523" lon="17.971472785357">
        <ele>77.6</ele>
        <time>2017-12-18T18:37:39Z</time>
      </trkpt>
      <trkpt lat="62.631001588103" lon="17.971403718501">
        <ele>77.4</ele>
        <time>2017-12-18T18:37:40Z</time>
      </trkpt>
      <trkpt lat="62.630987255054" lon="17.971336914758">
        <ele>77.2</ele>
        <time>2017-12-18T18:37:41Z</time>
      </trkpt>
      <trkpt lat="62.63097250291" lon="17.971254353043">
        <ele>77</ele>
        <time>2017-12-18T18:37:42Z</time>
      </trkpt>
      <trkpt lat="62.630959175689" lon="17.971184112721">
        <ele>77</ele>
        <time>2017-12-18T18:37:43Z</time>
      </trkpt>
      <trkpt lat="62.630950039418" lon="17.971111190191">
        <ele>76.8</ele>
        <time>2017-12-18T18:37:44Z</time>
      </trkpt>
      <trkpt lat="62.630938640034" lon="17.971038854394">
        <ele>76.6</ele>
        <time>2017-12-18T18:37:45Z</time>
      </trkpt>
      <trkpt lat="62.630925145175" lon="17.97095369429">
        <ele>76.4</ele>
        <time>2017-12-18T18:37:46Z</time>
      </trkpt>
      <trkpt lat="62.630916930913" lon="17.970874317697">
        <ele>76.4</ele>
        <time>2017-12-18T18:37:47Z</time>
      </trkpt>
      <trkpt lat="62.630907794642" lon="17.970790079602">
        <ele>76.2</ele>
        <time>2017-12-18T18:37:48Z</time>
      </trkpt>
      <trkpt lat="62.630895305611" lon="17.97069804634">
        <ele>76.2</ele>
        <time>2017-12-18T18:37:49Z</time>
      </trkpt>
      <trkpt lat="62.630886420797" lon="17.970616155177">
        <ele>76</ele>
        <time>2017-12-18T18:37:50Z</time>
      </trkpt>
      <trkpt lat="62.630874267042" lon="17.970533342005">
        <ele>75.8</ele>
        <time>2017-12-18T18:37:51Z</time>
      </trkpt>
      <trkpt lat="62.630865968961" lon="17.97045161848">
        <ele>75.6</ele>
        <time>2017-12-18T18:37:52Z</time>
      </trkpt>
      <trkpt lat="62.630860017812" lon="17.970383222176">
        <ele>75.4</ele>
        <time>2017-12-18T18:37:53Z</time>
      </trkpt>
      <trkpt lat="62.630854569577" lon="17.970296050416">
        <ele>75.4</ele>
        <time>2017-12-18T18:37:54Z</time>
      </trkpt>
      <trkpt lat="62.630851132998" lon="17.970189767924">
        <ele>75</ele>
        <time>2017-12-18T18:37:56Z</time>
      </trkpt>
      <trkpt lat="62.630851719731" lon="17.970158084342">
        <ele>74.8</ele>
        <time>2017-12-18T18:37:57Z</time>
      </trkpt>
      <trkpt lat="62.630853563749" lon="17.970135704669">
        <ele>75</ele>
        <time>2017-12-18T18:37:58Z</time>
      </trkpt>
      <trkpt lat="62.630861694192" lon="17.970111983892">
        <ele>74.8</ele>
        <time>2017-12-18T18:37:59Z</time>
      </trkpt>
      <trkpt lat="62.630869824635" lon="17.970091699694">
        <ele>74.8</ele>
        <time>2017-12-18T18:38:00Z</time>
      </trkpt>
      <trkpt lat="62.63087778744" lon="17.97007862393">
        <ele>74.6</ele>
        <time>2017-12-18T18:38:01Z</time>
      </trkpt>
      <trkpt lat="62.630886756073" lon="17.970072672781">
        <ele>74.6</ele>
        <time>2017-12-18T18:38:02Z</time>
      </trkpt>
      <trkpt lat="62.630896311439" lon="17.970068900926">
        <ele>74.8</ele>
        <time>2017-12-18T18:38:03Z</time>
      </trkpt>
      <trkpt lat="62.630902262588" lon="17.970084742717">
        <ele>74.6</ele>
        <time>2017-12-18T18:38:04Z</time>
      </trkpt>
      <trkpt lat="62.630906034443" lon="17.970102344707">
        <ele>74.4</ele>
        <time>2017-12-18T18:38:05Z</time>
      </trkpt>
      <trkpt lat="62.630905531529" lon="17.970119611421">
        <ele>74.4</ele>
        <time>2017-12-18T18:38:06Z</time>
      </trkpt>
      <trkpt lat="62.630901089122" lon="17.970132435728">
        <ele>74.2</ele>
        <time>2017-12-18T18:38:07Z</time>
      </trkpt>
      <trkpt lat="62.630895305611" lon="17.970139979438">
        <ele>74</ele>
        <time>2017-12-18T18:38:08Z</time>
      </trkpt>
      <trkpt lat="62.630889019186" lon="17.97014903189">
        <ele>73.8</ele>
        <time>2017-12-18T18:38:09Z</time>
      </trkpt>
      <trkpt lat="62.630885079693" lon="17.970152971383">
        <ele>73.8</ele>
        <time>2017-12-18T18:38:10Z</time>
      </trkpt>
      <trkpt lat="62.63088030201" lon="17.970164454586">
        <ele>73.8</ele>
        <time>2017-12-18T18:38:11Z</time>
      </trkpt>
      <trkpt lat="62.630875691965" lon="17.970175518694">
        <ele>73.8</ele>
        <time>2017-12-18T18:38:12Z</time>
      </trkpt>
      <trkpt lat="62.630874686137" lon="17.970184990241">
        <ele>73.8</ele>
        <time>2017-12-18T18:38:13Z</time>
      </trkpt>
      <trkpt lat="62.630871501015" lon="17.970195551435">
        <ele>73.8</ele>
        <time>2017-12-18T18:38:14Z</time>
      </trkpt>
      <trkpt lat="62.630867142427" lon="17.970203346602">
        <ele>73.8</ele>
        <time>2017-12-18T18:38:15Z</time>
      </trkpt>
      <trkpt lat="62.630861526554" lon="17.970211393226">
        <ele>73.8</ele>
        <time>2017-12-18T18:38:16Z</time>
      </trkpt>
      <trkpt lat="62.630870579006" lon="17.970192282494">
        <ele>73.8</ele>
        <time>2017-12-18T18:38:17Z</time>
      </trkpt>
      <trkpt lat="62.631221612978" lon="17.969971167972">
        <ele>73.6</ele>
        <time>2017-12-18T18:41:21Z</time>
      </trkpt>
      <trkpt lat="62.631253212741" lon="17.969952476335">
        <ele>73.6</ele>
        <time>2017-12-18T18:41:22Z</time>
      </trkpt>
      <trkpt lat="62.631286991798" lon="17.969943926797">
        <ele>73.6</ele>
        <time>2017-12-18T18:41:23Z</time>
      </trkpt>
      <trkpt lat="62.631326302909" lon="17.969929845205">
        <ele>73.4</ele>
        <time>2017-12-18T18:41:24Z</time>
      </trkpt>
      <trkpt lat="62.631355974835" lon="17.96991852964">
        <ele>73.4</ele>
        <time>2017-12-18T18:41:25Z</time>
      </trkpt>
      <trkpt lat="62.63139327429" lon="17.969898832175">
        <ele>73.2</ele>
        <time>2017-12-18T18:41:26Z</time>
      </trkpt>
      <trkpt lat="62.631425628424" lon="17.96988332566">
        <ele>73.2</ele>
        <time>2017-12-18T18:41:27Z</time>
      </trkpt>
      <trkpt lat="62.631458317834" lon="17.96986572367">
        <ele>73</ele>
        <time>2017-12-18T18:41:28Z</time>
      </trkpt>
      <trkpt lat="62.631491929253" lon="17.969848792232">
        <ele>73</ele>
        <time>2017-12-18T18:41:29Z</time>
      </trkpt>
      <trkpt lat="62.631523277559" lon="17.969828591853">
        <ele>73</ele>
        <time>2017-12-18T18:41:30Z</time>
      </trkpt>
      <trkpt lat="62.631560996109" lon="17.969820712867">
        <ele>73</ele>
        <time>2017-12-18T18:41:31Z</time>
      </trkpt>
      <trkpt lat="62.631591757682" lon="17.96980621218">
        <ele>73</ele>
        <time>2017-12-18T18:41:32Z</time>
      </trkpt>
      <trkpt lat="62.631628386585" lon="17.969782575222">
        <ele>73</ele>
        <time>2017-12-18T18:41:33Z</time>
      </trkpt>
      <trkpt lat="62.631655879217" lon="17.969754160581">
        <ele>73.2</ele>
        <time>2017-12-18T18:41:34Z</time>
      </trkpt>
      <trkpt lat="62.631684042401" lon="17.969720130067">
        <ele>73</ele>
        <time>2017-12-18T18:41:35Z</time>
      </trkpt>
      <trkpt lat="62.631717318544" lon="17.96968216006">
        <ele>72.8</ele>
        <time>2017-12-18T18:41:36Z</time>
      </trkpt>
      <trkpt lat="62.631750175592" lon="17.969642681311">
        <ele>72.8</ele>
        <time>2017-12-18T18:41:37Z</time>
      </trkpt>
      <trkpt lat="62.63177716531" lon="17.969609153711">
        <ele>72.6</ele>
        <time>2017-12-18T18:41:38Z</time>
      </trkpt>
      <trkpt lat="62.631809770901" lon="17.969587025495">
        <ele>72.4</ele>
        <time>2017-12-18T18:41:39Z</time>
      </trkpt>
      <trkpt lat="62.631837347352" lon="17.969602448191">
        <ele>72.2</ele>
        <time>2017-12-18T18:41:40Z</time>
      </trkpt>
      <trkpt lat="62.631863582699" lon="17.969602783467">
        <ele>72.2</ele>
        <time>2017-12-18T18:41:41Z</time>
      </trkpt>
      <trkpt lat="62.63189199734" lon="17.969604459847">
        <ele>72</ele>
        <time>2017-12-18T18:41:42Z</time>
      </trkpt>
      <trkpt lat="62.631920663438" lon="17.96960253201">
        <ele>72</ele>
        <time>2017-12-18T18:41:43Z</time>
      </trkpt>
      <trkpt lat="62.631950922097" lon="17.969606890598">
        <ele>72</ele>
        <time>2017-12-18T18:41:44Z</time>
      </trkpt>
      <trkpt lat="62.63197665453" lon="17.969603956933">
        <ele>72</ele>
        <time>2017-12-18T18:41:45Z</time>
      </trkpt>
      <trkpt lat="62.632010768863" lon="17.969603956933">
        <ele>72.4</ele>
        <time>2017-12-18T18:41:46Z</time>
      </trkpt>
      <trkpt lat="62.632039434961" lon="17.969602615829">
        <ele>72.6</ele>
        <time>2017-12-18T18:41:47Z</time>
      </trkpt>
      <trkpt lat="62.632072543466" lon="17.969584343287">
        <ele>72.6</ele>
        <time>2017-12-18T18:41:48Z</time>
      </trkpt>
      <trkpt lat="62.632103724134" lon="17.969576715758">
        <ele>72.8</ele>
        <time>2017-12-18T18:41:49Z</time>
      </trkpt>
      <trkpt lat="62.632135156259" lon="17.969560957786">
        <ele>72.8</ele>
        <time>2017-12-18T18:41:50Z</time>
      </trkpt>
      <trkpt lat="62.632171030791" lon="17.969552072972">
        <ele>72.8</ele>
        <time>2017-12-18T18:41:51Z</time>
      </trkpt>
      <trkpt lat="62.632200870355" lon="17.96954804966">
        <ele>72.6</ele>
        <time>2017-12-18T18:41:52Z</time>
      </trkpt>
      <trkpt lat="62.632230207005" lon="17.969539835398">
        <ele>72.6</ele>
        <time>2017-12-18T18:41:53Z</time>
      </trkpt>
      <trkpt lat="62.632260214207" lon="17.969528687471">
        <ele>72.6</ele>
        <time>2017-12-18T18:41:54Z</time>
      </trkpt>
      <trkpt lat="62.632292735979" lon="17.969523155417">
        <ele>72.6</ele>
        <time>2017-12-18T18:41:55Z</time>
      </trkpt>
      <trkpt lat="62.63232534157" lon="17.96952122758">
        <ele>72.6</ele>
        <time>2017-12-18T18:41:56Z</time>
      </trkpt>
      <trkpt lat="62.632358366256" lon="17.969519467381">
        <ele>72.6</ele>
        <time>2017-12-18T18:41:57Z</time>
      </trkpt>
      <trkpt lat="62.632388457277" lon="17.969524915616">
        <ele>72.6</ele>
        <time>2017-12-18T18:41:58Z</time>
      </trkpt>
      <trkpt lat="62.632418045384" lon="17.969530280032">
        <ele>72.8</ele>
        <time>2017-12-18T18:41:59Z</time>
      </trkpt>
      <trkpt lat="62.632450902432" lon="17.969533968068">
        <ele>72.6</ele>
        <time>2017-12-18T18:42:00Z</time>
      </trkpt>
      <trkpt lat="62.632482334557" lon="17.969530112394">
        <ele>72.6</ele>
        <time>2017-12-18T18:42:01Z</time>
      </trkpt>
      <trkpt lat="62.632513263768" lon="17.969545786547">
        <ele>72.8</ele>
        <time>2017-12-18T18:42:02Z</time>
      </trkpt>
      <trkpt lat="62.632542935694" lon="17.969548720212">
        <ele>72.6</ele>
        <time>2017-12-18T18:42:03Z</time>
      </trkpt>
      <trkpt lat="62.632575289828" lon="17.969555174275">
        <ele>72.6</ele>
        <time>2017-12-18T18:42:04Z</time>
      </trkpt>
      <trkpt lat="62.632600016433" lon="17.969558359397">
        <ele>72.8</ele>
        <time>2017-12-18T18:42:05Z</time>
      </trkpt>
      <trkpt lat="62.632636729155" lon="17.969565232555">
        <ele>72.8</ele>
        <time>2017-12-18T18:42:06Z</time>
      </trkpt>
      <trkpt lat="62.632667071633" lon="17.969571099885">
        <ele>72.8</ele>
        <time>2017-12-18T18:42:07Z</time>
      </trkpt>
      <trkpt lat="62.632692049695" lon="17.96957570993">
        <ele>72.8</ele>
        <time>2017-12-18T18:42:08Z</time>
      </trkpt>
      <trkpt lat="62.632724822924" lon="17.969586522581">
        <ele>72.8</ele>
        <time>2017-12-18T18:42:09Z</time>
      </trkpt>
      <trkpt lat="62.632748543701" lon="17.969590964988">
        <ele>72.8</ele>
        <time>2017-12-18T18:42:10Z</time>
      </trkpt>
      <trkpt lat="62.632780227283" lon="17.969602280553">
        <ele>72.8</ele>
        <time>2017-12-18T18:42:11Z</time>
      </trkpt>
      <trkpt lat="62.632810402123" lon="17.96960923753">
        <ele>72.8</ele>
        <time>2017-12-18T18:42:12Z</time>
      </trkpt>
      <trkpt lat="62.63284166661" lon="17.969608231702">
        <ele>72.8</ele>
        <time>2017-12-18T18:42:13Z</time>
      </trkpt>
      <trkpt lat="62.632871087079" lon="17.969614769584">
        <ele>73</ele>
        <time>2017-12-18T18:42:14Z</time>
      </trkpt>
      <trkpt lat="62.63289866353" lon="17.969612003557">
        <ele>73</ele>
        <time>2017-12-18T18:42:15Z</time>
      </trkpt>
      <trkpt lat="62.632931772035" lon="17.96961845762">
        <ele>73</ele>
        <time>2017-12-18T18:42:16Z</time>
      </trkpt>
      <trkpt lat="62.632956414821" lon="17.969624827864">
        <ele>73.2</ele>
        <time>2017-12-18T18:42:17Z</time>
      </trkpt>
      <trkpt lat="62.632989607145" lon="17.969630443737">
        <ele>73.2</ele>
        <time>2017-12-18T18:42:18Z</time>
      </trkpt>
      <trkpt lat="62.63302020108" lon="17.969635137601">
        <ele>73.4</ele>
        <time>2017-12-18T18:42:19Z</time>
      </trkpt>
      <trkpt lat="62.633049118635" lon="17.969643268044">
        <ele>73.4</ele>
        <time>2017-12-18T18:42:20Z</time>
      </trkpt>
      <trkpt lat="62.63308306533" lon="17.969641507845">
        <ele>73.6</ele>
        <time>2017-12-18T18:42:21Z</time>
      </trkpt>
      <trkpt lat="62.633111731428" lon="17.969647375175">
        <ele>73.6</ele>
        <time>2017-12-18T18:42:22Z</time>
      </trkpt>
      <trkpt lat="62.633138721146" lon="17.969658774559">
        <ele>73.8</ele>
        <time>2017-12-18T18:42:23Z</time>
      </trkpt>
      <trkpt lat="62.633166632873" lon="17.969670928314">
        <ele>73.8</ele>
        <time>2017-12-18T18:42:24Z</time>
      </trkpt>
      <trkpt lat="62.633197310627" lon="17.969675119264">
        <ele>73.8</ele>
        <time>2017-12-18T18:42:25Z</time>
      </trkpt>
      <trkpt lat="62.633228658933" lon="17.969682914431">
        <ele>73.8</ele>
        <time>2017-12-18T18:42:26Z</time>
      </trkpt>
      <trkpt lat="62.63325740885" lon="17.969691966883">
        <ele>73.8</ele>
        <time>2017-12-18T18:42:27Z</time>
      </trkpt>
      <trkpt lat="62.633284398568" lon="17.969707976312">
        <ele>73.8</ele>
        <time>2017-12-18T18:42:28Z</time>
      </trkpt>
      <trkpt lat="62.633306442965" lon="17.969733792564">
        <ele>73.8</ele>
        <time>2017-12-18T18:42:29Z</time>
      </trkpt>
      <trkpt lat="62.63332362586" lon="17.969777629901">
        <ele>73.8</ele>
        <time>2017-12-18T18:42:30Z</time>
      </trkpt>
      <trkpt lat="62.633339719108" lon="17.96982297598">
        <ele>73.8</ele>
        <time>2017-12-18T18:42:31Z</time>
      </trkpt>
      <trkpt lat="62.633348939198" lon="17.969882571289">
        <ele>74</ele>
        <time>2017-12-18T18:42:32Z</time>
      </trkpt>
      <trkpt lat="62.633352291958" lon="17.96994032258">
        <ele>74</ele>
        <time>2017-12-18T18:42:33Z</time>
      </trkpt>
      <trkpt lat="62.633356734365" lon="17.970000839898">
        <ele>74.2</ele>
        <time>2017-12-18T18:42:34Z</time>
      </trkpt>
      <trkpt lat="62.633363188428" lon="17.970055573705">
        <ele>74.4</ele>
        <time>2017-12-18T18:42:35Z</time>
      </trkpt>
      <trkpt lat="62.63336553536" lon="17.970115755747">
        <ele>74.4</ele>
        <time>2017-12-18T18:42:36Z</time>
      </trkpt>
      <trkpt lat="62.633368636663" lon="17.970178284721">
        <ele>74.4</ele>
        <time>2017-12-18T18:42:37Z</time>
      </trkpt>
      <trkpt lat="62.633372492337" lon="17.970231845062">
        <ele>74.6</ele>
        <time>2017-12-18T18:42:38Z</time>
      </trkpt>
      <trkpt lat="62.633385987196" lon="17.970294206398">
        <ele>74.6</ele>
        <time>2017-12-18T18:42:39Z</time>
      </trkpt>
      <trkpt lat="62.633394955829" lon="17.970347012368">
        <ele>74.8</ele>
        <time>2017-12-18T18:42:40Z</time>
      </trkpt>
      <trkpt lat="62.633405097928" lon="17.970408703152">
        <ele>74.8</ele>
        <time>2017-12-18T18:42:41Z</time>
      </trkpt>
      <trkpt lat="62.633410881439" lon="17.970480200759">
        <ele>75</ele>
        <time>2017-12-18T18:42:42Z</time>
      </trkpt>
      <trkpt lat="62.633415575303" lon="17.970538706421">
        <ele>75.2</ele>
        <time>2017-12-18T18:42:43Z</time>
      </trkpt>
      <trkpt lat="62.633417754597" lon="17.970600061929">
        <ele>75.4</ele>
        <time>2017-12-18T18:42:44Z</time>
      </trkpt>
      <trkpt lat="62.633419598615" lon="17.970658232315">
        <ele>75.4</ele>
        <time>2017-12-18T18:42:45Z</time>
      </trkpt>
      <trkpt lat="62.633426890868" lon="17.970719252547">
        <ele>75.6</ele>
        <time>2017-12-18T18:42:46Z</time>
      </trkpt>
      <trkpt lat="62.633428148153" lon="17.970777842028">
        <ele>75.8</ele>
        <time>2017-12-18T18:42:47Z</time>
      </trkpt>
      <trkpt lat="62.633431668551" lon="17.970840706278">
        <ele>75.8</ele>
        <time>2017-12-18T18:42:48Z</time>
      </trkpt>
      <trkpt lat="62.633432255284" lon="17.970899966311">
        <ele>76</ele>
        <time>2017-12-18T18:42:49Z</time>
      </trkpt>
      <trkpt lat="62.63343175237" lon="17.970956292679">
        <ele>76.2</ele>
        <time>2017-12-18T18:42:50Z</time>
      </trkpt>
      <trkpt lat="62.633433680207" lon="17.971012702866">
        <ele>76.2</ele>
        <time>2017-12-18T18:42:51Z</time>
      </trkpt>
      <trkpt lat="62.633431500913" lon="17.971073471641">
        <ele>76.2</ele>
        <time>2017-12-18T18:42:52Z</time>
      </trkpt>
      <trkpt lat="62.633433009655" lon="17.971112363657">
        <ele>76.4</ele>
        <time>2017-12-18T18:42:53Z</time>
      </trkpt>
      <trkpt lat="62.633433764026" lon="17.971197356123">
        <ele>76.6</ele>
        <time>2017-12-18T18:42:54Z</time>
      </trkpt>
      <trkpt lat="62.633431668551" lon="17.971252844301">
        <ele>76.6</ele>
        <time>2017-12-18T18:42:55Z</time>
      </trkpt>
      <trkpt lat="62.633431500913" lon="17.971315876189">
        <ele>76.6</ele>
        <time>2017-12-18T18:42:56Z</time>
      </trkpt>
      <trkpt lat="62.633426387954" lon="17.971380500638">
        <ele>76.6</ele>
        <time>2017-12-18T18:42:57Z</time>
      </trkpt>
      <trkpt lat="62.63342756142" lon="17.971442526698">
        <ele>76.8</ele>
        <time>2017-12-18T18:42:58Z</time>
      </trkpt>
      <trkpt lat="62.633425382126" lon="17.971504552758">
        <ele>76.8</ele>
        <time>2017-12-18T18:42:59Z</time>
      </trkpt>
      <trkpt lat="62.633423454289" lon="17.971566159723">
        <ele>76.8</ele>
        <time>2017-12-18T18:43:00Z</time>
      </trkpt>
      <trkpt lat="62.633421777909" lon="17.971628521059">
        <ele>76.8</ele>
        <time>2017-12-18T18:43:01Z</time>
      </trkpt>
      <trkpt lat="62.633418257511" lon="17.971697085001">
        <ele>77</ele>
        <time>2017-12-18T18:43:02Z</time>
      </trkpt>
      <trkpt lat="62.633414820932" lon="17.971754920111">
        <ele>77.2</ele>
        <time>2017-12-18T18:43:03Z</time>
      </trkpt>
      <trkpt lat="62.633410546163" lon="17.971809653918">
        <ele>77.2</ele>
        <time>2017-12-18T18:43:04Z</time>
      </trkpt>
      <trkpt lat="62.63340493029" lon="17.971859945318">
        <ele>77.4</ele>
        <time>2017-12-18T18:43:05Z</time>
      </trkpt>
      <trkpt lat="62.633400906978" lon="17.971927503432">
        <ele>77.6</ele>
        <time>2017-12-18T18:43:06Z</time>
      </trkpt>
      <trkpt lat="62.633394955829" lon="17.971988942759">
        <ele>77.6</ele>
        <time>2017-12-18T18:43:07Z</time>
      </trkpt>
      <trkpt lat="62.633391351612" lon="17.972039066521">
        <ele>77.8</ele>
        <time>2017-12-18T18:43:08Z</time>
      </trkpt>
      <trkpt lat="62.633382802074" lon="17.972104110065">
        <ele>78</ele>
        <time>2017-12-18T18:43:09Z</time>
      </trkpt>
      <trkpt lat="62.633375258364" lon="17.972163034822">
        <ele>78</ele>
        <time>2017-12-18T18:43:10Z</time>
      </trkpt>
      <trkpt lat="62.633369977767" lon="17.972215673154">
        <ele>78.2</ele>
        <time>2017-12-18T18:43:11Z</time>
      </trkpt>
      <trkpt lat="62.633361847324" lon="17.972280129965">
        <ele>78.2</ele>
        <time>2017-12-18T18:43:12Z</time>
      </trkpt>
      <trkpt lat="62.633354890347" lon="17.972335282867">
        <ele>78.4</ele>
        <time>2017-12-18T18:43:13Z</time>
      </trkpt>
      <trkpt lat="62.633349190655" lon="17.972398650031">
        <ele>78.4</ele>
        <time>2017-12-18T18:43:14Z</time>
      </trkpt>
      <trkpt lat="62.633340222022" lon="17.972457993883">
        <ele>78.4</ele>
        <time>2017-12-18T18:43:15Z</time>
      </trkpt>
      <trkpt lat="62.633328822638" lon="17.972522031599">
        <ele>78.6</ele>
        <time>2017-12-18T18:43:16Z</time>
      </trkpt>
      <trkpt lat="62.633317255616" lon="17.972575424302">
        <ele>78.6</ele>
        <time>2017-12-18T18:43:17Z</time>
      </trkpt>
      <trkpt lat="62.633307364974" lon="17.972626972987">
        <ele>78.8</ele>
        <time>2017-12-18T18:43:18Z</time>
      </trkpt>
      <trkpt lat="62.633296217047" lon="17.972686987391">
        <ele>78.6</ele>
        <time>2017-12-18T18:43:19Z</time>
      </trkpt>
      <trkpt lat="62.633284314749" lon="17.972739374266">
        <ele>78.8</ele>
        <time>2017-12-18T18:43:20Z</time>
      </trkpt>
      <trkpt lat="62.633272160994" lon="17.972793688978">
        <ele>78.8</ele>
        <time>2017-12-18T18:43:21Z</time>
      </trkpt>
      <trkpt lat="62.63325992342" lon="17.972857307599">
        <ele>79</ele>
        <time>2017-12-18T18:43:22Z</time>
      </trkpt>
      <trkpt lat="62.633247434389" lon="17.972915813261">
        <ele>79</ele>
        <time>2017-12-18T18:43:23Z</time>
      </trkpt>
      <trkpt lat="62.633233268978" lon="17.972974402742">
        <ele>79.2</ele>
        <time>2017-12-18T18:43:24Z</time>
      </trkpt>
      <trkpt lat="62.633218600653" lon="17.973031651119">
        <ele>79.4</ele>
        <time>2017-12-18T18:43:25Z</time>
      </trkpt>
      <trkpt lat="62.63320376469" lon="17.973089067134">
        <ele>79.6</ele>
        <time>2017-12-18T18:43:26Z</time>
      </trkpt>
      <trkpt lat="62.633189850736" lon="17.973146734606">
        <ele>79.6</ele>
        <time>2017-12-18T18:43:27Z</time>
      </trkpt>
      <trkpt lat="62.6331777808" lon="17.973202641879">
        <ele>79.8</ele>
        <time>2017-12-18T18:43:28Z</time>
      </trkpt>
      <trkpt lat="62.633168057796" lon="17.973252681822">
        <ele>79.8</ele>
        <time>2017-12-18T18:43:29Z</time>
      </trkpt>
      <trkpt lat="62.633153640928" lon="17.973316384262">
        <ele>79.8</ele>
        <time>2017-12-18T18:43:30Z</time>
      </trkpt>
      <trkpt lat="62.633137212404" lon="17.973375811933">
        <ele>80</ele>
        <time>2017-12-18T18:43:31Z</time>
      </trkpt>
      <trkpt lat="62.633122963174" lon="17.973436077794">
        <ele>80.2</ele>
        <time>2017-12-18T18:43:32Z</time>
      </trkpt>
      <trkpt lat="62.633108294849" lon="17.973490811601">
        <ele>80.2</ele>
        <time>2017-12-18T18:43:33Z</time>
      </trkpt>
      <trkpt lat="62.633096644008" lon="17.973544874856">
        <ele>80.2</ele>
        <time>2017-12-18T18:43:34Z</time>
      </trkpt>
      <trkpt lat="62.63308390352" lon="17.973600027758">
        <ele>80.2</ele>
        <time>2017-12-18T18:43:35Z</time>
      </trkpt>
      <trkpt lat="62.633068899919" lon="17.973656773221">
        <ele>80.4</ele>
        <time>2017-12-18T18:43:36Z</time>
      </trkpt>
      <trkpt lat="62.63305372868" lon="17.973716117073">
        <ele>80.4</ele>
        <time>2017-12-18T18:43:37Z</time>
      </trkpt>
      <trkpt lat="62.633043754219" lon="17.973767581939">
        <ele>80.6</ele>
        <time>2017-12-18T18:43:38Z</time>
      </trkpt>
      <trkpt lat="62.633030762274" lon="17.973827680162">
        <ele>80.6</ele>
        <time>2017-12-18T18:43:39Z</time>
      </trkpt>
      <trkpt lat="62.633017267415" lon="17.973886353462">
        <ele>80.8</ele>
        <time>2017-12-18T18:43:40Z</time>
      </trkpt>
      <trkpt lat="62.633004694565" lon="17.973945110581">
        <ele>80.8</ele>
        <time>2017-12-18T18:43:41Z</time>
      </trkpt>
      <trkpt lat="62.632988936593" lon="17.974010405582">
        <ele>80.8</ele>
        <time>2017-12-18T18:43:42Z</time>
      </trkpt>
      <trkpt lat="62.632976028467" lon="17.974069917072">
        <ele>80.8</ele>
        <time>2017-12-18T18:43:43Z</time>
      </trkpt>
      <trkpt lat="62.632962198332" lon="17.974134876797">
        <ele>81</ele>
        <time>2017-12-18T18:43:44Z</time>
      </trkpt>
      <trkpt lat="62.632946356541" lon="17.974197992504">
        <ele>81.2</ele>
        <time>2017-12-18T18:43:45Z</time>
      </trkpt>
      <trkpt lat="62.632931772035" lon="17.974262700772">
        <ele>81.2</ele>
        <time>2017-12-18T18:43:46Z</time>
      </trkpt>
      <trkpt lat="62.632910230552" lon="17.974313914181">
        <ele>81.2</ele>
        <time>2017-12-18T18:43:47Z</time>
      </trkpt>
      <trkpt lat="62.632893382933" lon="17.974370240549">
        <ele>81.4</ele>
        <time>2017-12-18T18:43:48Z</time>
      </trkpt>
      <trkpt lat="62.63287435602" lon="17.974424219985">
        <ele>81.4</ele>
        <time>2017-12-18T18:43:49Z</time>
      </trkpt>
      <trkpt lat="62.632851808709" lon="17.974461603259">
        <ele>81.4</ele>
        <time>2017-12-18T18:43:50Z</time>
      </trkpt>
      <trkpt lat="62.632826914466" lon="17.974498232162">
        <ele>81.6</ele>
        <time>2017-12-18T18:43:51Z</time>
      </trkpt>
      <trkpt lat="62.632793722142" lon="17.974514912143">
        <ele>81.6</ele>
        <time>2017-12-18T18:43:52Z</time>
      </trkpt>
      <trkpt lat="62.63276790589" lon="17.974514912143">
        <ele>81.6</ele>
        <time>2017-12-18T18:43:53Z</time>
      </trkpt>
      <trkpt lat="62.632730271159" lon="17.974497729248">
        <ele>81.8</ele>
        <time>2017-12-18T18:43:54Z</time>
      </trkpt>
      <trkpt lat="62.632704957821" lon="17.97447493048">
        <ele>81.8</ele>
        <time>2017-12-18T18:43:55Z</time>
      </trkpt>
      <trkpt lat="62.632669921479" lon="17.974448862771">
        <ele>81.8</ele>
        <time>2017-12-18T18:43:56Z</time>
      </trkpt>
      <trkpt lat="62.632642345028" lon="17.974418520293">
        <ele>81.8</ele>
        <time>2017-12-18T18:43:57Z</time>
      </trkpt>
      <trkpt lat="62.632616696414" lon="17.974398068457">
        <ele>81.8</ele>
        <time>2017-12-18T18:43:58Z</time>
      </trkpt>
      <trkpt lat="62.632589036144" lon="17.974361104278">
        <ele>81.8</ele>
        <time>2017-12-18T18:43:59Z</time>
      </trkpt>
      <trkpt lat="62.632562968435" lon="17.974339059881">
        <ele>81.8</ele>
        <time>2017-12-18T18:44:00Z</time>
      </trkpt>
      <trkpt lat="62.632533883242" lon="17.974308633584">
        <ele>81.8</ele>
        <time>2017-12-18T18:44:01Z</time>
      </trkpt>
      <trkpt lat="62.63250471423" lon="17.974277285278">
        <ele>81.8</ele>
        <time>2017-12-18T18:44:02Z</time>
      </trkpt>
      <trkpt lat="62.632478478883" lon="17.974244176773">
        <ele>81.8</ele>
        <time>2017-12-18T18:44:03Z</time>
      </trkpt>
      <trkpt lat="62.632451237708" lon="17.974217941426">
        <ele>81.8</ele>
        <time>2017-12-18T18:44:04Z</time>
      </trkpt>
      <trkpt lat="62.632428774216" lon="17.974194304468">
        <ele>81.8</ele>
        <time>2017-12-18T18:44:05Z</time>
      </trkpt>
      <trkpt lat="62.63239910229" lon="17.97416899113">
        <ele>81.8</ele>
        <time>2017-12-18T18:44:06Z</time>
      </trkpt>
      <trkpt lat="62.632370436192" lon="17.974130602028">
        <ele>81.8</ele>
        <time>2017-12-18T18:44:07Z</time>
      </trkpt>
      <trkpt lat="62.632342608284" lon="17.974101516835">
        <ele>81.6</ele>
        <time>2017-12-18T18:44:08Z</time>
      </trkpt>
      <trkpt lat="62.632309499779" lon="17.974069833253">
        <ele>81.6</ele>
        <time>2017-12-18T18:44:09Z</time>
      </trkpt>
      <trkpt lat="62.632282090966" lon="17.974053572367">
        <ele>81.6</ele>
        <time>2017-12-18T18:44:10Z</time>
      </trkpt>
      <trkpt lat="62.63225325723" lon="17.974027588477">
        <ele>81.6</ele>
        <time>2017-12-18T18:44:11Z</time>
      </trkpt>
      <trkpt lat="62.632228865901" lon="17.973994144696">
        <ele>81.4</ele>
        <time>2017-12-18T18:44:12Z</time>
      </trkpt>
      <trkpt lat="62.632202630554" lon="17.973966819702">
        <ele>81.4</ele>
        <time>2017-12-18T18:44:13Z</time>
      </trkpt>
      <trkpt lat="62.632170946972" lon="17.973933795016">
        <ele>81.4</ele>
        <time>2017-12-18T18:44:14Z</time>
      </trkpt>
      <trkpt lat="62.632145801272" lon="17.973907559669">
        <ele>81.4</ele>
        <time>2017-12-18T18:44:15Z</time>
      </trkpt>
      <trkpt lat="62.632111184025" lon="17.973867410368">
        <ele>81.4</ele>
        <time>2017-12-18T18:44:16Z</time>
      </trkpt>
      <trkpt lat="62.632086625058" lon="17.973832374026">
        <ele>81.4</ele>
        <time>2017-12-18T18:44:17Z</time>
      </trkpt>
      <trkpt lat="62.632055863485" lon="17.973797840598">
        <ele>81.4</ele>
        <time>2017-12-18T18:44:18Z</time>
      </trkpt>
      <trkpt lat="62.632022419704" lon="17.973762133704">
        <ele>81.4</ele>
        <time>2017-12-18T18:44:19Z</time>
      </trkpt>
      <trkpt lat="62.631996435814" lon="17.973737490918">
        <ele>81.6</ele>
        <time>2017-12-18T18:44:20Z</time>
      </trkpt>
      <trkpt lat="62.631960477463" lon="17.973696419608">
        <ele>81.6</ele>
        <time>2017-12-18T18:44:21Z</time>
      </trkpt>
      <trkpt lat="62.63193139227" lon="17.973667669691">
        <ele>81.4</ele>
        <time>2017-12-18T18:44:22Z</time>
      </trkpt>
      <trkpt lat="62.631902139439" lon="17.973631459883">
        <ele>81.4</ele>
        <time>2017-12-18T18:44:23Z</time>
      </trkpt>
      <trkpt lat="62.631868779477" lon="17.973590472392">
        <ele>81.6</ele>
        <time>2017-12-18T18:44:24Z</time>
      </trkpt>
      <trkpt lat="62.631842460311" lon="17.973558202077">
        <ele>81.4</ele>
        <time>2017-12-18T18:44:25Z</time>
      </trkpt>
      <trkpt lat="62.631807423969" lon="17.973515873482">
        <ele>81.6</ele>
        <time>2017-12-18T18:44:26Z</time>
      </trkpt>
      <trkpt lat="62.631780015156" lon="17.973485614823">
        <ele>81.4</ele>
        <time>2017-12-18T18:44:27Z</time>
      </trkpt>
      <trkpt lat="62.631746739013" lon="17.97344144221">
        <ele>81.4</ele>
        <time>2017-12-18T18:44:28Z</time>
      </trkpt>
      <trkpt lat="62.631720252209" lon="17.973406489687">
        <ele>81.4</ele>
        <time>2017-12-18T18:44:29Z</time>
      </trkpt>
      <trkpt lat="62.631689742093" lon="17.973366172748">
        <ele>81.4</ele>
        <time>2017-12-18T18:44:30Z</time>
      </trkpt>
      <trkpt lat="62.63165730414" lon="17.9733165519">
        <ele>81.4</ele>
        <time>2017-12-18T18:44:31Z</time>
      </trkpt>
      <trkpt lat="62.631630314422" lon="17.973271876373">
        <ele>81.2</ele>
        <time>2017-12-18T18:44:32Z</time>
      </trkpt>
      <trkpt lat="62.631598211745" lon="17.973219908593">
        <ele>81</ele>
        <time>2017-12-18T18:44:33Z</time>
      </trkpt>
      <trkpt lat="62.631571557303" lon="17.973175568342">
        <ele>81.2</ele>
        <time>2017-12-18T18:44:34Z</time>
      </trkpt>
      <trkpt lat="62.631549848182" lon="17.973137346878">
        <ele>81.2</ele>
        <time>2017-12-18T18:44:35Z</time>
      </trkpt>
      <trkpt lat="62.631521014446" lon="17.973072387153">
        <ele>81</ele>
        <time>2017-12-18T18:44:36Z</time>
      </trkpt>
      <trkpt lat="62.63149720985" lon="17.973024442685">
        <ele>81</ele>
        <time>2017-12-18T18:44:37Z</time>
      </trkpt>
      <trkpt lat="62.631471142141" lon="17.972974821837">
        <ele>81</ele>
        <time>2017-12-18T18:44:38Z</time>
      </trkpt>
      <trkpt lat="62.631447505183" lon="17.972910365026">
        <ele>80.8</ele>
        <time>2017-12-18T18:44:39Z</time>
      </trkpt>
      <trkpt lat="62.631424203501" lon="17.972864851309">
        <ele>80.6</ele>
        <time>2017-12-18T18:44:40Z</time>
      </trkpt>
      <trkpt lat="62.631397716697" lon="17.972804669267">
        <ele>80.4</ele>
        <time>2017-12-18T18:44:41Z</time>
      </trkpt>
      <trkpt lat="62.631372235721" lon="17.972742643207">
        <ele>80.4</ele>
        <time>2017-12-18T18:44:42Z</time>
      </trkpt>
      <trkpt lat="62.631352286799" lon="17.972687322667">
        <ele>80.2</ele>
        <time>2017-12-18T18:44:43Z</time>
      </trkpt>
      <trkpt lat="62.631329068936" lon="17.972625799521">
        <ele>80</ele>
        <time>2017-12-18T18:44:44Z</time>
      </trkpt>
      <trkpt lat="62.631309790566" lon="17.972573496465">
        <ele>79.8</ele>
        <time>2017-12-18T18:44:45Z</time>
      </trkpt>
      <trkpt lat="62.631288332902" lon="17.972512140957">
        <ele>79.6</ele>
        <time>2017-12-18T18:44:46Z</time>
      </trkpt>
      <trkpt lat="62.63126922217" lon="17.972453300019">
        <ele>79.4</ele>
        <time>2017-12-18T18:44:47Z</time>
      </trkpt>
      <trkpt lat="62.631248435058" lon="17.972400661687">
        <ele>79</ele>
        <time>2017-12-18T18:44:48Z</time>
      </trkpt>
      <trkpt lat="62.631231671258" lon="17.972348023355">
        <ele>78.8</ele>
        <time>2017-12-18T18:44:49Z</time>
      </trkpt>
      <trkpt lat="62.631221110064" lon="17.972295887937">
        <ele>78.6</ele>
        <time>2017-12-18T18:44:50Z</time>
      </trkpt>
      <trkpt lat="62.631218595494" lon="17.972221959579">
        <ele>78.4</ele>
        <time>2017-12-18T18:44:51Z</time>
      </trkpt>
      <trkpt lat="62.631233599095" lon="17.97216404065">
        <ele>78.2</ele>
        <time>2017-12-18T18:44:52Z</time>
      </trkpt>
      <trkpt lat="62.631244998479" lon="17.972126489738">
        <ele>78</ele>
        <time>2017-12-18T18:44:53Z</time>
      </trkpt>
      <trkpt lat="62.631285315418" lon="17.97206597242">
        <ele>77.8</ele>
        <time>2017-12-18T18:44:54Z</time>
      </trkpt>
      <trkpt lat="62.631312053679" lon="17.972035629942">
        <ele>77.8</ele>
        <time>2017-12-18T18:44:55Z</time>
      </trkpt>
      <trkpt lat="62.63134549746" lon="17.971998498125">
        <ele>77.6</ele>
        <time>2017-12-18T18:44:56Z</time>
      </trkpt>
      <trkpt lat="62.631372068083" lon="17.971957929729">
        <ele>77.8</ele>
        <time>2017-12-18T18:44:57Z</time>
      </trkpt>
      <trkpt lat="62.631401488552" lon="17.971913002745">
        <ele>77.6</ele>
        <time>2017-12-18T18:44:58Z</time>
      </trkpt>
      <trkpt lat="62.631430238469" lon="17.971876290023">
        <ele>77.8</ele>
        <time>2017-12-18T18:44:59Z</time>
      </trkpt>
      <trkpt lat="62.631454378341" lon="17.971842008052">
        <ele>77.8</ele>
        <time>2017-12-18T18:45:00Z</time>
      </trkpt>
      <trkpt lat="62.63148631338" lon="17.971796159059">
        <ele>77.6</ele>
        <time>2017-12-18T18:45:01Z</time>
      </trkpt>
      <trkpt lat="62.631507687225" lon="17.97174997479">
        <ele>77.6</ele>
        <time>2017-12-18T18:45:02Z</time>
      </trkpt>
      <trkpt lat="62.631528474337" lon="17.971696749725">
        <ele>77.4</ele>
        <time>2017-12-18T18:45:03Z</time>
      </trkpt>
      <trkpt lat="62.631551776019" lon="17.971635897131">
        <ele>77.4</ele>
        <time>2017-12-18T18:45:04Z</time>
      </trkpt>
      <trkpt lat="62.631566444344" lon="17.971592227432">
        <ele>77.4</ele>
        <time>2017-12-18T18:45:05Z</time>
      </trkpt>
      <trkpt lat="62.631591841501" lon="17.971533135037">
        <ele>77.4</ele>
        <time>2017-12-18T18:45:06Z</time>
      </trkpt>
      <trkpt lat="62.631613969717" lon="17.97148510675">
        <ele>77.4</ele>
        <time>2017-12-18T18:45:07Z</time>
      </trkpt>
      <trkpt lat="62.631631823164" lon="17.971433641884">
        <ele>77.2</ele>
        <time>2017-12-18T18:45:08Z</time>
      </trkpt>
      <trkpt lat="62.63165730414" lon="17.971382093199">
        <ele>77.2</ele>
        <time>2017-12-18T18:45:09Z</time>
      </trkpt>
      <trkpt lat="62.631680522003" lon="17.971344626106">
        <ele>77.2</ele>
        <time>2017-12-18T18:45:10Z</time>
      </trkpt>
      <trkpt lat="62.631708182273" lon="17.971295089077">
        <ele>77.2</ele>
        <time>2017-12-18T18:45:11Z</time>
      </trkpt>
      <trkpt lat="62.631737267466" lon="17.971242702202">
        <ele>77</ele>
        <time>2017-12-18T18:45:12Z</time>
      </trkpt>
      <trkpt lat="62.631759395682" lon="17.971201295616">
        <ele>77</ele>
        <time>2017-12-18T18:45:13Z</time>
      </trkpt>
      <trkpt lat="62.63178889997" lon="17.971161313953">
        <ele>76.8</ele>
        <time>2017-12-18T18:45:14Z</time>
      </trkpt>
      <trkpt lat="62.631815386774" lon="17.971115800236">
        <ele>76.6</ele>
        <time>2017-12-18T18:45:15Z</time>
      </trkpt>
      <trkpt lat="62.631842963225" lon="17.971073639279">
        <ele>76.6</ele>
        <time>2017-12-18T18:45:16Z</time>
      </trkpt>
      <trkpt lat="62.631867857468" lon="17.971026952096">
        <ele>76.6</ele>
        <time>2017-12-18T18:45:17Z</time>
      </trkpt>
      <trkpt lat="62.631894931005" lon="17.970982611845">
        <ele>76.4</ele>
        <time>2017-12-18T18:45:18Z</time>
      </trkpt>
      <trkpt lat="62.631919909067" lon="17.970935337929">
        <ele>76.4</ele>
        <time>2017-12-18T18:45:19Z</time>
      </trkpt>
      <trkpt lat="62.631942959292" lon="17.970888650746">
        <ele>76.4</ele>
        <time>2017-12-18T18:45:20Z</time>
      </trkpt>
      <trkpt lat="62.631967266802" lon="17.970840454821">
        <ele>76.2</ele>
        <time>2017-12-18T18:45:21Z</time>
      </trkpt>
      <trkpt lat="62.631993669787" lon="17.97078857086">
        <ele>76</ele>
        <time>2017-12-18T18:45:22Z</time>
      </trkpt>
      <trkpt lat="62.632015378908" lon="17.970751774319">
        <ele>76</ele>
        <time>2017-12-18T18:45:23Z</time>
      </trkpt>
      <trkpt lat="62.632039854056" lon="17.970709445724">
        <ele>76</ele>
        <time>2017-12-18T18:45:24Z</time>
      </trkpt>
      <trkpt lat="62.632065251213" lon="17.970672313907">
        <ele>75.8</ele>
        <time>2017-12-18T18:45:25Z</time>
      </trkpt>
      <trkpt lat="62.632088720533" lon="17.970632164606">
        <ele>75.8</ele>
        <time>2017-12-18T18:45:26Z</time>
      </trkpt>
      <trkpt lat="62.632114285328" lon="17.97058572888">
        <ele>75.8</ele>
        <time>2017-12-18T18:45:27Z</time>
      </trkpt>
      <trkpt lat="62.632139933942" lon="17.970543484104">
        <ele>75.6</ele>
        <time>2017-12-18T18:45:28Z</time>
      </trkpt>
      <trkpt lat="62.632158877036" lon="17.970497467473">
        <ele>75.6</ele>
        <time>2017-12-18T18:45:29Z</time>
      </trkpt>
      <trkpt lat="62.63218620203" lon="17.970452037575">
        <ele>75.6</ele>
        <time>2017-12-18T18:45:30Z</time>
      </trkpt>
      <trkpt lat="62.63220967135" lon="17.970402752003">
        <ele>75.6</ele>
        <time>2017-12-18T18:45:31Z</time>
      </trkpt>
      <trkpt lat="62.632232721575" lon="17.970358411752">
        <ele>75.4</ele>
        <time>2017-12-18T18:45:32Z</time>
      </trkpt>
      <trkpt lat="62.632258537827" lon="17.970307952714">
        <ele>75.4</ele>
        <time>2017-12-18T18:45:33Z</time>
      </trkpt>
      <trkpt lat="62.632282342423" lon="17.970263947739">
        <ele>75.4</ele>
        <time>2017-12-18T18:45:34Z</time>
      </trkpt>
      <trkpt lat="62.632303129535" lon="17.970212063778">
        <ele>75</ele>
        <time>2017-12-18T18:45:35Z</time>
      </trkpt>
      <trkpt lat="62.632328275235" lon="17.970154312487">
        <ele>75</ele>
        <time>2017-12-18T18:45:36Z</time>
      </trkpt>
      <trkpt lat="62.632340848085" lon="17.970098489033">
        <ele>75</ele>
        <time>2017-12-18T18:45:37Z</time>
      </trkpt>
      <trkpt lat="62.63235384003" lon="17.970033696946">
        <ele>74.8</ele>
        <time>2017-12-18T18:45:38Z</time>
      </trkpt>
      <trkpt lat="62.632361886654" lon="17.969969323954">
        <ele>74.6</ele>
        <time>2017-12-18T18:45:39Z</time>
      </trkpt>
      <trkpt lat="62.632365239414" lon="17.969903693677">
        <ele>74.4</ele>
        <time>2017-12-18T18:45:40Z</time>
      </trkpt>
      <trkpt lat="62.632368508355" lon="17.969824903817">
        <ele>74.2</ele>
        <time>2017-12-18T18:45:41Z</time>
      </trkpt>
      <trkpt lat="62.632364568862" lon="17.969752903296">
        <ele>74</ele>
        <time>2017-12-18T18:45:42Z</time>
      </trkpt>
      <trkpt lat="62.632359204446" lon="17.969680735137">
        <ele>73.8</ele>
        <time>2017-12-18T18:45:43Z</time>
      </trkpt>
      <trkpt lat="62.632342775922" lon="17.969622397113">
        <ele>73.6</ele>
        <time>2017-12-18T18:45:44Z</time>
      </trkpt>
      <trkpt lat="62.632326263579" lon="17.9695866064">
        <ele>73.2</ele>
        <time>2017-12-18T18:45:45Z</time>
      </trkpt>
      <trkpt lat="62.632297513662" lon="17.969552743524">
        <ele>73.2</ele>
        <time>2017-12-18T18:45:46Z</time>
      </trkpt>
      <trkpt lat="62.632271445953" lon="17.969543271977">
        <ele>73.2</ele>
        <time>2017-12-18T18:45:47Z</time>
      </trkpt>
      <trkpt lat="62.632235319964" lon="17.96954385871">
        <ele>73</ele>
        <time>2017-12-18T18:45:48Z</time>
      </trkpt>
      <trkpt lat="62.632205815676" lon="17.96954218233">
        <ele>72.8</ele>
        <time>2017-12-18T18:45:49Z</time>
      </trkpt>
      <trkpt lat="62.632182513994" lon="17.969546205642">
        <ele>72.6</ele>
        <time>2017-12-18T18:45:50Z</time>
      </trkpt>
      <trkpt lat="62.632150662774" lon="17.969556012465">
        <ele>72.4</ele>
        <time>2017-12-18T18:45:51Z</time>
      </trkpt>
      <trkpt lat="62.632124762703" lon="17.969565903107">
        <ele>72.4</ele>
        <time>2017-12-18T18:45:52Z</time>
      </trkpt>
      <trkpt lat="62.632100539012" lon="17.96957487174">
        <ele>72.2</ele>
        <time>2017-12-18T18:45:53Z</time>
      </trkpt>
      <trkpt lat="62.632074806579" lon="17.969577134853">
        <ele>72.2</ele>
        <time>2017-12-18T18:45:54Z</time>
      </trkpt>
      <trkpt lat="62.6320462243" lon="17.969575374654">
        <ele>72.2</ele>
        <time>2017-12-18T18:45:55Z</time>
      </trkpt>
      <trkpt lat="62.632018731668" lon="17.96957738631">
        <ele>72.2</ele>
        <time>2017-12-18T18:45:56Z</time>
      </trkpt>
      <trkpt lat="62.631987886276" lon="17.969581241984">
        <ele>72.2</ele>
        <time>2017-12-18T18:45:57Z</time>
      </trkpt>
      <trkpt lat="62.631960226006" lon="17.96959079735">
        <ele>72.2</ele>
        <time>2017-12-18T18:45:58Z</time>
      </trkpt>
      <trkpt lat="62.631930134985" lon="17.969600101259">
        <ele>72.2</ele>
        <time>2017-12-18T18:45:59Z</time>
      </trkpt>
      <trkpt lat="62.631904737828" lon="17.969615272498">
        <ele>72.2</ele>
        <time>2017-12-18T18:46:00Z</time>
      </trkpt>
      <trkpt lat="62.631871377866" lon="17.969618206163">
        <ele>72.2</ele>
        <time>2017-12-18T18:46:01Z</time>
      </trkpt>
      <trkpt lat="62.631840783931" lon="17.969623738217">
        <ele>72.4</ele>
        <time>2017-12-18T18:46:02Z</time>
      </trkpt>
      <trkpt lat="62.631808262159" lon="17.969636394886">
        <ele>72.2</ele>
        <time>2017-12-18T18:46:03Z</time>
      </trkpt>
      <trkpt lat="62.631784038468" lon="17.969651901401">
        <ele>72.2</ele>
        <time>2017-12-18T18:46:04Z</time>
      </trkpt>
      <trkpt lat="62.63175369599" lon="17.969661959681">
        <ele>72.2</ele>
        <time>2017-12-18T18:46:05Z</time>
      </trkpt>
      <trkpt lat="62.631729472299" lon="17.969702863353">
        <ele>72</ele>
        <time>2017-12-18T18:46:06Z</time>
      </trkpt>
      <trkpt lat="62.631702231124" lon="17.969727589958">
        <ele>72</ele>
        <time>2017-12-18T18:46:07Z</time>
      </trkpt>
      <trkpt lat="62.631675576682" lon="17.969746784509">
        <ele>71.8</ele>
        <time>2017-12-18T18:46:08Z</time>
      </trkpt>
      <trkpt lat="62.631654370475" lon="17.969769248001">
        <ele>71.8</ele>
        <time>2017-12-18T18:46:09Z</time>
      </trkpt>
      <trkpt lat="62.631627548395" lon="17.969790621846">
        <ele>71.8</ele>
        <time>2017-12-18T18:46:10Z</time>
      </trkpt>
      <trkpt lat="62.63160365998" lon="17.969814929356">
        <ele>72</ele>
        <time>2017-12-18T18:46:11Z</time>
      </trkpt>
      <trkpt lat="62.631576921719" lon="17.969834878278">
        <ele>72</ele>
        <time>2017-12-18T18:46:12Z</time>
      </trkpt>
      <trkpt lat="62.631546746879" lon="17.969849127508">
        <ele>72.2</ele>
        <time>2017-12-18T18:46:13Z</time>
      </trkpt>
      <trkpt lat="62.63152151736" lon="17.969865220756">
        <ele>72.2</ele>
        <time>2017-12-18T18:46:14Z</time>
      </trkpt>
      <trkpt lat="62.631497042212" lon="17.969884247669">
        <ele>72.4</ele>
        <time>2017-12-18T18:46:15Z</time>
      </trkpt>
      <trkpt lat="62.631467705562" lon="17.969894557406">
        <ele>72.4</ele>
        <time>2017-12-18T18:46:16Z</time>
      </trkpt>
      <trkpt lat="62.631445158251" lon="17.969904196591">
        <ele>72.4</ele>
        <time>2017-12-18T18:46:17Z</time>
      </trkpt>
      <trkpt lat="62.631414564316" lon="17.969922804409">
        <ele>72.6</ele>
        <time>2017-12-18T18:46:18Z</time>
      </trkpt>
      <trkpt lat="62.631385311485" lon="17.969932611232">
        <ele>72.8</ele>
        <time>2017-12-18T18:46:19Z</time>
      </trkpt>
      <trkpt lat="62.631361842165" lon="17.969944764987">
        <ele>72.8</ele>
        <time>2017-12-18T18:46:20Z</time>
      </trkpt>
      <trkpt lat="62.631328817479" lon="17.96995960095">
        <ele>72.8</ele>
        <time>2017-12-18T18:46:21Z</time>
      </trkpt>
      <trkpt lat="62.631302163037" lon="17.969975023646">
        <ele>72.8</ele>
        <time>2017-12-18T18:46:22Z</time>
      </trkpt>
      <trkpt lat="62.631277687889" lon="17.969992877093">
        <ele>72.8</ele>
        <time>2017-12-18T18:46:23Z</time>
      </trkpt>
      <trkpt lat="62.631243322099" lon="17.970012993653">
        <ele>72.8</ele>
        <time>2017-12-18T18:46:24Z</time>
      </trkpt>
      <trkpt lat="62.631219098408" lon="17.970016346413">
        <ele>73</ele>
        <time>2017-12-18T18:46:25Z</time>
      </trkpt>
      <trkpt lat="62.631186995731" lon="17.970039899552">
        <ele>73</ele>
        <time>2017-12-18T18:46:26Z</time>
      </trkpt>
      <trkpt lat="62.631156485615" lon="17.970052472402">
        <ele>73</ele>
        <time>2017-12-18T18:46:27Z</time>
      </trkpt>
      <trkpt lat="62.631128573888" lon="17.970072253686">
        <ele>73</ele>
        <time>2017-12-18T18:46:28Z</time>
      </trkpt>
      <trkpt lat="62.631099321057" lon="17.970092202608">
        <ele>73</ele>
        <time>2017-12-18T18:46:29Z</time>
      </trkpt>
      <trkpt lat="62.631073253348" lon="17.970096477377">
        <ele>73</ele>
        <time>2017-12-18T18:46:30Z</time>
      </trkpt>
      <trkpt lat="62.631045676897" lon="17.970113492634">
        <ele>73</ele>
        <time>2017-12-18T18:46:31Z</time>
      </trkpt>
      <trkpt lat="62.631022878129" lon="17.970131094624">
        <ele>73</ele>
        <time>2017-12-18T18:46:32Z</time>
      </trkpt>
      <trkpt lat="62.630984069932" lon="17.970152133193">
        <ele>73.4</ele>
        <time>2017-12-18T18:46:34Z</time>
      </trkpt>
      <trkpt lat="62.630974011652" lon="17.970159593084">
        <ele>72.8</ele>
        <time>2017-12-18T18:46:35Z</time>
      </trkpt>
      <trkpt lat="62.630961103526" lon="17.970163616396">
        <ele>72.8</ele>
        <time>2017-12-18T18:46:36Z</time>
      </trkpt>
      <trkpt lat="62.630949787961" lon="17.970166214785">
        <ele>73</ele>
        <time>2017-12-18T18:46:37Z</time>
      </trkpt>
      <trkpt lat="62.630939226767" lon="17.970161520921">
        <ele>73.2</ele>
        <time>2017-12-18T18:46:38Z</time>
      </trkpt>
      <trkpt lat="62.630929671401" lon="17.970161940016">
        <ele>73.2</ele>
        <time>2017-12-18T18:46:39Z</time>
      </trkpt>
      <trkpt lat="62.630925899546" lon="17.97016663388">
        <ele>74.2</ele>
        <time>2017-12-18T18:46:40Z</time>
      </trkpt>
      <trkpt lat="62.630925899546" lon="17.970164622224">
        <ele>74.2</ele>
        <time>2017-12-18T18:46:41Z</time>
      </trkpt>
      <trkpt lat="62.631193701251" lon="17.969972341438">
        <ele>73.8</ele>
        <time>2017-12-18T18:48:44Z</time>
      </trkpt>
      <trkpt lat="62.63122060715" lon="17.969964378633">
        <ele>73.8</ele>
        <time>2017-12-18T18:48:45Z</time>
      </trkpt>
      <trkpt lat="62.631260756451" lon="17.96993948439">
        <ele>73.6</ele>
        <time>2017-12-18T18:48:46Z</time>
      </trkpt>
      <trkpt lat="62.631291350386" lon="17.969919954563">
        <ele>73.6</ele>
        <time>2017-12-18T18:48:47Z</time>
      </trkpt>
      <trkpt lat="62.631327141099" lon="17.969907381713">
        <ele>73.6</ele>
        <time>2017-12-18T18:48:48Z</time>
      </trkpt>
      <trkpt lat="62.631357818853" lon="17.969893719216">
        <ele>73.4</ele>
        <time>2017-12-18T18:48:49Z</time>
      </trkpt>
      <trkpt lat="62.63139159791" lon="17.969878547977">
        <ele>73.2</ele>
        <time>2017-12-18T18:48:50Z</time>
      </trkpt>
      <trkpt lat="62.631424957872" lon="17.969857425589">
        <ele>73</ele>
        <time>2017-12-18T18:48:51Z</time>
      </trkpt>
      <trkpt lat="62.631457228187" lon="17.969846277662">
        <ele>72.8</ele>
        <time>2017-12-18T18:48:52Z</time>
      </trkpt>
      <trkpt lat="62.631484804638" lon="17.969825239093">
        <ele>72.8</ele>
        <time>2017-12-18T18:48:53Z</time>
      </trkpt>
      <trkpt lat="62.631519757161" lon="17.969803529972">
        <ele>72.8</ele>
        <time>2017-12-18T18:48:54Z</time>
      </trkpt>
      <trkpt lat="62.631548758535" lon="17.969790705665">
        <ele>72.8</ele>
        <time>2017-12-18T18:48:55Z</time>
      </trkpt>
      <trkpt lat="62.631582202316" lon="17.969778216634">
        <ele>72.6</ele>
        <time>2017-12-18T18:48:56Z</time>
      </trkpt>
      <trkpt lat="62.631616651925" lon="17.969753322391">
        <ele>72.6</ele>
        <time>2017-12-18T18:48:57Z</time>
      </trkpt>
      <trkpt lat="62.63164556948" lon="17.969723818103">
        <ele>72.6</ele>
        <time>2017-12-18T18:48:58Z</time>
      </trkpt>
      <trkpt lat="62.631677169243" lon="17.969692888892">
        <ele>72.4</ele>
        <time>2017-12-18T18:48:59Z</time>
      </trkpt>
      <trkpt lat="62.631706422074" lon="17.969655673256">
        <ele>72.6</ele>
        <time>2017-12-18T18:49:00Z</time>
      </trkpt>
      <trkpt lat="62.63174112314" lon="17.969613512299">
        <ele>72.4</ele>
        <time>2017-12-18T18:49:01Z</time>
      </trkpt>
      <trkpt lat="62.631768615772" lon="17.96957487174">
        <ele>72.4</ele>
        <time>2017-12-18T18:49:02Z</time>
      </trkpt>
      <trkpt lat="62.631802227191" lon="17.969554336085">
        <ele>72.2</ele>
        <time>2017-12-18T18:49:03Z</time>
      </trkpt>
      <trkpt lat="62.631831480022" lon="17.969549055488">
        <ele>72</ele>
        <time>2017-12-18T18:49:04Z</time>
      </trkpt>
      <trkpt lat="62.63185679336" lon="17.969543104339">
        <ele>71.8</ele>
        <time>2017-12-18T18:49:05Z</time>
      </trkpt>
      <trkpt lat="62.631889147494" lon="17.969556683017">
        <ele>71.8</ele>
        <time>2017-12-18T18:49:06Z</time>
      </trkpt>
      <trkpt lat="62.63191965761" lon="17.969560454872">
        <ele>71.8</ele>
        <time>2017-12-18T18:49:07Z</time>
      </trkpt>
      <trkpt lat="62.631948575165" lon="17.969556934474">
        <ele>71.8</ele>
        <time>2017-12-18T18:49:08Z</time>
      </trkpt>
      <trkpt lat="62.6319791691" lon="17.969550899506">
        <ele>71.8</ele>
        <time>2017-12-18T18:49:09Z</time>
      </trkpt>
      <trkpt lat="62.632004985352" lon="17.969546876194">
        <ele>71.8</ele>
        <time>2017-12-18T18:49:10Z</time>
      </trkpt>
      <trkpt lat="62.632034322002" lon="17.969542266149">
        <ele>72</ele>
        <time>2017-12-18T18:49:11Z</time>
      </trkpt>
      <trkpt lat="62.6320629881" lon="17.969525502349">
        <ele>72.2</ele>
        <time>2017-12-18T18:49:12Z</time>
      </trkpt>
      <trkpt lat="62.632092660026" lon="17.969514605879">
        <ele>72.2</ele>
        <time>2017-12-18T18:49:13Z</time>
      </trkpt>
      <trkpt lat="62.632123673056" lon="17.969509241463">
        <ele>72.2</ele>
        <time>2017-12-18T18:49:14Z</time>
      </trkpt>
      <trkpt lat="62.632154183172" lon="17.969497087708">
        <ele>72.4</ele>
        <time>2017-12-18T18:49:15Z</time>
      </trkpt>
      <trkpt lat="62.632190476799" lon="17.96949021455">
        <ele>72.4</ele>
        <time>2017-12-18T18:49:16Z</time>
      </trkpt>
      <trkpt lat="62.632215957775" lon="17.969477054967">
        <ele>72.4</ele>
        <time>2017-12-18T18:49:17Z</time>
      </trkpt>
      <trkpt lat="62.63225325723" lon="17.969467080506">
        <ele>72.4</ele>
        <time>2017-12-18T18:49:18Z</time>
      </trkpt>
      <trkpt lat="62.63228007931" lon="17.969460542624">
        <ele>72.4</ele>
        <time>2017-12-18T18:49:19Z</time>
      </trkpt>
      <trkpt lat="62.632308745408" lon="17.969452496">
        <ele>72.4</ele>
        <time>2017-12-18T18:49:20Z</time>
      </trkpt>
      <trkpt lat="62.632340345171" lon="17.969448388869">
        <ele>72.2</ele>
        <time>2017-12-18T18:49:21Z</time>
      </trkpt>
      <trkpt lat="62.63236641288" lon="17.969449227059">
        <ele>72.2</ele>
        <time>2017-12-18T18:49:22Z</time>
      </trkpt>
      <trkpt lat="62.632397677367" lon="17.969455094389">
        <ele>72.2</ele>
        <time>2017-12-18T18:49:23Z</time>
      </trkpt>
      <trkpt lat="62.632429193311" lon="17.969446209575">
        <ele>72.4</ele>
        <time>2017-12-18T18:49:24Z</time>
      </trkpt>
      <trkpt lat="62.632458110866" lon="17.969445287566">
        <ele>72.2</ele>
        <time>2017-12-18T18:49:25Z</time>
      </trkpt>
      <trkpt lat="62.632489291534" lon="17.969448891783">
        <ele>72.2</ele>
        <time>2017-12-18T18:49:26Z</time>
      </trkpt>
      <trkpt lat="62.632518628184" lon="17.969449813792">
        <ele>72.2</ele>
        <time>2017-12-18T18:49:27Z</time>
      </trkpt>
      <trkpt lat="62.632551401413" lon="17.969460542624">
        <ele>72.2</ele>
        <time>2017-12-18T18:49:28Z</time>
      </trkpt>
      <trkpt lat="62.632577385303" lon="17.969468840705">
        <ele>72.2</ele>
        <time>2017-12-18T18:49:29Z</time>
      </trkpt>
      <trkpt lat="62.632607643962" lon="17.969483173754">
        <ele>72.2</ele>
        <time>2017-12-18T18:49:30Z</time>
      </trkpt>
      <trkpt lat="62.632639495182" lon="17.969493651129">
        <ele>72.2</ele>
        <time>2017-12-18T18:49:31Z</time>
      </trkpt>
      <trkpt lat="62.632669670022" lon="17.969502116848">
        <ele>72.2</ele>
        <time>2017-12-18T18:49:32Z</time>
      </trkpt>
      <trkpt lat="62.632698168482" lon="17.969512426585">
        <ele>72.2</ele>
        <time>2017-12-18T18:49:33Z</time>
      </trkpt>
      <trkpt lat="62.632722056897" lon="17.969520054114">
        <ele>72.2</ele>
        <time>2017-12-18T18:49:34Z</time>
      </trkpt>
      <trkpt lat="62.632751561185" lon="17.969530699127">
        <ele>72.2</ele>
        <time>2017-12-18T18:49:35Z</time>
      </trkpt>
      <trkpt lat="62.632779556731" lon="17.969539500122">
        <ele>72.2</ele>
        <time>2017-12-18T18:49:36Z</time>
      </trkpt>
      <trkpt lat="62.632809899209" lon="17.969543691072">
        <ele>72.2</ele>
        <time>2017-12-18T18:49:37Z</time>
      </trkpt>
      <trkpt lat="62.632839403497" lon="17.969560454872">
        <ele>72.4</ele>
        <time>2017-12-18T18:49:38Z</time>
      </trkpt>
      <trkpt lat="62.632870584165" lon="17.969574285007">
        <ele>72.4</ele>
        <time>2017-12-18T18:49:39Z</time>
      </trkpt>
      <trkpt lat="62.632897657702" lon="17.969578559776">
        <ele>72.6</ele>
        <time>2017-12-18T18:49:40Z</time>
      </trkpt>
      <trkpt lat="62.632926239981" lon="17.969581409622">
        <ele>72.6</ele>
        <time>2017-12-18T18:49:41Z</time>
      </trkpt>
      <trkpt lat="62.632958426477" lon="17.969588450418">
        <ele>72.8</ele>
        <time>2017-12-18T18:49:42Z</time>
      </trkpt>
      <trkpt lat="62.632987427851" lon="17.969590964988">
        <ele>72.8</ele>
        <time>2017-12-18T18:49:43Z</time>
      </trkpt>
      <trkpt lat="62.633014417569" lon="17.96960001744">
        <ele>73</ele>
        <time>2017-12-18T18:49:44Z</time>
      </trkpt>
      <trkpt lat="62.633040820554" lon="17.969605381856">
        <ele>73</ele>
        <time>2017-12-18T18:49:45Z</time>
      </trkpt>
      <trkpt lat="62.633072587955" lon="17.969611081548">
        <ele>73</ele>
        <time>2017-12-18T18:49:46Z</time>
      </trkpt>
      <trkpt lat="62.6331023437" lon="17.969620888371">
        <ele>73</ele>
        <time>2017-12-18T18:49:47Z</time>
      </trkpt>
      <trkpt lat="62.633130339246" lon="17.96962516314">
        <ele>73</ele>
        <time>2017-12-18T18:49:48Z</time>
      </trkpt>
      <trkpt lat="62.633162609561" lon="17.969627426253">
        <ele>73.2</ele>
        <time>2017-12-18T18:49:49Z</time>
      </trkpt>
      <trkpt lat="62.633187922899" lon="17.969634215592">
        <ele>73.2</ele>
        <time>2017-12-18T18:49:50Z</time>
      </trkpt>
      <trkpt lat="62.633219019748" lon="17.969639915284">
        <ele>73.2</ele>
        <time>2017-12-18T18:49:51Z</time>
      </trkpt>
      <trkpt lat="62.633247099113" lon="17.969656595265">
        <ele>73.4</ele>
        <time>2017-12-18T18:49:52Z</time>
      </trkpt>
      <trkpt lat="62.633273250641" lon="17.969672437056">
        <ele>73.4</ele>
        <time>2017-12-18T18:49:53Z</time>
      </trkpt>
      <trkpt lat="62.633305940051" lon="17.969703282448">
        <ele>73.4</ele>
        <time>2017-12-18T18:49:54Z</time>
      </trkpt>
      <trkpt lat="62.633328319724" lon="17.96973328965">
        <ele>73.4</ele>
        <time>2017-12-18T18:49:55Z</time>
      </trkpt>
      <trkpt lat="62.633349861207" lon="17.969786263258">
        <ele>73.6</ele>
        <time>2017-12-18T18:49:56Z</time>
      </trkpt>
      <trkpt lat="62.633361260591" lon="17.969843343997">
        <ele>73.8</ele>
        <time>2017-12-18T18:49:57Z</time>
      </trkpt>
      <trkpt lat="62.633372995251" lon="17.969904699505">
        <ele>73.8</ele>
        <time>2017-12-18T18:49:58Z</time>
      </trkpt>
      <trkpt lat="62.633378359667" lon="17.969969743049">
        <ele>74</ele>
        <time>2017-12-18T18:49:59Z</time>
      </trkpt>
      <trkpt lat="62.633384478454" lon="17.970031433833">
        <ele>74</ele>
        <time>2017-12-18T18:50:00Z</time>
      </trkpt>
      <trkpt lat="62.633389591413" lon="17.970104104906">
        <ele>74.2</ele>
        <time>2017-12-18T18:50:01Z</time>
      </trkpt>
      <trkpt lat="62.633391016336" lon="17.970161856197">
        <ele>74.2</ele>
        <time>2017-12-18T18:50:02Z</time>
      </trkpt>
      <trkpt lat="62.63339403382" lon="17.970232599433">
        <ele>74.4</ele>
        <time>2017-12-18T18:50:03Z</time>
      </trkpt>
      <trkpt lat="62.633397721856" lon="17.970295882778">
        <ele>74.6</ele>
        <time>2017-12-18T18:50:04Z</time>
      </trkpt>
      <trkpt lat="62.633403002453" lon="17.970348688748">
        <ele>74.6</ele>
        <time>2017-12-18T18:50:05Z</time>
      </trkpt>
      <trkpt lat="62.633407780136" lon="17.970425886047">
        <ele>74.8</ele>
        <time>2017-12-18T18:50:06Z</time>
      </trkpt>
      <trkpt lat="62.633412390181" lon="17.970484978442">
        <ele>75</ele>
        <time>2017-12-18T18:50:07Z</time>
      </trkpt>
      <trkpt lat="62.633414904751" lon="17.970547004502">
        <ele>75</ele>
        <time>2017-12-18T18:50:08Z</time>
      </trkpt>
      <trkpt lat="62.633417586959" lon="17.970609365838">
        <ele>75</ele>
        <time>2017-12-18T18:50:09Z</time>
      </trkpt>
      <trkpt lat="62.633419598615" lon="17.970666781853">
        <ele>75</ele>
        <time>2017-12-18T18:50:10Z</time>
      </trkpt>
      <trkpt lat="62.633422867556" lon="17.970739536745">
        <ele>75.2</ele>
        <time>2017-12-18T18:50:11Z</time>
      </trkpt>
      <trkpt lat="62.633430662723" lon="17.970798210045">
        <ele>75.2</ele>
        <time>2017-12-18T18:50:12Z</time>
      </trkpt>
      <trkpt lat="62.633435272768" lon="17.970866103435">
        <ele>75.4</ele>
        <time>2017-12-18T18:50:13Z</time>
      </trkpt>
      <trkpt lat="62.633439379899" lon="17.97092184307">
        <ele>75.4</ele>
        <time>2017-12-18T18:50:14Z</time>
      </trkpt>
      <trkpt lat="62.633442397383" lon="17.970988143899">
        <ele>75.6</ele>
        <time>2017-12-18T18:50:15Z</time>
      </trkpt>
      <trkpt lat="62.633444828134" lon="17.971056121108">
        <ele>75.8</ele>
        <time>2017-12-18T18:50:16Z</time>
      </trkpt>
      <trkpt lat="62.633447761799" lon="17.971114123856">
        <ele>76</ele>
        <time>2017-12-18T18:50:17Z</time>
      </trkpt>
      <trkpt lat="62.633447761799" lon="17.971197272304">
        <ele>76</ele>
        <time>2017-12-18T18:50:18Z</time>
      </trkpt>
      <trkpt lat="62.633448935265" lon="17.971256699975">
        <ele>76.2</ele>
        <time>2017-12-18T18:50:19Z</time>
      </trkpt>
      <trkpt lat="62.633452204206" lon="17.971320067139">
        <ele>76.4</ele>
        <time>2017-12-18T18:50:20Z</time>
      </trkpt>
      <trkpt lat="62.633449857274" lon="17.971382512294">
        <ele>76.6</ele>
        <time>2017-12-18T18:50:21Z</time>
      </trkpt>
      <trkpt lat="62.633449773455" lon="17.971445795639">
        <ele>76.6</ele>
        <time>2017-12-18T18:50:22Z</time>
      </trkpt>
      <trkpt lat="62.6334460016" lon="17.971504888034">
        <ele>76.6</ele>
        <time>2017-12-18T18:50:23Z</time>
      </trkpt>
      <trkpt lat="62.633445079591" lon="17.971580325134">
        <ele>76.8</ele>
        <time>2017-12-18T18:50:24Z</time>
      </trkpt>
      <trkpt lat="62.633440721003" lon="17.971645787773">
        <ele>76.8</ele>
        <time>2017-12-18T18:50:25Z</time>
      </trkpt>
      <trkpt lat="62.633438206433" lon="17.971695827716">
        <ele>77</ele>
        <time>2017-12-18T18:50:26Z</time>
      </trkpt>
      <trkpt lat="62.633434602216" lon="17.971765313667">
        <ele>77</ele>
        <time>2017-12-18T18:50:27Z</time>
      </trkpt>
      <trkpt lat="62.633428818705" lon="17.971826752994">
        <ele>77.2</ele>
        <time>2017-12-18T18:50:28Z</time>
      </trkpt>
      <trkpt lat="62.633424292479" lon="17.97188911433">
        <ele>77.2</ele>
        <time>2017-12-18T18:50:29Z</time>
      </trkpt>
      <trkpt lat="62.633418257511" lon="17.971951056571">
        <ele>77.2</ele>
        <time>2017-12-18T18:50:30Z</time>
      </trkpt>
      <trkpt lat="62.633413144552" lon="17.972017525038">
        <ele>77.2</ele>
        <time>2017-12-18T18:50:31Z</time>
      </trkpt>
      <trkpt lat="62.633406690489" lon="17.972082987677">
        <ele>77.4</ele>
        <time>2017-12-18T18:50:32Z</time>
      </trkpt>
      <trkpt lat="62.633402248082" lon="17.97214811504">
        <ele>77.4</ele>
        <time>2017-12-18T18:50:33Z</time>
      </trkpt>
      <trkpt lat="62.633393027992" lon="17.972211482204">
        <ele>77.4</ele>
        <time>2017-12-18T18:50:34Z</time>
      </trkpt>
      <trkpt lat="62.633385316644" lon="17.972259678129">
        <ele>77.6</ele>
        <time>2017-12-18T18:50:35Z</time>
      </trkpt>
      <trkpt lat="62.633375090726" lon="17.972326230415">
        <ele>77.8</ele>
        <time>2017-12-18T18:50:36Z</time>
      </trkpt>
      <trkpt lat="62.633367295559" lon="17.972384819896">
        <ele>78</ele>
        <time>2017-12-18T18:50:37Z</time>
      </trkpt>
      <trkpt lat="62.633362014962" lon="17.972439888979">
        <ele>78</ele>
        <time>2017-12-18T18:50:38Z</time>
      </trkpt>
      <trkpt lat="62.633347011361" lon="17.972504178152">
        <ele>78.2</ele>
        <time>2017-12-18T18:50:39Z</time>
      </trkpt>
      <trkpt lat="62.633338545642" lon="17.97255882814">
        <ele>78.2</ele>
        <time>2017-12-18T18:50:40Z</time>
      </trkpt>
      <trkpt lat="62.633323542041" lon="17.972620099829">
        <ele>78.2</ele>
        <time>2017-12-18T18:50:41Z</time>
      </trkpt>
      <trkpt lat="62.633310885372" lon="17.972679192224">
        <ele>78.4</ele>
        <time>2017-12-18T18:50:42Z</time>
      </trkpt>
      <trkpt lat="62.633299821264" lon="17.97274239175">
        <ele>78.4</ele>
        <time>2017-12-18T18:50:43Z</time>
      </trkpt>
      <trkpt lat="62.633284147111" lon="17.972800059222">
        <ele>78.4</ele>
        <time>2017-12-18T18:50:44Z</time>
      </trkpt>
      <trkpt lat="62.633271406623" lon="17.97284800369">
        <ele>78.6</ele>
        <time>2017-12-18T18:50:45Z</time>
      </trkpt>
      <trkpt lat="62.633258498497" lon="17.972914807433">
        <ele>78.6</ele>
        <time>2017-12-18T18:50:46Z</time>
      </trkpt>
      <trkpt lat="62.63324735057" lon="17.972968870688">
        <ele>78.8</ele>
        <time>2017-12-18T18:50:47Z</time>
      </trkpt>
      <trkpt lat="62.633225138535" lon="17.973029723282">
        <ele>78.8</ele>
        <time>2017-12-18T18:50:48Z</time>
      </trkpt>
      <trkpt lat="62.6332113084" lon="17.973086552564">
        <ele>79</ele>
        <time>2017-12-18T18:50:49Z</time>
      </trkpt>
      <trkpt lat="62.633202507405" lon="17.973153188669">
        <ele>79.2</ele>
        <time>2017-12-18T18:50:50Z</time>
      </trkpt>
      <trkpt lat="62.633190102193" lon="17.973212700159">
        <ele>79.2</ele>
        <time>2017-12-18T18:50:51Z</time>
      </trkpt>
      <trkpt lat="62.633175685325" lon="17.973276905513">
        <ele>79.4</ele>
        <time>2017-12-18T18:50:52Z</time>
      </trkpt>
      <trkpt lat="62.633163280113" lon="17.973326358723">
        <ele>79.4</ele>
        <time>2017-12-18T18:50:53Z</time>
      </trkpt>
      <trkpt lat="62.633147354503" lon="17.973394168294">
        <ele>79.4</ele>
        <time>2017-12-18T18:50:54Z</time>
      </trkpt>
      <trkpt lat="62.633133943463" lon="17.973454517974">
        <ele>79.4</ele>
        <time>2017-12-18T18:50:55Z</time>
      </trkpt>
      <trkpt lat="62.633121705889" lon="17.973515035292">
        <ele>79.6</ele>
        <time>2017-12-18T18:50:56Z</time>
      </trkpt>
      <trkpt lat="62.633106450831" lon="17.973579240646">
        <ele>79.8</ele>
        <time>2017-12-18T18:50:57Z</time>
      </trkpt>
      <trkpt lat="62.633095470542" lon="17.973630705512">
        <ele>79.8</ele>
        <time>2017-12-18T18:50:58Z</time>
      </trkpt>
      <trkpt lat="62.633090357583" lon="17.973651576443">
        <ele>79.8</ele>
        <time>2017-12-18T18:50:59Z</time>
      </trkpt>
      <trkpt lat="62.633071917403" lon="17.973726845905">
        <ele>80</ele>
        <time>2017-12-18T18:51:00Z</time>
      </trkpt>
      <trkpt lat="62.633055991793" lon="17.973800858082">
        <ele>80.2</ele>
        <time>2017-12-18T18:51:01Z</time>
      </trkpt>
      <trkpt lat="62.633041658744" lon="17.973864644341">
        <ele>80.2</ele>
        <time>2017-12-18T18:51:02Z</time>
      </trkpt>
      <trkpt lat="62.633027996247" lon="17.973913091723">
        <ele>80.4</ele>
        <time>2017-12-18T18:51:03Z</time>
      </trkpt>
      <trkpt lat="62.633014249931" lon="17.97397704562">
        <ele>80.6</ele>
        <time>2017-12-18T18:51:04Z</time>
      </trkpt>
      <trkpt lat="62.633003185823" lon="17.974024990088">
        <ele>80.8</ele>
        <time>2017-12-18T18:51:05Z</time>
      </trkpt>
      <trkpt lat="62.632982733987" lon="17.974089446899">
        <ele>80.8</ele>
        <time>2017-12-18T18:51:06Z</time>
      </trkpt>
      <trkpt lat="62.632964377626" lon="17.974142755783">
        <ele>80.8</ele>
        <time>2017-12-18T18:51:07Z</time>
      </trkpt>
      <trkpt lat="62.632949290206" lon="17.9741966514">
        <ele>80.8</ele>
        <time>2017-12-18T18:51:08Z</time>
      </trkpt>
      <trkpt lat="62.632931017664" lon="17.974262114039">
        <ele>81</ele>
        <time>2017-12-18T18:51:09Z</time>
      </trkpt>
      <trkpt lat="62.632918863909" lon="17.974311399611">
        <ele>81</ele>
        <time>2017-12-18T18:51:10Z</time>
      </trkpt>
      <trkpt lat="62.632900507548" lon="17.974372252205">
        <ele>81</ele>
        <time>2017-12-18T18:51:11Z</time>
      </trkpt>
      <trkpt lat="62.632883659929" lon="17.974426064003">
        <ele>81</ele>
        <time>2017-12-18T18:51:12Z</time>
      </trkpt>
      <trkpt lat="62.632863208093" lon="17.974474511385">
        <ele>81.2</ele>
        <time>2017-12-18T18:51:13Z</time>
      </trkpt>
      <trkpt lat="62.632839235859" lon="17.974508290442">
        <ele>81.2</ele>
        <time>2017-12-18T18:51:14Z</time>
      </trkpt>
      <trkpt lat="62.632813671064" lon="17.974533268504">
        <ele>81.2</ele>
        <time>2017-12-18T18:51:15Z</time>
      </trkpt>
      <trkpt lat="62.632779305274" lon="17.974535196341">
        <ele>81.2</ele>
        <time>2017-12-18T18:51:16Z</time>
      </trkpt>
      <trkpt lat="62.632752064099" lon="17.974528909916">
        <ele>81.2</ele>
        <time>2017-12-18T18:51:17Z</time>
      </trkpt>
      <trkpt lat="62.632723984734" lon="17.974498148343">
        <ele>81.2</ele>
        <time>2017-12-18T18:51:18Z</time>
      </trkpt>
      <trkpt lat="62.63269582155" lon="17.974475517213">
        <ele>81.2</ele>
        <time>2017-12-18T18:51:19Z</time>
      </trkpt>
      <trkpt lat="62.632671094945" lon="17.97445481392">
        <ele>81.2</ele>
        <time>2017-12-18T18:51:20Z</time>
      </trkpt>
      <trkpt lat="62.632639746639" lon="17.97442966822">
        <ele>81.4</ele>
        <time>2017-12-18T18:51:21Z</time>
      </trkpt>
      <trkpt lat="62.632612924559" lon="17.97440703709">
        <ele>81.2</ele>
        <time>2017-12-18T18:51:22Z</time>
      </trkpt>
      <trkpt lat="62.632589790515" lon="17.974381975209">
        <ele>81.4</ele>
        <time>2017-12-18T18:51:23Z</time>
      </trkpt>
      <trkpt lat="62.632557604019" lon="17.974357500061">
        <ele>81.4</ele>
        <time>2017-12-18T18:51:24Z</time>
      </trkpt>
      <trkpt lat="62.632530195206" lon="17.974335539483">
        <ele>81.4</ele>
        <time>2017-12-18T18:51:25Z</time>
      </trkpt>
      <trkpt lat="62.63249968509" lon="17.974315171466">
        <ele>81.4</ele>
        <time>2017-12-18T18:51:26Z</time>
      </trkpt>
      <trkpt lat="62.632474707028" lon="17.974303017711">
        <ele>81.4</ele>
        <time>2017-12-18T18:51:27Z</time>
      </trkpt>
      <trkpt lat="62.632445454197" lon="17.974281979142">
        <ele>81.4</ele>
        <time>2017-12-18T18:51:28Z</time>
      </trkpt>
      <trkpt lat="62.632418464479" lon="17.974259431831">
        <ele>81.4</ele>
        <time>2017-12-18T18:51:29Z</time>
      </trkpt>
      <trkpt lat="62.632394743702" lon="17.974235962511">
        <ele>81.4</ele>
        <time>2017-12-18T18:51:30Z</time>
      </trkpt>
      <trkpt lat="62.632366496699" lon="17.974216181227">
        <ele>81.4</ele>
        <time>2017-12-18T18:51:31Z</time>
      </trkpt>
      <trkpt lat="62.632342273008" lon="17.974187096034">
        <ele>81.2</ele>
        <time>2017-12-18T18:51:32Z</time>
      </trkpt>
      <trkpt lat="62.632310840883" lon="17.974149880398">
        <ele>81.2</ele>
        <time>2017-12-18T18:51:33Z</time>
      </trkpt>
      <trkpt lat="62.632283348251" lon="17.974112580943">
        <ele>81</ele>
        <time>2017-12-18T18:51:34Z</time>
      </trkpt>
      <trkpt lat="62.632255352705" lon="17.974086177958">
        <ele>81</ele>
        <time>2017-12-18T18:51:35Z</time>
      </trkpt>
      <trkpt lat="62.632224591132" lon="17.97405080634">
        <ele>81</ele>
        <time>2017-12-18T18:51:36Z</time>
      </trkpt>
      <trkpt lat="62.632199193975" lon="17.974018871301">
        <ele>80.8</ele>
        <time>2017-12-18T18:51:37Z</time>
      </trkpt>
      <trkpt lat="62.632174215913" lon="17.973978973457">
        <ele>80.8</ele>
        <time>2017-12-18T18:51:38Z</time>
      </trkpt>
      <trkpt lat="62.632142783788" lon="17.973949720626">
        <ele>80.8</ele>
        <time>2017-12-18T18:51:39Z</time>
      </trkpt>
      <trkpt lat="62.632113530957" lon="17.973919294329">
        <ele>80.8</ele>
        <time>2017-12-18T18:51:40Z</time>
      </trkpt>
      <trkpt lat="62.632083859031" lon="17.973890376774">
        <ele>80.8</ele>
        <time>2017-12-18T18:51:41Z</time>
      </trkpt>
      <trkpt lat="62.63205209163" lon="17.973850059835">
        <ele>80.8</ele>
        <time>2017-12-18T18:51:42Z</time>
      </trkpt>
      <trkpt lat="62.63202610774" lon="17.973818292434">
        <ele>80.8</ele>
        <time>2017-12-18T18:51:43Z</time>
      </trkpt>
      <trkpt lat="62.631996854909" lon="17.973787782318">
        <ele>80.8</ele>
        <time>2017-12-18T18:51:44Z</time>
      </trkpt>
      <trkpt lat="62.631970200467" lon="17.973755595822">
        <ele>81</ele>
        <time>2017-12-18T18:51:45Z</time>
      </trkpt>
      <trkpt lat="62.631941115274" lon="17.973720727118">
        <ele>80.8</ele>
        <time>2017-12-18T18:51:46Z</time>
      </trkpt>
      <trkpt lat="62.631914963746" lon="17.97368619369">
        <ele>80.8</ele>
        <time>2017-12-18T18:51:47Z</time>
      </trkpt>
      <trkpt lat="62.6318869682" lon="17.973651157348">
        <ele>80.8</ele>
        <time>2017-12-18T18:51:48Z</time>
      </trkpt>
      <trkpt lat="62.631854781704" lon="17.973621485422">
        <ele>80.8</ele>
        <time>2017-12-18T18:51:49Z</time>
      </trkpt>
      <trkpt lat="62.631827540529" lon="17.973579240646">
        <ele>80.8</ele>
        <time>2017-12-18T18:51:50Z</time>
      </trkpt>
      <trkpt lat="62.631798287698" lon="17.97355795062">
        <ele>80.8</ele>
        <time>2017-12-18T18:51:51Z</time>
      </trkpt>
      <trkpt lat="62.631766101202" lon="17.973519310061">
        <ele>80.8</ele>
        <time>2017-12-18T18:51:52Z</time>
      </trkpt>
      <trkpt lat="62.631739782036" lon="17.973491649791">
        <ele>80.8</ele>
        <time>2017-12-18T18:51:53Z</time>
      </trkpt>
      <trkpt lat="62.63171178649" lon="17.973460385304">
        <ele>80.8</ele>
        <time>2017-12-18T18:51:54Z</time>
      </trkpt>
      <trkpt lat="62.63168664079" lon="17.973431048654">
        <ele>80.6</ele>
        <time>2017-12-18T18:51:55Z</time>
      </trkpt>
      <trkpt lat="62.631653616104" lon="17.97341797289">
        <ele>80.6</ele>
        <time>2017-12-18T18:51:56Z</time>
      </trkpt>
      <trkpt lat="62.631618076848" lon="17.973417386157">
        <ele>80.6</ele>
        <time>2017-12-18T18:51:57Z</time>
      </trkpt>
      <trkpt lat="62.631589746026" lon="17.973425181324">
        <ele>80.6</ele>
        <time>2017-12-18T18:51:58Z</time>
      </trkpt>
      <trkpt lat="62.631559990281" lon="17.973447812454">
        <ele>80.6</ele>
        <time>2017-12-18T18:51:59Z</time>
      </trkpt>
      <trkpt lat="62.631534509305" lon="17.973471533231">
        <ele>80.6</ele>
        <time>2017-12-18T18:52:00Z</time>
      </trkpt>
      <trkpt lat="62.631506597578" lon="17.973498522949">
        <ele>80.6</ele>
        <time>2017-12-18T18:52:01Z</time>
      </trkpt>
      <trkpt lat="62.631476338919" lon="17.973521992269">
        <ele>80.6</ele>
        <time>2017-12-18T18:52:02Z</time>
      </trkpt>
      <trkpt lat="62.631454043065" lon="17.973545964503">
        <ele>80.4</ele>
        <time>2017-12-18T18:52:03Z</time>
      </trkpt>
      <trkpt lat="62.63142680189" lon="17.97357303804">
        <ele>80.4</ele>
        <time>2017-12-18T18:52:04Z</time>
      </trkpt>
      <trkpt lat="62.631404338398" lon="17.973600363034">
        <ele>80.4</ele>
        <time>2017-12-18T18:52:05Z</time>
      </trkpt>
      <trkpt lat="62.631377935413" lon="17.973644451828">
        <ele>80.2</ele>
        <time>2017-12-18T18:52:06Z</time>
      </trkpt>
      <trkpt lat="62.631348934039" lon="17.973674961944">
        <ele>80.2</ele>
        <time>2017-12-18T18:52:07Z</time>
      </trkpt>
      <trkpt lat="62.631325297081" lon="17.973703628042">
        <ele>80.2</ele>
        <time>2017-12-18T18:52:08Z</time>
      </trkpt>
      <trkpt lat="62.631300486657" lon="17.973734557253">
        <ele>80.2</ele>
        <time>2017-12-18T18:52:09Z</time>
      </trkpt>
      <trkpt lat="62.631273580758" lon="17.973768252491">
        <ele>80.2</ele>
        <time>2017-12-18T18:52:10Z</time>
      </trkpt>
      <trkpt lat="62.631248183601" lon="17.973804546118">
        <ele>80.2</ele>
        <time>2017-12-18T18:52:11Z</time>
      </trkpt>
      <trkpt lat="62.631215494191" lon="17.973837570804">
        <ele>80.2</ele>
        <time>2017-12-18T18:52:12Z</time>
      </trkpt>
      <trkpt lat="62.631185822265" lon="17.973869422024">
        <ele>80</ele>
        <time>2017-12-18T18:52:13Z</time>
      </trkpt>
      <trkpt lat="62.631158078176" lon="17.9738865211">
        <ele>80</ele>
        <time>2017-12-18T18:52:14Z</time>
      </trkpt>
      <trkpt lat="62.631127987155" lon="17.973904206909">
        <ele>80</ele>
        <time>2017-12-18T18:52:15Z</time>
      </trkpt>
      <trkpt lat="62.631098315229" lon="17.973912169714">
        <ele>80.2</ele>
        <time>2017-12-18T18:52:16Z</time>
      </trkpt>
      <trkpt lat="62.631070235864" lon="17.973918959053">
        <ele>80.2</ele>
        <time>2017-12-18T18:52:17Z</time>
      </trkpt>
      <trkpt lat="62.631034948065" lon="17.973912337352">
        <ele>80</ele>
        <time>2017-12-18T18:52:18Z</time>
      </trkpt>
      <trkpt lat="62.631007120157" lon="17.973898758674">
        <ele>80</ele>
        <time>2017-12-18T18:52:19Z</time>
      </trkpt>
      <trkpt lat="62.630977029136" lon="17.973875540811">
        <ele>80.2</ele>
        <time>2017-12-18T18:52:20Z</time>
      </trkpt>
      <trkpt lat="62.630946016106" lon="17.973842348487">
        <ele>80.2</ele>
        <time>2017-12-18T18:52:21Z</time>
      </trkpt>
      <trkpt lat="62.630920451311" lon="17.973808653249">
        <ele>80</ele>
        <time>2017-12-18T18:52:22Z</time>
      </trkpt>
      <trkpt lat="62.630894048326" lon="17.973763726265">
        <ele>80</ele>
        <time>2017-12-18T18:52:23Z</time>
      </trkpt>
      <trkpt lat="62.6308643764" lon="17.97371301577">
        <ele>79.8</ele>
        <time>2017-12-18T18:52:24Z</time>
      </trkpt>
      <trkpt lat="62.630841242356" lon="17.973658701058">
        <ele>79.8</ele>
        <time>2017-12-18T18:52:25Z</time>
      </trkpt>
      <trkpt lat="62.630816264294" lon="17.973595250075">
        <ele>79.8</ele>
        <time>2017-12-18T18:52:26Z</time>
      </trkpt>
      <trkpt lat="62.630796315372" lon="17.973543869028">
        <ele>79.8</ele>
        <time>2017-12-18T18:52:27Z</time>
      </trkpt>
      <trkpt lat="62.630774941527" lon="17.973482010606">
        <ele>79.6</ele>
        <time>2017-12-18T18:52:28Z</time>
      </trkpt>
      <trkpt lat="62.630756920442" lon="17.973431551568">
        <ele>79.6</ele>
        <time>2017-12-18T18:52:29Z</time>
      </trkpt>
      <trkpt lat="62.630740743375" lon="17.973380170521">
        <ele>79.4</ele>
        <time>2017-12-18T18:52:30Z</time>
      </trkpt>
      <trkpt lat="62.630721381186" lon="17.97331319914">
        <ele>79.4</ele>
        <time>2017-12-18T18:52:31Z</time>
      </trkpt>
      <trkpt lat="62.630702773368" lon="17.973255783125">
        <ele>79.4</ele>
        <time>2017-12-18T18:52:32Z</time>
      </trkpt>
      <trkpt lat="62.630682740627" lon="17.973201049318">
        <ele>79.4</ele>
        <time>2017-12-18T18:52:33Z</time>
      </trkpt>
      <trkpt lat="62.630666144465" lon="17.973140699638">
        <ele>79.2</ele>
        <time>2017-12-18T18:52:34Z</time>
      </trkpt>
      <trkpt lat="62.630649129208" lon="17.973088228944">
        <ele>79.2</ele>
        <time>2017-12-18T18:52:35Z</time>
      </trkpt>
      <trkpt lat="62.630625324612" lon="17.973021928115">
        <ele>79.2</ele>
        <time>2017-12-18T18:52:36Z</time>
      </trkpt>
      <trkpt lat="62.630604956595" lon="17.972953196535">
        <ele>79</ele>
        <time>2017-12-18T18:52:37Z</time>
      </trkpt>
      <trkpt lat="62.630589701537" lon="17.972901815488">
        <ele>78.8</ele>
        <time>2017-12-18T18:52:38Z</time>
      </trkpt>
      <trkpt lat="62.630569584977" lon="17.97283375446">
        <ele>78.8</ele>
        <time>2017-12-18T18:52:39Z</time>
      </trkpt>
      <trkpt lat="62.630552234444" lon="17.972777847187">
        <ele>78.8</ele>
        <time>2017-12-18T18:52:40Z</time>
      </trkpt>
      <trkpt lat="62.630534380997" lon="17.972716826955">
        <ele>78.6</ele>
        <time>2017-12-18T18:52:41Z</time>
      </trkpt>
      <trkpt lat="62.630516779007" lon="17.972645329348">
        <ele>78.6</ele>
        <time>2017-12-18T18:52:42Z</time>
      </trkpt>
      <trkpt lat="62.630500350483" lon="17.972591685188">
        <ele>78.4</ele>
        <time>2017-12-18T18:52:43Z</time>
      </trkpt>
      <trkpt lat="62.63048216176" lon="17.972531838422">
        <ele>78.4</ele>
        <time>2017-12-18T18:52:44Z</time>
      </trkpt>
      <trkpt lat="62.630468080168" lon="17.972477272253">
        <ele>78.2</ele>
        <time>2017-12-18T18:52:45Z</time>
      </trkpt>
      <trkpt lat="62.630451064911" lon="17.972410552329">
        <ele>78.2</ele>
        <time>2017-12-18T18:52:46Z</time>
      </trkpt>
      <trkpt lat="62.630442431554" lon="17.972346011699">
        <ele>78</ele>
        <time>2017-12-18T18:52:47Z</time>
      </trkpt>
      <trkpt lat="62.630431702722" lon="17.972274933187">
        <ele>77.8</ele>
        <time>2017-12-18T18:52:48Z</time>
      </trkpt>
      <trkpt lat="62.630422734089" lon="17.97219673006">
        <ele>77.8</ele>
        <time>2017-12-18T18:52:49Z</time>
      </trkpt>
      <trkpt lat="62.630415693293" lon="17.972132524706">
        <ele>77.6</ele>
        <time>2017-12-18T18:52:50Z</time>
      </trkpt>
      <trkpt lat="62.630414519827" lon="17.972067481162">
        <ele>77.6</ele>
        <time>2017-12-18T18:52:51Z</time>
      </trkpt>
      <trkpt lat="62.630409574506" lon="17.971994055718">
        <ele>77.6</ele>
        <time>2017-12-18T18:52:52Z</time>
      </trkpt>
      <trkpt lat="62.630404629185" lon="17.97193605297">
        <ele>77.4</ele>
        <time>2017-12-18T18:52:53Z</time>
      </trkpt>
      <trkpt lat="62.630394570905" lon="17.971860783508">
        <ele>77.4</ele>
        <time>2017-12-18T18:52:54Z</time>
      </trkpt>
      <trkpt lat="62.630384764082" lon="17.971795656145">
        <ele>77.4</ele>
        <time>2017-12-18T18:52:55Z</time>
      </trkpt>
      <trkpt lat="62.63037738801" lon="17.971737485759">
        <ele>77.2</ele>
        <time>2017-12-18T18:52:56Z</time>
      </trkpt>
      <trkpt lat="62.630375627811" lon="17.971661881021">
        <ele>77.2</ele>
        <time>2017-12-18T18:52:57Z</time>
      </trkpt>
      <trkpt lat="62.630369676662" lon="17.97159658602">
        <ele>77.4</ele>
        <time>2017-12-18T18:52:58Z</time>
      </trkpt>
      <trkpt lat="62.630361210943" lon="17.971530033734">
        <ele>77.4</ele>
        <time>2017-12-18T18:52:59Z</time>
      </trkpt>
      <trkpt lat="62.630351068844" lon="17.971448310209">
        <ele>77.4</ele>
        <time>2017-12-18T18:53:00Z</time>
      </trkpt>
      <trkpt lat="62.630344279505" lon="17.971373543661">
        <ele>77.4</ele>
        <time>2017-12-18T18:53:01Z</time>
      </trkpt>
      <trkpt lat="62.630343944229" lon="17.971303470977">
        <ele>77.4</ele>
        <time>2017-12-18T18:53:02Z</time>
      </trkpt>
      <trkpt lat="62.630342100211" lon="17.971232560103">
        <ele>77.4</ele>
        <time>2017-12-18T18:53:03Z</time>
      </trkpt>
      <trkpt lat="62.630335646148" lon="17.971160056668">
        <ele>77.4</ele>
        <time>2017-12-18T18:53:04Z</time>
      </trkpt>
      <trkpt lat="62.630332293388" lon="17.971082104998">
        <ele>77.2</ele>
        <time>2017-12-18T18:53:05Z</time>
      </trkpt>
      <trkpt lat="62.630331036103" lon="17.971000046197">
        <ele>77.2</ele>
        <time>2017-12-18T18:53:06Z</time>
      </trkpt>
      <trkpt lat="62.630328605352" lon="17.970918406491">
        <ele>77</ele>
        <time>2017-12-18T18:53:07Z</time>
      </trkpt>
      <trkpt lat="62.630329359723" lon="17.970844478133">
        <ele>77</ele>
        <time>2017-12-18T18:53:08Z</time>
      </trkpt>
      <trkpt lat="62.630332461026" lon="17.970771639422">
        <ele>76.8</ele>
        <time>2017-12-18T18:53:09Z</time>
      </trkpt>
      <trkpt lat="62.630335646148" lon="17.970694861218">
        <ele>76.8</ele>
        <time>2017-12-18T18:53:10Z</time>
      </trkpt>
      <trkpt lat="62.630347464627" lon="17.970620346127">
        <ele>76.8</ele>
        <time>2017-12-18T18:53:11Z</time>
      </trkpt>
      <trkpt lat="62.630364312246" lon="17.970554548212">
        <ele>76.6</ele>
        <time>2017-12-18T18:53:12Z</time>
      </trkpt>
      <trkpt lat="62.630388033023" lon="17.970489253211">
        <ele>76.4</ele>
        <time>2017-12-18T18:53:13Z</time>
      </trkpt>
      <trkpt lat="62.630416699121" lon="17.970437788345">
        <ele>76.4</ele>
        <time>2017-12-18T18:53:14Z</time>
      </trkpt>
      <trkpt lat="62.630446622504" lon="17.970394370103">
        <ele>76.4</ele>
        <time>2017-12-18T18:53:15Z</time>
      </trkpt>
      <trkpt lat="62.630482245579" lon="17.970345419807">
        <ele>76</ele>
        <time>2017-12-18T18:53:16Z</time>
      </trkpt>
      <trkpt lat="62.630512671876" lon="17.970308371809">
        <ele>75.8</ele>
        <time>2017-12-18T18:53:17Z</time>
      </trkpt>
      <trkpt lat="62.630544942191" lon="17.970266881404">
        <ele>75.6</ele>
        <time>2017-12-18T18:53:18Z</time>
      </trkpt>
      <trkpt lat="62.630578302153" lon="17.970247435396">
        <ele>75.4</ele>
        <time>2017-12-18T18:53:19Z</time>
      </trkpt>
      <trkpt lat="62.630608644631" lon="17.970229917225">
        <ele>75</ele>
        <time>2017-12-18T18:53:20Z</time>
      </trkpt>
      <trkpt lat="62.630643513335" lon="17.970218182565">
        <ele>74.8</ele>
        <time>2017-12-18T18:53:21Z</time>
      </trkpt>
      <trkpt lat="62.630671173605" lon="17.970182978585">
        <ele>74.6</ele>
        <time>2017-12-18T18:53:22Z</time>
      </trkpt>
      <trkpt lat="62.63070092935" lon="17.970162778206">
        <ele>74.4</ele>
        <time>2017-12-18T18:53:23Z</time>
      </trkpt>
      <trkpt lat="62.630739989004" lon="17.970139308886">
        <ele>74.2</ele>
        <time>2017-12-18T18:53:24Z</time>
      </trkpt>
      <trkpt lat="62.630769996206" lon="17.970133441556">
        <ele>74.2</ele>
        <time>2017-12-18T18:53:25Z</time>
      </trkpt>
      <trkpt lat="62.630805451643" lon="17.970123131819">
        <ele>74</ele>
        <time>2017-12-18T18:53:26Z</time>
      </trkpt>
      <trkpt lat="62.630862783839" lon="17.970108295856">
        <ele>73.8</ele>
        <time>2017-12-18T18:53:28Z</time>
      </trkpt>
      <trkpt lat="62.630878457992" lon="17.970102260888">
        <ele>73.8</ele>
        <time>2017-12-18T18:53:29Z</time>
      </trkpt>
      <trkpt lat="62.630891282299" lon="17.970092370246">
        <ele>73.6</ele>
        <time>2017-12-18T18:53:30Z</time>
      </trkpt>
      <trkpt lat="62.63090209495" lon="17.970073930066">
        <ele>73.6</ele>
        <time>2017-12-18T18:53:31Z</time>
      </trkpt>
      <trkpt lat="62.630912237049" lon="17.970060435207">
        <ele>73.6</ele>
        <time>2017-12-18T18:53:32Z</time>
      </trkpt>
      <trkpt lat="62.630918439655" lon="17.97004593452">
        <ele>73.4</ele>
        <time>2017-12-18T18:53:33Z</time>
      </trkpt>
      <trkpt lat="62.630923217338" lon="17.970034367498">
        <ele>73.4</ele>
        <time>2017-12-18T18:53:34Z</time>
      </trkpt>
      <trkpt lat="62.630921792415" lon="17.9700308471">
        <ele>73.4</ele>
        <time>2017-12-18T18:53:35Z</time>
      </trkpt>
      <trkpt lat="62.630924893718" lon="17.970045263968">
        <ele>73.4</ele>
        <time>2017-12-18T18:53:36Z</time>
      </trkpt>
      <trkpt lat="62.630978873154" lon="17.970441895476">
        <ele>73.2</ele>
        <time>2017-12-18T18:58:30Z</time>
      </trkpt>
      <trkpt lat="62.630982393552" lon="17.970486990098">
        <ele>73.4</ele>
        <time>2017-12-18T18:58:31Z</time>
      </trkpt>
      <trkpt lat="62.630988093244" lon="17.970531078892">
        <ele>73.4</ele>
        <time>2017-12-18T18:58:32Z</time>
      </trkpt>
      <trkpt lat="62.630995050221" lon="17.970572653116">
        <ele>73.4</ele>
        <time>2017-12-18T18:58:33Z</time>
      </trkpt>
      <trkpt lat="62.63100351594" lon="17.970618753566">
        <ele>73.6</ele>
        <time>2017-12-18T18:58:34Z</time>
      </trkpt>
      <trkpt lat="62.631009970003" lon="17.970656388297">
        <ele>73.6</ele>
        <time>2017-12-18T18:58:35Z</time>
      </trkpt>
      <trkpt lat="62.631019190093" lon="17.97069804634">
        <ele>73.6</ele>
        <time>2017-12-18T18:58:36Z</time>
      </trkpt>
      <trkpt lat="62.63102614707" lon="17.970737608908">
        <ele>73.6</ele>
        <time>2017-12-18T18:58:37Z</time>
      </trkpt>
      <trkpt lat="62.631031679124" lon="17.970777506752">
        <ele>73.8</ele>
        <time>2017-12-18T18:58:38Z</time>
      </trkpt>
      <trkpt lat="62.631036456807" lon="17.970811453447">
        <ele>73.8</ele>
        <time>2017-12-18T18:58:39Z</time>
      </trkpt>
      <trkpt lat="62.631041569766" lon="17.970843388486">
        <ele>73.8</ele>
        <time>2017-12-18T18:58:40Z</time>
      </trkpt>
      <trkpt lat="62.631045173983" lon="17.970881358493">
        <ele>74</ele>
        <time>2017-12-18T18:58:41Z</time>
      </trkpt>
      <trkpt lat="62.631050370761" lon="17.970923100355">
        <ele>74</ele>
        <time>2017-12-18T18:58:42Z</time>
      </trkpt>
      <trkpt lat="62.631057830652" lon="17.970961573276">
        <ele>74.2</ele>
        <time>2017-12-18T18:58:43Z</time>
      </trkpt>
      <trkpt lat="62.631062859792" lon="17.971002057853">
        <ele>74.2</ele>
        <time>2017-12-18T18:58:44Z</time>
      </trkpt>
      <trkpt lat="62.631067805113" lon="17.971037764747">
        <ele>74.2</ele>
        <time>2017-12-18T18:58:45Z</time>
      </trkpt>
      <trkpt lat="62.631075265004" lon="17.971079925704">
        <ele>74.4</ele>
        <time>2017-12-18T18:58:46Z</time>
      </trkpt>
      <trkpt lat="62.631081802886" lon="17.971115213503">
        <ele>74.2</ele>
        <time>2017-12-18T18:58:47Z</time>
      </trkpt>
      <trkpt lat="62.631090771519" lon="17.971154776071">
        <ele>74.4</ele>
        <time>2017-12-18T18:58:48Z</time>
      </trkpt>
      <trkpt lat="62.631097477039" lon="17.971196182657">
        <ele>74.4</ele>
        <time>2017-12-18T18:58:49Z</time>
      </trkpt>
      <trkpt lat="62.631104182559" lon="17.971232141008">
        <ele>74.4</ele>
        <time>2017-12-18T18:58:50Z</time>
      </trkpt>
      <trkpt lat="62.631110468984" lon="17.971273212318">
        <ele>74.6</ele>
        <time>2017-12-18T18:58:51Z</time>
      </trkpt>
      <trkpt lat="62.631116420133" lon="17.971310344135">
        <ele>74.6</ele>
        <time>2017-12-18T18:58:52Z</time>
      </trkpt>
      <trkpt lat="62.631120694902" lon="17.971347056857">
        <ele>74.6</ele>
        <time>2017-12-18T18:58:53Z</time>
      </trkpt>
      <trkpt lat="62.631127735698" lon="17.971393073488">
        <ele>74.8</ele>
        <time>2017-12-18T18:58:54Z</time>
      </trkpt>
      <trkpt lat="62.6311325972" lon="17.97143732992">
        <ele>74.8</ele>
        <time>2017-12-18T18:58:55Z</time>
      </trkpt>
      <trkpt lat="62.631138296892" lon="17.971481670171">
        <ele>74.8</ele>
        <time>2017-12-18T18:58:56Z</time>
      </trkpt>
      <trkpt lat="62.631147265525" lon="17.971529614639">
        <ele>75</ele>
        <time>2017-12-18T18:58:57Z</time>
      </trkpt>
      <trkpt lat="62.631156234158" lon="17.971574541623">
        <ele>74.8</ele>
        <time>2017-12-18T18:58:58Z</time>
      </trkpt>
      <trkpt lat="62.631166292438" lon="17.971612427811">
        <ele>74.8</ele>
        <time>2017-12-18T18:58:59Z</time>
      </trkpt>
      <trkpt lat="62.631176853632" lon="17.971655343139">
        <ele>75</ele>
        <time>2017-12-18T18:59:00Z</time>
      </trkpt>
      <trkpt lat="62.63118540317" lon="17.971699767209">
        <ele>75</ele>
        <time>2017-12-18T18:59:01Z</time>
      </trkpt>
      <trkpt lat="62.631193030699" lon="17.971743436908">
        <ele>75</ele>
        <time>2017-12-18T18:59:02Z</time>
      </trkpt>
      <trkpt lat="62.631202586065" lon="17.971785849322">
        <ele>75</ele>
        <time>2017-12-18T18:59:03Z</time>
      </trkpt>
      <trkpt lat="62.631212895802" lon="17.971823064958">
        <ele>75.2</ele>
        <time>2017-12-18T18:59:04Z</time>
      </trkpt>
      <trkpt lat="62.631222534987" lon="17.971859442404">
        <ele>75.2</ele>
        <time>2017-12-18T18:59:05Z</time>
      </trkpt>
      <trkpt lat="62.631235275475" lon="17.971906967777">
        <ele>75.4</ele>
        <time>2017-12-18T18:59:06Z</time>
      </trkpt>
      <trkpt lat="62.631246171945" lon="17.971944770146">
        <ele>75.2</ele>
        <time>2017-12-18T18:59:07Z</time>
      </trkpt>
      <trkpt lat="62.631257571329" lon="17.971987266379">
        <ele>75.6</ele>
        <time>2017-12-18T18:59:08Z</time>
      </trkpt>
      <trkpt lat="62.631268803075" lon="17.972025990757">
        <ele>75.6</ele>
        <time>2017-12-18T18:59:09Z</time>
      </trkpt>
      <trkpt lat="62.631279783364" lon="17.972067564981">
        <ele>75.8</ele>
        <time>2017-12-18T18:59:10Z</time>
      </trkpt>
      <trkpt lat="62.631290596015" lon="17.972108887748">
        <ele>76</ele>
        <time>2017-12-18T18:59:11Z</time>
      </trkpt>
      <trkpt lat="62.631305431978" lon="17.972150210515">
        <ele>76</ele>
        <time>2017-12-18T18:59:12Z</time>
      </trkpt>
      <trkpt lat="62.631319765027" lon="17.972192120015">
        <ele>76</ele>
        <time>2017-12-18T18:59:13Z</time>
      </trkpt>
      <trkpt lat="62.631333511343" lon="17.972228916556">
        <ele>76.2</ele>
        <time>2017-12-18T18:59:14Z</time>
      </trkpt>
      <trkpt lat="62.631344575451" lon="17.972262025061">
        <ele>76.4</ele>
        <time>2017-12-18T18:59:15Z</time>
      </trkpt>
      <trkpt lat="62.631357651215" lon="17.972303766923">
        <ele>76.4</ele>
        <time>2017-12-18T18:59:16Z</time>
      </trkpt>
      <trkpt lat="62.631370140246" lon="17.972336623971">
        <ele>76.6</ele>
        <time>2017-12-18T18:59:17Z</time>
      </trkpt>
      <trkpt lat="62.631380617621" lon="17.972375599806">
        <ele>76.8</ele>
        <time>2017-12-18T18:59:18Z</time>
      </trkpt>
      <trkpt lat="62.631391011177" lon="17.972419101867">
        <ele>76.8</ele>
        <time>2017-12-18T18:59:19Z</time>
      </trkpt>
      <trkpt lat="62.631401740009" lon="17.972455982227">
        <ele>76.8</ele>
        <time>2017-12-18T18:59:20Z</time>
      </trkpt>
      <trkpt lat="62.631416492153" lon="17.972498310822">
        <ele>77</ele>
        <time>2017-12-18T18:59:21Z</time>
      </trkpt>
      <trkpt lat="62.631428142994" lon="17.972533598621">
        <ele>77.2</ele>
        <time>2017-12-18T18:59:22Z</time>
      </trkpt>
      <trkpt lat="62.63143937474" lon="17.972570311343">
        <ele>77.2</ele>
        <time>2017-12-18T18:59:23Z</time>
      </trkpt>
      <trkpt lat="62.631453204875" lon="17.972613478128">
        <ele>77.2</ele>
        <time>2017-12-18T18:59:24Z</time>
      </trkpt>
      <trkpt lat="62.631466448277" lon="17.972641557493">
        <ele>77.4</ele>
        <time>2017-12-18T18:59:25Z</time>
      </trkpt>
      <trkpt lat="62.631481368059" lon="17.972678102577">
        <ele>77.4</ele>
        <time>2017-12-18T18:59:26Z</time>
      </trkpt>
      <trkpt lat="62.631494862918" lon="17.972712468367">
        <ele>77.4</ele>
        <time>2017-12-18T18:59:27Z</time>
      </trkpt>
      <trkpt lat="62.631506849035" lon="17.972742475569">
        <ele>77.6</ele>
        <time>2017-12-18T18:59:28Z</time>
      </trkpt>
      <trkpt lat="62.631520176256" lon="17.972777176635">
        <ele>77.8</ele>
        <time>2017-12-18T18:59:29Z</time>
      </trkpt>
      <trkpt lat="62.631535347495" lon="17.972811542425">
        <ele>78</ele>
        <time>2017-12-18T18:59:30Z</time>
      </trkpt>
      <trkpt lat="62.631550602553" lon="17.972845405301">
        <ele>78</ele>
        <time>2017-12-18T18:59:31Z</time>
      </trkpt>
      <trkpt lat="62.631568456" lon="17.972889661733">
        <ele>78.2</ele>
        <time>2017-12-18T18:59:32Z</time>
      </trkpt>
      <trkpt lat="62.631584549248" lon="17.972923273152">
        <ele>78.4</ele>
        <time>2017-12-18T18:59:33Z</time>
      </trkpt>
      <trkpt lat="62.631600391039" lon="17.972958477132">
        <ele>78.4</ele>
        <time>2017-12-18T18:59:34Z</time>
      </trkpt>
      <trkpt lat="62.631613382984" lon="17.972987310868">
        <ele>78.8</ele>
        <time>2017-12-18T18:59:35Z</time>
      </trkpt>
      <trkpt lat="62.631629895327" lon="17.973019581183">
        <ele>78.8</ele>
        <time>2017-12-18T18:59:36Z</time>
      </trkpt>
      <trkpt lat="62.631646323851" lon="17.973053863154">
        <ele>78.8</ele>
        <time>2017-12-18T18:59:37Z</time>
      </trkpt>
      <trkpt lat="62.631662668556" lon="17.973086971659">
        <ele>79</ele>
        <time>2017-12-18T18:59:38Z</time>
      </trkpt>
      <trkpt lat="62.631677839795" lon="17.973115721576">
        <ele>79.2</ele>
        <time>2017-12-18T18:59:39Z</time>
      </trkpt>
      <trkpt lat="62.631693094853" lon="17.973146483149">
        <ele>79.2</ele>
        <time>2017-12-18T18:59:40Z</time>
      </trkpt>
      <trkpt lat="62.63170927192" lon="17.973174394876">
        <ele>79.4</ele>
        <time>2017-12-18T18:59:41Z</time>
      </trkpt>
      <trkpt lat="62.63172938848" lon="17.97320674901">
        <ele>79.4</ele>
        <time>2017-12-18T18:59:42Z</time>
      </trkpt>
      <trkpt lat="62.631748331574" lon="17.973236840031">
        <ele>79.6</ele>
        <time>2017-12-18T18:59:43Z</time>
      </trkpt>
      <trkpt lat="62.631765346831" lon="17.973263494473">
        <ele>79.6</ele>
        <time>2017-12-18T18:59:44Z</time>
      </trkpt>
      <trkpt lat="62.631783619373" lon="17.973291154743">
        <ele>79.6</ele>
        <time>2017-12-18T18:59:45Z</time>
      </trkpt>
      <trkpt lat="62.631803903571" lon="17.973321078126">
        <ele>79.8</ele>
        <time>2017-12-18T18:59:46Z</time>
      </trkpt>
      <trkpt lat="62.631821170285" lon="17.973343290161">
        <ele>79.8</ele>
        <time>2017-12-18T18:59:47Z</time>
      </trkpt>
      <trkpt lat="62.631841957397" lon="17.973373632639">
        <ele>79.8</ele>
        <time>2017-12-18T18:59:48Z</time>
      </trkpt>
      <trkpt lat="62.631859559387" lon="17.973402634013">
        <ele>79.8</ele>
        <time>2017-12-18T18:59:49Z</time>
      </trkpt>
      <trkpt lat="62.631875736454" lon="17.973426522428">
        <ele>79.8</ele>
        <time>2017-12-18T18:59:50Z</time>
      </trkpt>
      <trkpt lat="62.631896858842" lon="17.973455272345">
        <ele>79.8</ele>
        <time>2017-12-18T18:59:51Z</time>
      </trkpt>
      <trkpt lat="62.631915047565" lon="17.973481340054">
        <ele>80</ele>
        <time>2017-12-18T18:59:52Z</time>
      </trkpt>
      <trkpt lat="62.631933236288" lon="17.973506653392">
        <ele>80</ele>
        <time>2017-12-18T18:59:53Z</time>
      </trkpt>
      <trkpt lat="62.631953604305" lon="17.973535654766">
        <ele>80</ele>
        <time>2017-12-18T18:59:54Z</time>
      </trkpt>
      <trkpt lat="62.631970284286" lon="17.97355711243">
        <ele>80.2</ele>
        <time>2017-12-18T18:59:55Z</time>
      </trkpt>
      <trkpt lat="62.63199006557" lon="17.973585359433">
        <ele>80.2</ele>
        <time>2017-12-18T18:59:56Z</time>
      </trkpt>
      <trkpt lat="62.63200934394" lon="17.973608828753">
        <ele>80</ele>
        <time>2017-12-18T18:59:57Z</time>
      </trkpt>
      <trkpt lat="62.632028873767" lon="17.973628693856">
        <ele>80.2</ele>
        <time>2017-12-18T18:59:58Z</time>
      </trkpt>
      <trkpt lat="62.632049493241" lon="17.973650319158">
        <ele>80</ele>
        <time>2017-12-18T18:59:59Z</time>
      </trkpt>
      <trkpt lat="62.632070112715" lon="17.973673788478">
        <ele>80</ele>
        <time>2017-12-18T19:00:00Z</time>
      </trkpt>
      <trkpt lat="62.632093582035" lon="17.973696838703">
        <ele>80</ele>
        <time>2017-12-18T19:00:01Z</time>
      </trkpt>
      <trkpt lat="62.632115710251" lon="17.973719888928">
        <ele>80</ele>
        <time>2017-12-18T19:00:02Z</time>
      </trkpt>
      <trkpt lat="62.632137167915" lon="17.973741095135">
        <ele>80</ele>
        <time>2017-12-18T19:00:03Z</time>
      </trkpt>
      <trkpt lat="62.632155440457" lon="17.973768671586">
        <ele>80.2</ele>
        <time>2017-12-18T19:00:04Z</time>
      </trkpt>
      <trkpt lat="62.632169941144" lon="17.97379851115">
        <ele>80.2</ele>
        <time>2017-12-18T19:00:05Z</time>
      </trkpt>
      <trkpt lat="62.632188381324" lon="17.973831032922">
        <ele>80</ele>
        <time>2017-12-18T19:00:06Z</time>
      </trkpt>
      <trkpt lat="62.632205815676" lon="17.973852742043">
        <ele>80.2</ele>
        <time>2017-12-18T19:00:07Z</time>
      </trkpt>
      <trkpt lat="62.63222643515" lon="17.973872355689">
        <ele>80.2</ele>
        <time>2017-12-18T19:00:08Z</time>
      </trkpt>
      <trkpt lat="62.632246803167" lon="17.973893645715">
        <ele>80.2</ele>
        <time>2017-12-18T19:00:09Z</time>
      </trkpt>
      <trkpt lat="62.632264321338" lon="17.973914684284">
        <ele>80.2</ele>
        <time>2017-12-18T19:00:10Z</time>
      </trkpt>
      <trkpt lat="62.632284605536" lon="17.973937818328">
        <ele>80.4</ele>
        <time>2017-12-18T19:00:11Z</time>
      </trkpt>
      <trkpt lat="62.632307823399" lon="17.97396531096">
        <ele>80.4</ele>
        <time>2017-12-18T19:00:12Z</time>
      </trkpt>
      <trkpt lat="62.632329867796" lon="17.973989115556">
        <ele>80.4</ele>
        <time>2017-12-18T19:00:13Z</time>
      </trkpt>
      <trkpt lat="62.632353756211" lon="17.974012920152">
        <ele>80.4</ele>
        <time>2017-12-18T19:00:14Z</time>
      </trkpt>
      <trkpt lat="62.632371609658" lon="17.974031025056">
        <ele>80.4</ele>
        <time>2017-12-18T19:00:15Z</time>
      </trkpt>
      <trkpt lat="62.632396503901" lon="17.974056338394">
        <ele>80.4</ele>
        <time>2017-12-18T19:00:16Z</time>
      </trkpt>
      <trkpt lat="62.632416201366" lon="17.974080394447">
        <ele>80.4</ele>
        <time>2017-12-18T19:00:17Z</time>
      </trkpt>
      <trkpt lat="62.632438245763" lon="17.974104031405">
        <ele>80.6</ele>
        <time>2017-12-18T19:00:18Z</time>
      </trkpt>
      <trkpt lat="62.632463894377" lon="17.97412875801">
        <ele>80.4</ele>
        <time>2017-12-18T19:00:19Z</time>
      </trkpt>
      <trkpt lat="62.63248459767" lon="17.974149964217">
        <ele>80.4</ele>
        <time>2017-12-18T19:00:20Z</time>
      </trkpt>
      <trkpt lat="62.632508234628" lon="17.97417402027">
        <ele>80.6</ele>
        <time>2017-12-18T19:00:21Z</time>
      </trkpt>
      <trkpt lat="62.632530362844" lon="17.974197992504">
        <ele>80.6</ele>
        <time>2017-12-18T19:00:22Z</time>
      </trkpt>
      <trkpt lat="62.632548635386" lon="17.97422012072">
        <ele>80.4</ele>
        <time>2017-12-18T19:00:23Z</time>
      </trkpt>
      <trkpt lat="62.632571266516" lon="17.974243003307">
        <ele>80.6</ele>
        <time>2017-12-18T19:00:24Z</time>
      </trkpt>
      <trkpt lat="62.632589706696" lon="17.974269406292">
        <ele>80.6</ele>
        <time>2017-12-18T19:00:25Z</time>
      </trkpt>
      <trkpt lat="62.632610493808" lon="17.974294971087">
        <ele>80.6</ele>
        <time>2017-12-18T19:00:26Z</time>
      </trkpt>
      <trkpt lat="62.632632622024" lon="17.974318105131">
        <ele>80.6</ele>
        <time>2017-12-18T19:00:27Z</time>
      </trkpt>
      <trkpt lat="62.632647122711" lon="17.974347441781">
        <ele>80.8</ele>
        <time>2017-12-18T19:00:28Z</time>
      </trkpt>
      <trkpt lat="62.632666987814" lon="17.974366468694">
        <ele>80.8</ele>
        <time>2017-12-18T19:00:29Z</time>
      </trkpt>
      <trkpt lat="62.632687691107" lon="17.97438189139">
        <ele>80.8</ele>
        <time>2017-12-18T19:00:30Z</time>
      </trkpt>
      <trkpt lat="62.632710489875" lon="17.974394715697">
        <ele>80.6</ele>
        <time>2017-12-18T19:00:31Z</time>
      </trkpt>
      <trkpt lat="62.632732618091" lon="17.97439865519">
        <ele>80.6</ele>
        <time>2017-12-18T19:00:32Z</time>
      </trkpt>
      <trkpt lat="62.632756925601" lon="17.974395889163">
        <ele>80.6</ele>
        <time>2017-12-18T19:00:33Z</time>
      </trkpt>
      <trkpt lat="62.632779975826" lon="17.974392033489">
        <ele>80.6</ele>
        <time>2017-12-18T19:00:34Z</time>
      </trkpt>
      <trkpt lat="62.632798332187" lon="17.974381472295">
        <ele>80.4</ele>
        <time>2017-12-18T19:00:35Z</time>
      </trkpt>
      <trkpt lat="62.632820125127" lon="17.974358254432">
        <ele>80.6</ele>
        <time>2017-12-18T19:00:36Z</time>
      </trkpt>
      <trkpt lat="62.632837978574" lon="17.974330929438">
        <ele>80.6</ele>
        <time>2017-12-18T19:00:37Z</time>
      </trkpt>
      <trkpt lat="62.632850970519" lon="17.974293713802">
        <ele>80.8</ele>
        <time>2017-12-18T19:00:38Z</time>
      </trkpt>
      <trkpt lat="62.632862788998" lon="17.974250630836">
        <ele>80.8</ele>
        <time>2017-12-18T19:00:39Z</time>
      </trkpt>
      <trkpt lat="62.632874607477" lon="17.974210481535">
        <ele>80.8</ele>
        <time>2017-12-18T19:00:40Z</time>
      </trkpt>
      <trkpt lat="62.632884749576" lon="17.974170248415">
        <ele>80.8</ele>
        <time>2017-12-18T19:00:41Z</time>
      </trkpt>
      <trkpt lat="62.63289782534" lon="17.974126662535">
        <ele>80.8</ele>
        <time>2017-12-18T19:00:42Z</time>
      </trkpt>
      <trkpt lat="62.63290872181" lon="17.974079220981">
        <ele>80.8</ele>
        <time>2017-12-18T19:00:43Z</time>
      </trkpt>
      <trkpt lat="62.632916852253" lon="17.974037898214">
        <ele>80.8</ele>
        <time>2017-12-18T19:00:44Z</time>
      </trkpt>
      <trkpt lat="62.632925904705" lon="17.973998587103">
        <ele>80.8</ele>
        <time>2017-12-18T19:00:45Z</time>
      </trkpt>
      <trkpt lat="62.632937471727" lon="17.973955420318">
        <ele>80.8</ele>
        <time>2017-12-18T19:00:46Z</time>
      </trkpt>
      <trkpt lat="62.632945518351" lon="17.973919629605">
        <ele>80.6</ele>
        <time>2017-12-18T19:00:47Z</time>
      </trkpt>
      <trkpt lat="62.632955744269" lon="17.973874451164">
        <ele>80.6</ele>
        <time>2017-12-18T19:00:48Z</time>
      </trkpt>
      <trkpt lat="62.632968652395" lon="17.973828769809">
        <ele>80.6</ele>
        <time>2017-12-18T19:00:49Z</time>
      </trkpt>
      <trkpt lat="62.63297996796" lon="17.973788369051">
        <ele>80.6</ele>
        <time>2017-12-18T19:00:50Z</time>
      </trkpt>
      <trkpt lat="62.632991786439" lon="17.973736820366">
        <ele>80.4</ele>
        <time>2017-12-18T19:00:51Z</time>
      </trkpt>
      <trkpt lat="62.633005784212" lon="17.973689127355">
        <ele>80.4</ele>
        <time>2017-12-18T19:00:52Z</time>
      </trkpt>
      <trkpt lat="62.63301517194" lon="17.973643446">
        <ele>80.4</ele>
        <time>2017-12-18T19:00:53Z</time>
      </trkpt>
      <trkpt lat="62.633024056754" lon="17.97359147822">
        <ele>80.2</ele>
        <time>2017-12-18T19:00:54Z</time>
      </trkpt>
      <trkpt lat="62.633034366491" lon="17.973542527924">
        <ele>80.2</ele>
        <time>2017-12-18T19:00:55Z</time>
      </trkpt>
      <trkpt lat="62.633045430599" lon="17.97349005723">
        <ele>80.2</ele>
        <time>2017-12-18T19:00:56Z</time>
      </trkpt>
      <trkpt lat="62.633054985965" lon="17.973442950952">
        <ele>80</ele>
        <time>2017-12-18T19:00:57Z</time>
      </trkpt>
      <trkpt lat="62.633066217711" lon="17.973400454719">
        <ele>80</ele>
        <time>2017-12-18T19:00:58Z</time>
      </trkpt>
      <trkpt lat="62.633077365638" lon="17.973360389237">
        <ele>79.8</ele>
        <time>2017-12-18T19:00:59Z</time>
      </trkpt>
      <trkpt lat="62.633086585728" lon="17.973312863864">
        <ele>79.8</ele>
        <time>2017-12-18T19:01:00Z</time>
      </trkpt>
      <trkpt lat="62.633098404207" lon="17.973261566636">
        <ele>79.6</ele>
        <time>2017-12-18T19:01:01Z</time>
      </trkpt>
      <trkpt lat="62.633110977057" lon="17.973222255525">
        <ele>79.4</ele>
        <time>2017-12-18T19:01:02Z</time>
      </trkpt>
      <trkpt lat="62.633122376441" lon="17.973174562514">
        <ele>79.4</ele>
        <time>2017-12-18T19:01:03Z</time>
      </trkpt>
      <trkpt lat="62.633134614015" lon="17.97312544458">
        <ele>79.4</ele>
        <time>2017-12-18T19:01:04Z</time>
      </trkpt>
      <trkpt lat="62.633144672295" lon="17.973081439605">
        <ele>79.2</ele>
        <time>2017-12-18T19:01:05Z</time>
      </trkpt>
      <trkpt lat="62.63315598786" lon="17.973029471825">
        <ele>79.2</ele>
        <time>2017-12-18T19:01:06Z</time>
      </trkpt>
      <trkpt lat="62.633168979805" lon="17.972979934796">
        <ele>79.2</ele>
        <time>2017-12-18T19:01:07Z</time>
      </trkpt>
      <trkpt lat="62.63318029537" lon="17.972932241785">
        <ele>79</ele>
        <time>2017-12-18T19:01:08Z</time>
      </trkpt>
      <trkpt lat="62.633190186012" lon="17.972882537118">
        <ele>79</ele>
        <time>2017-12-18T19:01:09Z</time>
      </trkpt>
      <trkpt lat="62.633199992835" lon="17.97283543084">
        <ele>79</ele>
        <time>2017-12-18T19:01:10Z</time>
      </trkpt>
      <trkpt lat="62.633209045287" lon="17.972791928779">
        <ele>79</ele>
        <time>2017-12-18T19:01:11Z</time>
      </trkpt>
      <trkpt lat="62.633220193214" lon="17.972737530248">
        <ele>78.8</ele>
        <time>2017-12-18T19:01:12Z</time>
      </trkpt>
      <trkpt lat="62.633231927874" lon="17.972685059554">
        <ele>78.8</ele>
        <time>2017-12-18T19:01:13Z</time>
      </trkpt>
      <trkpt lat="62.633240058317" lon="17.972637366543">
        <ele>78.8</ele>
        <time>2017-12-18T19:01:14Z</time>
      </trkpt>
      <trkpt lat="62.633249781321" lon="17.972591014636">
        <ele>78.6</ele>
        <time>2017-12-18T19:01:15Z</time>
      </trkpt>
      <trkpt lat="62.633259420506" lon="17.972528066567">
        <ele>78.4</ele>
        <time>2017-12-18T19:01:16Z</time>
      </trkpt>
      <trkpt lat="62.633265371655" lon="17.972480625013">
        <ele>78.4</ele>
        <time>2017-12-18T19:01:17Z</time>
      </trkpt>
      <trkpt lat="62.63327417265" lon="17.972426980853">
        <ele>78.2</ele>
        <time>2017-12-18T19:01:18Z</time>
      </trkpt>
      <trkpt lat="62.63328339274" lon="17.972375683625">
        <ele>78.2</ele>
        <time>2017-12-18T19:01:19Z</time>
      </trkpt>
      <trkpt lat="62.633290349717" lon="17.97233000227">
        <ele>78</ele>
        <time>2017-12-18T19:01:20Z</time>
      </trkpt>
      <trkpt lat="62.633298144884" lon="17.972276861024">
        <ele>78</ele>
        <time>2017-12-18T19:01:21Z</time>
      </trkpt>
      <trkpt lat="62.633307029698" lon="17.97222522852">
        <ele>77.8</ele>
        <time>2017-12-18T19:01:22Z</time>
      </trkpt>
      <trkpt lat="62.63331608215" lon="17.972179463346">
        <ele>77.8</ele>
        <time>2017-12-18T19:01:23Z</time>
      </trkpt>
      <trkpt lat="62.633324380231" lon="17.972124394263">
        <ele>77.6</ele>
        <time>2017-12-18T19:01:24Z</time>
      </trkpt>
      <trkpt lat="62.633331756303" lon="17.972073013216">
        <ele>77.4</ele>
        <time>2017-12-18T19:01:25Z</time>
      </trkpt>
      <trkpt lat="62.633337539814" lon="17.972020626341">
        <ele>77.4</ele>
        <time>2017-12-18T19:01:26Z</time>
      </trkpt>
      <trkpt lat="62.633342652773" lon="17.971962539774">
        <ele>77.4</ele>
        <time>2017-12-18T19:01:27Z</time>
      </trkpt>
      <trkpt lat="62.633346508447" lon="17.971903447379">
        <ele>77.4</ele>
        <time>2017-12-18T19:01:28Z</time>
      </trkpt>
      <trkpt lat="62.633350867035" lon="17.97184552845">
        <ele>77.2</ele>
        <time>2017-12-18T19:01:29Z</time>
      </trkpt>
      <trkpt lat="62.633355560899" lon="17.971813174316">
        <ele>77.2</ele>
        <time>2017-12-18T19:01:30Z</time>
      </trkpt>
      <trkpt lat="62.633361260591" lon="17.971741173795">
        <ele>77.2</ele>
        <time>2017-12-18T19:01:31Z</time>
      </trkpt>
      <trkpt lat="62.633361428229" lon="17.971679985925">
        <ele>77</ele>
        <time>2017-12-18T19:01:32Z</time>
      </trkpt>
      <trkpt lat="62.633365032446" lon="17.97162256991">
        <ele>76.6</ele>
        <time>2017-12-18T19:01:33Z</time>
      </trkpt>
      <trkpt lat="62.633368301387" lon="17.971564567162">
        <ele>76.6</ele>
        <time>2017-12-18T19:01:34Z</time>
      </trkpt>
      <trkpt lat="62.633371318871" lon="17.971505642405">
        <ele>76.6</ele>
        <time>2017-12-18T19:01:35Z</time>
      </trkpt>
      <trkpt lat="62.633370648319" lon="17.97151276702">
        <ele>76.6</ele>
        <time>2017-12-18T19:01:36Z</time>
      </trkpt>
      <trkpt lat="62.633372827613" lon="17.97140631689">
        <ele>76.4</ele>
        <time>2017-12-18T19:01:37Z</time>
      </trkpt>
      <trkpt lat="62.633373749622" lon="17.971337250034">
        <ele>76.2</ele>
        <time>2017-12-18T19:01:38Z</time>
      </trkpt>
      <trkpt lat="62.633373162889" lon="17.971275307793">
        <ele>76.2</ele>
        <time>2017-12-18T19:01:39Z</time>
      </trkpt>
      <trkpt lat="62.633373581984" lon="17.9712210769">
        <ele>76</ele>
        <time>2017-12-18T19:01:40Z</time>
      </trkpt>
      <trkpt lat="62.633373749622" lon="17.971167935654">
        <ele>76</ele>
        <time>2017-12-18T19:01:41Z</time>
      </trkpt>
      <trkpt lat="62.633372995251" lon="17.971100042264">
        <ele>75.8</ele>
        <time>2017-12-18T19:01:42Z</time>
      </trkpt>
      <trkpt lat="62.63337391726" lon="17.971044134991">
        <ele>75.8</ele>
        <time>2017-12-18T19:01:43Z</time>
      </trkpt>
      <trkpt lat="62.633372576156" lon="17.970990155555">
        <ele>75.8</ele>
        <time>2017-12-18T19:01:44Z</time>
      </trkpt>
      <trkpt lat="62.63337224088" lon="17.970934248282">
        <ele>75.6</ele>
        <time>2017-12-18T19:01:45Z</time>
      </trkpt>
      <trkpt lat="62.633370229224" lon="17.97087490443">
        <ele>75.6</ele>
        <time>2017-12-18T19:01:46Z</time>
      </trkpt>
      <trkpt lat="62.633368217568" lon="17.970833246387">
        <ele>75.6</ele>
        <time>2017-12-18T19:01:47Z</time>
      </trkpt>
      <trkpt lat="62.633366792645" lon="17.970767532291">
        <ele>75.4</ele>
        <time>2017-12-18T19:01:48Z</time>
      </trkpt>
      <trkpt lat="62.633366289731" lon="17.970716235063">
        <ele>75.2</ele>
        <time>2017-12-18T19:01:49Z</time>
      </trkpt>
      <trkpt lat="62.633364529532" lon="17.970669799337">
        <ele>75.2</ele>
        <time>2017-12-18T19:01:50Z</time>
      </trkpt>
      <trkpt lat="62.633362350238" lon="17.970609365838">
        <ele>75.2</ele>
        <time>2017-12-18T19:01:51Z</time>
      </trkpt>
      <trkpt lat="62.633360422401" lon="17.970552955651">
        <ele>75</ele>
        <time>2017-12-18T19:01:52Z</time>
      </trkpt>
      <trkpt lat="62.633358494564" lon="17.970503418622">
        <ele>75</ele>
        <time>2017-12-18T19:01:53Z</time>
      </trkpt>
      <trkpt lat="62.63335631527" lon="17.970441392562">
        <ele>75</ele>
        <time>2017-12-18T19:01:54Z</time>
      </trkpt>
      <trkpt lat="62.633353968338" lon="17.970392442266">
        <ele>75</ele>
        <time>2017-12-18T19:01:55Z</time>
      </trkpt>
      <trkpt lat="62.633351789044" lon="17.970341145038">
        <ele>74.8</ele>
        <time>2017-12-18T19:01:56Z</time>
      </trkpt>
      <trkpt lat="62.633348268646" lon="17.970281885005">
        <ele>74.8</ele>
        <time>2017-12-18T19:01:57Z</time>
      </trkpt>
      <trkpt lat="62.633346927542" lon="17.970230587777">
        <ele>74.6</ele>
        <time>2017-12-18T19:01:58Z</time>
      </trkpt>
      <trkpt lat="62.633346005533" lon="17.970181134567">
        <ele>74.6</ele>
        <time>2017-12-18T19:01:59Z</time>
      </trkpt>
      <trkpt lat="62.633346843723" lon="17.97013394447">
        <ele>74.4</ele>
        <time>2017-12-18T19:02:00Z</time>
      </trkpt>
      <trkpt lat="62.633349442112" lon="17.970064123243">
        <ele>74.2</ele>
        <time>2017-12-18T19:02:01Z</time>
      </trkpt>
      <trkpt lat="62.633355309442" lon="17.970007461599">
        <ele>74</ele>
        <time>2017-12-18T19:02:02Z</time>
      </trkpt>
      <trkpt lat="62.633361092953" lon="17.969950799955">
        <ele>73.8</ele>
        <time>2017-12-18T19:02:03Z</time>
      </trkpt>
      <trkpt lat="62.633366960283" lon="17.969901849659">
        <ele>73.6</ele>
        <time>2017-12-18T19:02:04Z</time>
      </trkpt>
      <trkpt lat="62.633372576156" lon="17.969853653734">
        <ele>73.4</ele>
        <time>2017-12-18T19:02:05Z</time>
      </trkpt>
      <trkpt lat="62.633373581984" lon="17.969813169157">
        <ele>73.4</ele>
        <time>2017-12-18T19:02:06Z</time>
      </trkpt>
      <trkpt lat="62.63337643183" lon="17.969757932436">
        <ele>73.4</ele>
        <time>2017-12-18T19:02:07Z</time>
      </trkpt>
      <trkpt lat="62.633377772934" lon="17.969702611896">
        <ele>73.2</ele>
        <time>2017-12-18T19:02:08Z</time>
      </trkpt>
      <trkpt lat="62.633381293332" lon="17.969642932768">
        <ele>73</ele>
        <time>2017-12-18T19:02:09Z</time>
      </trkpt>
      <trkpt lat="62.633383891721" lon="17.969593395739">
        <ele>73</ele>
        <time>2017-12-18T19:02:10Z</time>
      </trkpt>
      <trkpt lat="62.633386322472" lon="17.969539332484">
        <ele>73</ele>
        <time>2017-12-18T19:02:11Z</time>
      </trkpt>
      <trkpt lat="62.633387244481" lon="17.969470265628">
        <ele>73</ele>
        <time>2017-12-18T19:02:12Z</time>
      </trkpt>
      <trkpt lat="62.633388501766" lon="17.969413855441">
        <ele>72.8</ele>
        <time>2017-12-18T19:02:13Z</time>
      </trkpt>
      <trkpt lat="62.633393027992" lon="17.969357193797">
        <ele>72.8</ele>
        <time>2017-12-18T19:02:14Z</time>
      </trkpt>
      <trkpt lat="62.633398140951" lon="17.969304806922">
        <ele>72.6</ele>
        <time>2017-12-18T19:02:15Z</time>
      </trkpt>
      <trkpt lat="62.633401158435" lon="17.969244289604">
        <ele>72.6</ele>
        <time>2017-12-18T19:02:16Z</time>
      </trkpt>
      <trkpt lat="62.633402750996" lon="17.969184610476">
        <ele>72.2</ele>
        <time>2017-12-18T19:02:17Z</time>
      </trkpt>
      <trkpt lat="62.633405097928" lon="17.969122081502">
        <ele>72</ele>
        <time>2017-12-18T19:02:18Z</time>
      </trkpt>
      <trkpt lat="62.633412390181" lon="17.969064162573">
        <ele>72</ele>
        <time>2017-12-18T19:02:19Z</time>
      </trkpt>
      <trkpt lat="62.633419933891" lon="17.969007920024">
        <ele>71.6</ele>
        <time>2017-12-18T19:02:20Z</time>
      </trkpt>
      <trkpt lat="62.633426304135" lon="17.968947654163">
        <ele>71.6</ele>
        <time>2017-12-18T19:02:21Z</time>
      </trkpt>
      <trkpt lat="62.633432255284" lon="17.968889316139">
        <ele>71.4</ele>
        <time>2017-12-18T19:02:22Z</time>
      </trkpt>
      <trkpt lat="62.633438122614" lon="17.968831313391">
        <ele>71.2</ele>
        <time>2017-12-18T19:02:23Z</time>
      </trkpt>
      <trkpt lat="62.633447845618" lon="17.968782279276">
        <ele>71</ele>
        <time>2017-12-18T19:02:24Z</time>
      </trkpt>
      <trkpt lat="62.633455054052" lon="17.968731149686">
        <ele>70.8</ele>
        <time>2017-12-18T19:02:25Z</time>
      </trkpt>
      <trkpt lat="62.633462597762" lon="17.968676667336">
        <ele>70.6</ele>
        <time>2017-12-18T19:02:26Z</time>
      </trkpt>
      <trkpt lat="62.63347198549" lon="17.968621262977">
        <ele>70.4</ele>
        <time>2017-12-18T19:02:27Z</time>
      </trkpt>
      <trkpt lat="62.633481876132" lon="17.968569127559">
        <ele>70</ele>
        <time>2017-12-18T19:02:28Z</time>
      </trkpt>
      <trkpt lat="62.63348958748" lon="17.968514393752">
        <ele>69.8</ele>
        <time>2017-12-18T19:02:29Z</time>
      </trkpt>
      <trkpt lat="62.633496376819" lon="17.968459827583">
        <ele>69.8</ele>
        <time>2017-12-18T19:02:30Z</time>
      </trkpt>
      <trkpt lat="62.633501825054" lon="17.968399896998">
        <ele>69.6</ele>
        <time>2017-12-18T19:02:31Z</time>
      </trkpt>
      <trkpt lat="62.633509452583" lon="17.968341475155">
        <ele>69.4</ele>
        <time>2017-12-18T19:02:32Z</time>
      </trkpt>
      <trkpt lat="62.633518588854" lon="17.968288166271">
        <ele>69.2</ele>
        <time>2017-12-18T19:02:33Z</time>
      </trkpt>
      <trkpt lat="62.633528228039" lon="17.968232342817">
        <ele>69.2</ele>
        <time>2017-12-18T19:02:34Z</time>
      </trkpt>
      <trkpt lat="62.63353568793" lon="17.968180375037">
        <ele>69</ele>
        <time>2017-12-18T19:02:35Z</time>
      </trkpt>
      <trkpt lat="62.633543399278" lon="17.968116588778">
        <ele>68.8</ele>
        <time>2017-12-18T19:02:36Z</time>
      </trkpt>
      <trkpt lat="62.633550356255" lon="17.96806026241">
        <ele>68.6</ele>
        <time>2017-12-18T19:02:37Z</time>
      </trkpt>
      <trkpt lat="62.633557313232" lon="17.968005696241">
        <ele>68.6</ele>
        <time>2017-12-18T19:02:38Z</time>
      </trkpt>
      <trkpt lat="62.633564773123" lon="17.967958087049">
        <ele>68.2</ele>
        <time>2017-12-18T19:02:39Z</time>
      </trkpt>
      <trkpt lat="62.633573741756" lon="17.967914165893">
        <ele>68.2</ele>
        <time>2017-12-18T19:02:40Z</time>
      </trkpt>
      <trkpt lat="62.633580866371" lon="17.967863455398">
        <ele>67.8</ele>
        <time>2017-12-18T19:02:41Z</time>
      </trkpt>
      <trkpt lat="62.633589248271" lon="17.967805285012">
        <ele>67.6</ele>
        <time>2017-12-18T19:02:42Z</time>
      </trkpt>
      <trkpt lat="62.633593774497" lon="17.967752395223">
        <ele>67.4</ele>
        <time>2017-12-18T19:02:43Z</time>
      </trkpt>
      <trkpt lat="62.63360190494" lon="17.967699673072">
        <ele>67.2</ele>
        <time>2017-12-18T19:02:44Z</time>
      </trkpt>
      <trkpt lat="62.633609532469" lon="17.96765122569">
        <ele>66.8</ele>
        <time>2017-12-18T19:02:45Z</time>
      </trkpt>
      <trkpt lat="62.633617495274" lon="17.967592636209">
        <ele>66.8</ele>
        <time>2017-12-18T19:02:46Z</time>
      </trkpt>
      <trkpt lat="62.63362537426" lon="17.96753555547">
        <ele>66.6</ele>
        <time>2017-12-18T19:02:47Z</time>
      </trkpt>
      <trkpt lat="62.633636522187" lon="17.967479480559">
        <ele>66.4</ele>
        <time>2017-12-18T19:02:48Z</time>
      </trkpt>
      <trkpt lat="62.633644401173" lon="17.96741904706">
        <ele>66.2</ele>
        <time>2017-12-18T19:02:49Z</time>
      </trkpt>
      <trkpt lat="62.63365135815" lon="17.967363977977">
        <ele>66</ele>
        <time>2017-12-18T19:02:50Z</time>
      </trkpt>
      <trkpt lat="62.633657309299" lon="17.967307651609">
        <ele>65.6</ele>
        <time>2017-12-18T19:02:51Z</time>
      </trkpt>
      <trkpt lat="62.633659907688" lon="17.967250906146">
        <ele>65.4</ele>
        <time>2017-12-18T19:02:52Z</time>
      </trkpt>
      <trkpt lat="62.633666613208" lon="17.967197261986">
        <ele>65.2</ele>
        <time>2017-12-18T19:02:53Z</time>
      </trkpt>
      <trkpt lat="62.633675414203" lon="17.967141438532">
        <ele>65</ele>
        <time>2017-12-18T19:02:54Z</time>
      </trkpt>
      <trkpt lat="62.633680275705" lon="17.967089889847">
        <ele>64.8</ele>
        <time>2017-12-18T19:02:55Z</time>
      </trkpt>
      <trkpt lat="62.633687148863" lon="17.967035407497">
        <ele>64.6</ele>
        <time>2017-12-18T19:02:56Z</time>
      </trkpt>
      <trkpt lat="62.633694608754" lon="17.966978410577">
        <ele>64.6</ele>
        <time>2017-12-18T19:02:57Z</time>
      </trkpt>
      <trkpt lat="62.63370332593" lon="17.966929125005">
        <ele>64.2</ele>
        <time>2017-12-18T19:02:58Z</time>
      </trkpt>
      <trkpt lat="62.633709863812" lon="17.966874558836">
        <ele>64</ele>
        <time>2017-12-18T19:02:59Z</time>
      </trkpt>
      <trkpt lat="62.633715982599" lon="17.966818316287">
        <ele>63.8</ele>
        <time>2017-12-18T19:03:00Z</time>
      </trkpt>
      <trkpt lat="62.633722939576" lon="17.966757798969">
        <ele>63.6</ele>
        <time>2017-12-18T19:03:01Z</time>
      </trkpt>
      <trkpt lat="62.63373014801" lon="17.966699460945">
        <ele>63.4</ele>
        <time>2017-12-18T19:03:02Z</time>
      </trkpt>
      <trkpt lat="62.633735931521" lon="17.966639614179">
        <ele>63.2</ele>
        <time>2017-12-18T19:03:03Z</time>
      </trkpt>
      <trkpt lat="62.633741966489" lon="17.966586472933">
        <ele>62.8</ele>
        <time>2017-12-18T19:03:04Z</time>
      </trkpt>
      <trkpt lat="62.633747582362" lon="17.966529895108">
        <ele>62.8</ele>
        <time>2017-12-18T19:03:05Z</time>
      </trkpt>
      <trkpt lat="62.633755880443" lon="17.966480358079">
        <ele>62.6</ele>
        <time>2017-12-18T19:03:06Z</time>
      </trkpt>
      <trkpt lat="62.633763507972" lon="17.966415565992">
        <ele>62.2</ele>
        <time>2017-12-18T19:03:07Z</time>
      </trkpt>
      <trkpt lat="62.633770800225" lon="17.966355132493">
        <ele>62</ele>
        <time>2017-12-18T19:03:08Z</time>
      </trkpt>
      <trkpt lat="62.633777421926" lon="17.966298470849">
        <ele>61.8</ele>
        <time>2017-12-18T19:03:09Z</time>
      </trkpt>
      <trkpt lat="62.633783959808" lon="17.966246251612">
        <ele>61.6</ele>
        <time>2017-12-18T19:03:10Z</time>
      </trkpt>
      <trkpt lat="62.633790832966" lon="17.966189757606">
        <ele>61.2</ele>
        <time>2017-12-18T19:03:11Z</time>
      </trkpt>
      <trkpt lat="62.633798292857" lon="17.966128150641">
        <ele>61</ele>
        <time>2017-12-18T19:03:12Z</time>
      </trkpt>
      <trkpt lat="62.633805501291" lon="17.966077859241">
        <ele>60.8</ele>
        <time>2017-12-18T19:03:13Z</time>
      </trkpt>
      <trkpt lat="62.633814386105" lon="17.966023795986">
        <ele>60.4</ele>
        <time>2017-12-18T19:03:14Z</time>
      </trkpt>
      <trkpt lat="62.633822097453" lon="17.965976186794">
        <ele>60.2</ele>
        <time>2017-12-18T19:03:15Z</time>
      </trkpt>
      <trkpt lat="62.633823606195" lon="17.965910556517">
        <ele>60</ele>
        <time>2017-12-18T19:03:16Z</time>
      </trkpt>
      <trkpt lat="62.633826456041" lon="17.965852637588">
        <ele>60</ele>
        <time>2017-12-18T19:03:17Z</time>
      </trkpt>
      <trkpt lat="62.633830646991" lon="17.965791198261">
        <ele>59.6</ele>
        <time>2017-12-18T19:03:18Z</time>
      </trkpt>
      <trkpt lat="62.633832993923" lon="17.965736715911">
        <ele>59.6</ele>
        <time>2017-12-18T19:03:19Z</time>
      </trkpt>
      <trkpt lat="62.633834335027" lon="17.965676030955">
        <ele>59.4</ele>
        <time>2017-12-18T19:03:20Z</time>
      </trkpt>
      <trkpt lat="62.633832491009" lon="17.96561442399">
        <ele>59.4</ele>
        <time>2017-12-18T19:03:21Z</time>
      </trkpt>
      <trkpt lat="62.633829808801" lon="17.96555658888">
        <ele>59.2</ele>
        <time>2017-12-18T19:03:22Z</time>
      </trkpt>
      <trkpt lat="62.63382905443" lon="17.965501855073">
        <ele>59</ele>
        <time>2017-12-18T19:03:23Z</time>
      </trkpt>
      <trkpt lat="62.633827042774" lon="17.965443768506">
        <ele>58.8</ele>
        <time>2017-12-18T19:03:24Z</time>
      </trkpt>
      <trkpt lat="62.633824612023" lon="17.965390543441">
        <ele>58.6</ele>
        <time>2017-12-18T19:03:25Z</time>
      </trkpt>
      <trkpt lat="62.633820756349" lon="17.965328685019">
        <ele>58.4</ele>
        <time>2017-12-18T19:03:26Z</time>
      </trkpt>
      <trkpt lat="62.63381731977" lon="17.965266658959">
        <ele>58</ele>
        <time>2017-12-18T19:03:27Z</time>
      </trkpt>
      <trkpt lat="62.633812877363" lon="17.965213098618">
        <ele>58</ele>
        <time>2017-12-18T19:03:28Z</time>
      </trkpt>
      <trkpt lat="62.633810278974" lon="17.965156939888">
        <ele>57.8</ele>
        <time>2017-12-18T19:03:29Z</time>
      </trkpt>
      <trkpt lat="62.633809273146" lon="17.965102792814">
        <ele>57.6</ele>
        <time>2017-12-18T19:03:30Z</time>
      </trkpt>
      <trkpt lat="62.633807932042" lon="17.965043784238">
        <ele>57.2</ele>
        <time>2017-12-18T19:03:31Z</time>
      </trkpt>
      <trkpt lat="62.633811620078" lon="17.964985362395">
        <ele>57.2</ele>
        <time>2017-12-18T19:03:32Z</time>
      </trkpt>
      <trkpt lat="62.633817571227" lon="17.964930796226">
        <ele>56.8</ele>
        <time>2017-12-18T19:03:33Z</time>
      </trkpt>
      <trkpt lat="62.633830311715" lon="17.964891401296">
        <ele>56.6</ele>
        <time>2017-12-18T19:03:34Z</time>
      </trkpt>
      <trkpt lat="62.633849506266" lon="17.964859550076">
        <ele>56.4</ele>
        <time>2017-12-18T19:03:35Z</time>
      </trkpt>
      <trkpt lat="62.633878088545" lon="17.964828369408">
        <ele>56.2</ele>
        <time>2017-12-18T19:03:36Z</time>
      </trkpt>
      <trkpt lat="62.633906587005" lon="17.964815377463">
        <ele>56</ele>
        <time>2017-12-18T19:03:37Z</time>
      </trkpt>
      <trkpt lat="62.633932487076" lon="17.964814203997">
        <ele>55.8</ele>
        <time>2017-12-18T19:03:38Z</time>
      </trkpt>
      <trkpt lat="62.633956962224" lon="17.964805486821">
        <ele>55.4</ele>
        <time>2017-12-18T19:03:39Z</time>
      </trkpt>
      <trkpt lat="62.63398328139" lon="17.964795009446">
        <ele>55.4</ele>
        <time>2017-12-18T19:03:40Z</time>
      </trkpt>
      <trkpt lat="62.634007505081" lon="17.964786208451">
        <ele>55.2</ele>
        <time>2017-12-18T19:03:41Z</time>
      </trkpt>
      <trkpt lat="62.634034746256" lon="17.964780005845">
        <ele>55.2</ele>
        <time>2017-12-18T19:03:42Z</time>
      </trkpt>
      <trkpt lat="62.634061903612" lon="17.964778329465">
        <ele>55</ele>
        <time>2017-12-18T19:03:43Z</time>
      </trkpt>
      <trkpt lat="62.634085959665" lon="17.964776150171">
        <ele>54.8</ele>
        <time>2017-12-18T19:03:44Z</time>
      </trkpt>
      <trkpt lat="62.634109931899" lon="17.964772294497">
        <ele>54.8</ele>
        <time>2017-12-18T19:03:45Z</time>
      </trkpt>
      <trkpt lat="62.634137089255" lon="17.96477204304">
        <ele>54.6</ele>
        <time>2017-12-18T19:03:46Z</time>
      </trkpt>
      <trkpt lat="62.634161061489" lon="17.964770953393">
        <ele>54.6</ele>
        <time>2017-12-18T19:03:47Z</time>
      </trkpt>
      <trkpt lat="62.634186374827" lon="17.964769360832">
        <ele>54.4</ele>
        <time>2017-12-18T19:03:48Z</time>
      </trkpt>
      <trkpt lat="62.634209760328" lon="17.964782604234">
        <ele>54.4</ele>
        <time>2017-12-18T19:03:49Z</time>
      </trkpt>
      <trkpt lat="62.634229290155" lon="17.964789058297">
        <ele>54.4</ele>
        <time>2017-12-18T19:03:50Z</time>
      </trkpt>
      <trkpt lat="62.634258123891" lon="17.964801798785">
        <ele>54.4</ele>
        <time>2017-12-18T19:03:51Z</time>
      </trkpt>
      <trkpt lat="62.634283856324" lon="17.964804397174">
        <ele>54.4</ele>
        <time>2017-12-18T19:03:52Z</time>
      </trkpt>
      <trkpt lat="62.634307074187" lon="17.964802888432">
        <ele>54.4</ele>
        <time>2017-12-18T19:03:53Z</time>
      </trkpt>
      <trkpt lat="62.634335153552" lon="17.964802050242">
        <ele>54.4</ele>
        <time>2017-12-18T19:03:54Z</time>
      </trkpt>
      <trkpt lat="62.634360634528" lon="17.964798446025">
        <ele>54.2</ele>
        <time>2017-12-18T19:03:55Z</time>
      </trkpt>
      <trkpt lat="62.63438561259" lon="17.964794422713">
        <ele>54.2</ele>
        <time>2017-12-18T19:03:56Z</time>
      </trkpt>
      <trkpt lat="62.634414362507" lon="17.964793249247">
        <ele>54.2</ele>
        <time>2017-12-18T19:03:57Z</time>
      </trkpt>
      <trkpt lat="62.634437915646" lon="17.964797021102">
        <ele>54.2</ele>
        <time>2017-12-18T19:03:58Z</time>
      </trkpt>
      <trkpt lat="62.63445853512" lon="17.964793752161">
        <ele>54.2</ele>
        <time>2017-12-18T19:03:59Z</time>
      </trkpt>
      <trkpt lat="62.634484016096" lon="17.964797859292">
        <ele>54</ele>
        <time>2017-12-18T19:04:00Z</time>
      </trkpt>
      <trkpt lat="62.634512263099" lon="17.964799368034">
        <ele>54</ele>
        <time>2017-12-18T19:04:01Z</time>
      </trkpt>
      <trkpt lat="62.634535313324" lon="17.964799870948">
        <ele>54</ele>
        <time>2017-12-18T19:04:02Z</time>
      </trkpt>
      <trkpt lat="62.634562805956" lon="17.964802636975">
        <ele>54</ele>
        <time>2017-12-18T19:04:03Z</time>
      </trkpt>
      <trkpt lat="62.634587448742" lon="17.96480137969">
        <ele>54</ele>
        <time>2017-12-18T19:04:04Z</time>
      </trkpt>
      <trkpt lat="62.634608403492" lon="17.964802385518">
        <ele>53.8</ele>
        <time>2017-12-18T19:04:05Z</time>
      </trkpt>
      <trkpt lat="62.63463874597" lon="17.964803726622">
        <ele>53.8</ele>
        <time>2017-12-18T19:04:06Z</time>
      </trkpt>
      <trkpt lat="62.634665400412" lon="17.964800792957">
        <ele>53.8</ele>
        <time>2017-12-18T19:04:07Z</time>
      </trkpt>
      <trkpt lat="62.634691300483" lon="17.964801463509">
        <ele>53.8</ele>
        <time>2017-12-18T19:04:08Z</time>
      </trkpt>
      <trkpt lat="62.63471585945" lon="17.964800457681">
        <ele>53.6</ele>
        <time>2017-12-18T19:04:09Z</time>
      </trkpt>
      <trkpt lat="62.634739412589" lon="17.964798194568">
        <ele>53.6</ele>
        <time>2017-12-18T19:04:10Z</time>
      </trkpt>
      <trkpt lat="62.63476112171" lon="17.964793752161">
        <ele>53.4</ele>
        <time>2017-12-18T19:04:11Z</time>
      </trkpt>
      <trkpt lat="62.634789201075" lon="17.964788052469">
        <ele>53.4</ele>
        <time>2017-12-18T19:04:12Z</time>
      </trkpt>
      <trkpt lat="62.634813508585" lon="17.964786459908">
        <ele>53.2</ele>
        <time>2017-12-18T19:04:13Z</time>
      </trkpt>
      <trkpt lat="62.634838151371" lon="17.964783274786">
        <ele>53.2</ele>
        <time>2017-12-18T19:04:14Z</time>
      </trkpt>
      <trkpt lat="62.634863883804" lon="17.964783610062">
        <ele>53</ele>
        <time>2017-12-18T19:04:15Z</time>
      </trkpt>
      <trkpt lat="62.634891711712" lon="17.964780844035">
        <ele>53</ele>
        <time>2017-12-18T19:04:16Z</time>
      </trkpt>
      <trkpt lat="62.634914594299" lon="17.964774809067">
        <ele>53</ele>
        <time>2017-12-18T19:04:17Z</time>
      </trkpt>
      <trkpt lat="62.634945607329" lon="17.964777575094">
        <ele>53</ele>
        <time>2017-12-18T19:04:18Z</time>
      </trkpt>
      <trkpt lat="62.63497066921" lon="17.96477371942">
        <ele>53</ele>
        <time>2017-12-18T19:04:19Z</time>
      </trkpt>
      <trkpt lat="62.634994222349" lon="17.964765672796">
        <ele>53</ele>
        <time>2017-12-18T19:04:20Z</time>
      </trkpt>
      <trkpt lat="62.635023391361" lon="17.964756536525">
        <ele>53</ele>
        <time>2017-12-18T19:04:21Z</time>
      </trkpt>
      <trkpt lat="62.635048956156" lon="17.96475444105">
        <ele>52.8</ele>
        <time>2017-12-18T19:04:22Z</time>
      </trkpt>
      <trkpt lat="62.635070162363" lon="17.964745304779">
        <ele>52.8</ele>
        <time>2017-12-18T19:04:23Z</time>
      </trkpt>
      <trkpt lat="62.635096062434" lon="17.964731726101">
        <ele>52.8</ele>
        <time>2017-12-18T19:04:24Z</time>
      </trkpt>
      <trkpt lat="62.63511902884" lon="17.964721081088">
        <ele>52.6</ele>
        <time>2017-12-18T19:04:25Z</time>
      </trkpt>
      <trkpt lat="62.635142246703" lon="17.964706831858">
        <ele>52.6</ele>
        <time>2017-12-18T19:04:26Z</time>
      </trkpt>
      <trkpt lat="62.63516764386" lon="17.964695935388">
        <ele>52.6</ele>
        <time>2017-12-18T19:04:27Z</time>
      </trkpt>
      <trkpt lat="62.635192873379" lon="17.964686128565">
        <ele>52.6</ele>
        <time>2017-12-18T19:04:28Z</time>
      </trkpt>
      <trkpt lat="62.635214331043" lon="17.964677746665">
        <ele>52.6</ele>
        <time>2017-12-18T19:04:29Z</time>
      </trkpt>
      <trkpt lat="62.635239560562" lon="17.964670370593">
        <ele>52.4</ele>
        <time>2017-12-18T19:04:30Z</time>
      </trkpt>
      <trkpt lat="62.635265795909" lon="17.96466391653">
        <ele>52.4</ele>
        <time>2017-12-18T19:04:31Z</time>
      </trkpt>
      <trkpt lat="62.635290187238" lon="17.964653606793">
        <ele>52.4</ele>
        <time>2017-12-18T19:04:32Z</time>
      </trkpt>
      <trkpt lat="62.635317093137" lon="17.96464631454">
        <ele>52.2</ele>
        <time>2017-12-18T19:04:33Z</time>
      </trkpt>
      <trkpt lat="62.635342155018" lon="17.964635753346">
        <ele>52.2</ele>
        <time>2017-12-18T19:04:34Z</time>
      </trkpt>
      <trkpt lat="62.635363109768" lon="17.964624186324">
        <ele>52.2</ele>
        <time>2017-12-18T19:04:35Z</time>
      </trkpt>
      <trkpt lat="62.635394038979" lon="17.964607422524">
        <ele>52.2</ele>
        <time>2017-12-18T19:04:36Z</time>
      </trkpt>
      <trkpt lat="62.635420441964" lon="17.964594430579">
        <ele>52</ele>
        <time>2017-12-18T19:04:37Z</time>
      </trkpt>
      <trkpt lat="62.635444581836" lon="17.964579594616">
        <ele>52</ele>
        <time>2017-12-18T19:04:38Z</time>
      </trkpt>
      <trkpt lat="62.635472325925" lon="17.964566602671">
        <ele>52</ele>
        <time>2017-12-18T19:04:39Z</time>
      </trkpt>
      <trkpt lat="62.635495627607" lon="17.96455495183">
        <ele>51.8</ele>
        <time>2017-12-18T19:04:40Z</time>
      </trkpt>
      <trkpt lat="62.635518594013" lon="17.964538355668">
        <ele>52</ele>
        <time>2017-12-18T19:04:41Z</time>
      </trkpt>
      <trkpt lat="62.635547260111" lon="17.964521591868">
        <ele>51.8</ele>
        <time>2017-12-18T19:04:42Z</time>
      </trkpt>
      <trkpt lat="62.635572321992" lon="17.964509521932">
        <ele>51.8</ele>
        <time>2017-12-18T19:04:43Z</time>
      </trkpt>
      <trkpt lat="62.635597970606" lon="17.964494350693">
        <ele>51.8</ele>
        <time>2017-12-18T19:04:44Z</time>
      </trkpt>
      <trkpt lat="62.635622026659" lon="17.964478257445">
        <ele>51.8</ele>
        <time>2017-12-18T19:04:45Z</time>
      </trkpt>
      <trkpt lat="62.635646417988" lon="17.964460990731">
        <ele>51.6</ele>
        <time>2017-12-18T19:04:46Z</time>
      </trkpt>
      <trkpt lat="62.635670054946" lon="17.964445903311">
        <ele>51.8</ele>
        <time>2017-12-18T19:04:47Z</time>
      </trkpt>
      <trkpt lat="62.635696709388" lon="17.964419081231">
        <ele>51.8</ele>
        <time>2017-12-18T19:04:48Z</time>
      </trkpt>
      <trkpt lat="62.635720094889" lon="17.964406173105">
        <ele>51.6</ele>
        <time>2017-12-18T19:04:49Z</time>
      </trkpt>
      <trkpt lat="62.635744234761" lon="17.964387481468">
        <ele>51.6</ele>
        <time>2017-12-18T19:04:50Z</time>
      </trkpt>
      <trkpt lat="62.635772481764" lon="17.964366275261">
        <ele>51.6</ele>
        <time>2017-12-18T19:04:51Z</time>
      </trkpt>
      <trkpt lat="62.635796537817" lon="17.964348924728">
        <ele>51.4</ele>
        <time>2017-12-18T19:04:52Z</time>
      </trkpt>
      <trkpt lat="62.635821264422" lon="17.964332999118">
        <ele>51.4</ele>
        <time>2017-12-18T19:04:53Z</time>
      </trkpt>
      <trkpt lat="62.635847835045" lon="17.964311289997">
        <ele>51.4</ele>
        <time>2017-12-18T19:04:54Z</time>
      </trkpt>
      <trkpt lat="62.635870801451" lon="17.964293268912">
        <ele>51.2</ele>
        <time>2017-12-18T19:04:55Z</time>
      </trkpt>
      <trkpt lat="62.635895108961" lon="17.9642724818">
        <ele>51.2</ele>
        <time>2017-12-18T19:04:56Z</time>
      </trkpt>
      <trkpt lat="62.635922685412" lon="17.96425068886">
        <ele>51.2</ele>
        <time>2017-12-18T19:04:57Z</time>
      </trkpt>
      <trkpt lat="62.635945819456" lon="17.964229817929">
        <ele>51</ele>
        <time>2017-12-18T19:04:58Z</time>
      </trkpt>
      <trkpt lat="62.63597062988" lon="17.964208108808">
        <ele>51</ele>
        <time>2017-12-18T19:04:59Z</time>
      </trkpt>
      <trkpt lat="62.635994350657" lon="17.964182376375">
        <ele>51</ele>
        <time>2017-12-18T19:05:00Z</time>
      </trkpt>
      <trkpt lat="62.636020418366" lon="17.964158320322">
        <ele>51</ele>
        <time>2017-12-18T19:05:01Z</time>
      </trkpt>
      <trkpt lat="62.636046569894" lon="17.964136359744">
        <ele>50.8</ele>
        <time>2017-12-18T19:05:02Z</time>
      </trkpt>
      <trkpt lat="62.636073224336" lon="17.964117500469">
        <ele>50.8</ele>
        <time>2017-12-18T19:05:03Z</time>
      </trkpt>
      <trkpt lat="62.636093927629" lon="17.964094282606">
        <ele>50.8</ele>
        <time>2017-12-18T19:05:04Z</time>
      </trkpt>
      <trkpt lat="62.636114547103" lon="17.96406712525">
        <ele>50.8</ele>
        <time>2017-12-18T19:05:05Z</time>
      </trkpt>
      <trkpt lat="62.636140111898" lon="17.964040889903">
        <ele>50.8</ele>
        <time>2017-12-18T19:05:06Z</time>
      </trkpt>
      <trkpt lat="62.636161904838" lon="17.964016247117">
        <ele>50.8</ele>
        <time>2017-12-18T19:05:07Z</time>
      </trkpt>
      <trkpt lat="62.636185709434" lon="17.963988503028">
        <ele>50.8</ele>
        <time>2017-12-18T19:05:08Z</time>
      </trkpt>
      <trkpt lat="62.636207250917" lon="17.963962770595">
        <ele>50.8</ele>
        <time>2017-12-18T19:05:09Z</time>
      </trkpt>
      <trkpt lat="62.636226026373" lon="17.963935697058">
        <ele>50.6</ele>
        <time>2017-12-18T19:05:10Z</time>
      </trkpt>
      <trkpt lat="62.636246813485" lon="17.963905270761">
        <ele>50.6</ele>
        <time>2017-12-18T19:05:11Z</time>
      </trkpt>
      <trkpt lat="62.636269109339" lon="17.96387350336">
        <ele>50.6</ele>
        <time>2017-12-18T19:05:12Z</time>
      </trkpt>
      <trkpt lat="62.636290315546" lon="17.963848525298">
        <ele>50.6</ele>
        <time>2017-12-18T19:05:13Z</time>
      </trkpt>
      <trkpt lat="62.636312695219" lon="17.963822709046">
        <ele>50.6</ele>
        <time>2017-12-18T19:05:14Z</time>
      </trkpt>
      <trkpt lat="62.636330800123" lon="17.963798736812">
        <ele>50.4</ele>
        <time>2017-12-18T19:05:15Z</time>
      </trkpt>
      <trkpt lat="62.636352173968" lon="17.963769903076">
        <ele>50.4</ele>
        <time>2017-12-18T19:05:16Z</time>
      </trkpt>
      <trkpt lat="62.636372625804" lon="17.963743416272">
        <ele>50.4</ele>
        <time>2017-12-18T19:05:17Z</time>
      </trkpt>
      <trkpt lat="62.636394502563" lon="17.963712067966">
        <ele>50.2</ele>
        <time>2017-12-18T19:05:18Z</time>
      </trkpt>
      <trkpt lat="62.636414367666" lon="17.963686419352">
        <ele>50</ele>
        <time>2017-12-18T19:05:19Z</time>
      </trkpt>
      <trkpt lat="62.636434232769" lon="17.963661944204">
        <ele>50</ele>
        <time>2017-12-18T19:05:20Z</time>
      </trkpt>
      <trkpt lat="62.636454936062" lon="17.963636547047">
        <ele>50</ele>
        <time>2017-12-18T19:05:21Z</time>
      </trkpt>
      <trkpt lat="62.636474298251" lon="17.963623974197">
        <ele>49.8</ele>
        <time>2017-12-18T19:05:22Z</time>
      </trkpt>
      <trkpt lat="62.636496091191" lon="17.963630763536">
        <ele>49.8</ele>
        <time>2017-12-18T19:05:23Z</time>
      </trkpt>
      <trkpt lat="62.636519560511" lon="17.96365808853">
        <ele>49.8</ele>
        <time>2017-12-18T19:05:24Z</time>
      </trkpt>
      <trkpt lat="62.63653976089" lon="17.963682982773">
        <ele>49.8</ele>
        <time>2017-12-18T19:05:25Z</time>
      </trkpt>
      <trkpt lat="62.636563314029" lon="17.96371005631">
        <ele>49.8</ele>
        <time>2017-12-18T19:05:26Z</time>
      </trkpt>
      <trkpt lat="62.636586196616" lon="17.963739979693">
        <ele>50</ele>
        <time>2017-12-18T19:05:27Z</time>
      </trkpt>
      <trkpt lat="62.636605642624" lon="17.963765712126">
        <ele>50</ele>
        <time>2017-12-18T19:05:28Z</time>
      </trkpt>
      <trkpt lat="62.636625507727" lon="17.963795467871">
        <ele>50</ele>
        <time>2017-12-18T19:05:29Z</time>
      </trkpt>
      <trkpt lat="62.636645289011" lon="17.963830839489">
        <ele>50</ele>
        <time>2017-12-18T19:05:30Z</time>
      </trkpt>
      <trkpt lat="62.636663980648" lon="17.963867384573">
        <ele>50</ele>
        <time>2017-12-18T19:05:31Z</time>
      </trkpt>
      <trkpt lat="62.636682672285" lon="17.963904097295">
        <ele>49.8</ele>
        <time>2017-12-18T19:05:32Z</time>
      </trkpt>
      <trkpt lat="62.636699771361" lon="17.96394474951">
        <ele>49.8</ele>
        <time>2017-12-18T19:05:33Z</time>
      </trkpt>
      <trkpt lat="62.636712511849" lon="17.963976852187">
        <ele>49.8</ele>
        <time>2017-12-18T19:05:34Z</time>
      </trkpt>
      <trkpt lat="62.636726425803" lon="17.964009793054">
        <ele>49.8</ele>
        <time>2017-12-18T19:05:35Z</time>
      </trkpt>
      <trkpt lat="62.636742099956" lon="17.964055893504">
        <ele>50</ele>
        <time>2017-12-18T19:05:36Z</time>
      </trkpt>
      <trkpt lat="62.636755930091" lon="17.964090510751">
        <ele>50</ele>
        <time>2017-12-18T19:05:37Z</time>
      </trkpt>
      <trkpt lat="62.636771855701" lon="17.9641299895">
        <ele>50</ele>
        <time>2017-12-18T19:05:38Z</time>
      </trkpt>
      <trkpt lat="62.636788954777" lon="17.96416770805">
        <ele>50</ele>
        <time>2017-12-18T19:05:39Z</time>
      </trkpt>
      <trkpt lat="62.636804126016" lon="17.964196793243">
        <ele>50</ele>
        <time>2017-12-18T19:05:40Z</time>
      </trkpt>
      <trkpt lat="62.636821225092" lon="17.964224453513">
        <ele>50</ele>
        <time>2017-12-18T19:05:41Z</time>
      </trkpt>
      <trkpt lat="62.636841844566" lon="17.964256891466">
        <ele>50</ele>
        <time>2017-12-18T19:05:42Z</time>
      </trkpt>
      <trkpt lat="62.636860703841" lon="17.964286395754">
        <ele>50</ele>
        <time>2017-12-18T19:05:43Z</time>
      </trkpt>
      <trkpt lat="62.636880401306" lon="17.964318833707">
        <ele>49.8</ele>
        <time>2017-12-18T19:05:44Z</time>
      </trkpt>
      <trkpt lat="62.636898841486" lon="17.964345991063">
        <ele>49.8</ele>
        <time>2017-12-18T19:05:45Z</time>
      </trkpt>
      <trkpt lat="62.636918036037" lon="17.9643730646">
        <ele>49.8</ele>
        <time>2017-12-18T19:05:46Z</time>
      </trkpt>
      <trkpt lat="62.636934716018" lon="17.964402149793">
        <ele>49.8</ele>
        <time>2017-12-18T19:05:47Z</time>
      </trkpt>
      <trkpt lat="62.636953156198" lon="17.964439784524">
        <ele>49.8</ele>
        <time>2017-12-18T19:05:48Z</time>
      </trkpt>
      <trkpt lat="62.636967740704" lon="17.96446861826">
        <ele>49.6</ele>
        <time>2017-12-18T19:05:49Z</time>
      </trkpt>
      <trkpt lat="62.636982744305" lon="17.964504744249">
        <ele>49.6</ele>
        <time>2017-12-18T19:05:50Z</time>
      </trkpt>
      <trkpt lat="62.636999843381" lon="17.964543720084">
        <ele>49.6</ele>
        <time>2017-12-18T19:05:51Z</time>
      </trkpt>
      <trkpt lat="62.637014344068" lon="17.964576241856">
        <ele>49.4</ele>
        <time>2017-12-18T19:05:52Z</time>
      </trkpt>
      <trkpt lat="62.637030521135" lon="17.964604907954">
        <ele>49.4</ele>
        <time>2017-12-18T19:05:53Z</time>
      </trkpt>
      <trkpt lat="62.637045943831" lon="17.964626449437">
        <ele>49.4</ele>
        <time>2017-12-18T19:05:54Z</time>
      </trkpt>
      <trkpt lat="62.637055583016" lon="17.964630305111">
        <ele>49.4</ele>
        <time>2017-12-18T19:05:55Z</time>
      </trkpt>
      <trkpt lat="62.637069916065" lon="17.964623096677">
        <ele>49.2</ele>
        <time>2017-12-18T19:05:56Z</time>
      </trkpt>
      <trkpt lat="62.637083997657" lon="17.964614547139">
        <ele>49.2</ele>
        <time>2017-12-18T19:05:57Z</time>
      </trkpt>
      <trkpt lat="62.637096486688" lon="17.964594598217">
        <ele>49.2</ele>
        <time>2017-12-18T19:05:58Z</time>
      </trkpt>
      <trkpt lat="62.63711140647" lon="17.964572218544">
        <ele>49</ele>
        <time>2017-12-18T19:05:59Z</time>
      </trkpt>
      <trkpt lat="62.637132445039" lon="17.964547491939">
        <ele>49</ele>
        <time>2017-12-18T19:06:00Z</time>
      </trkpt>
      <trkpt lat="62.637153902703" lon="17.964522010963">
        <ele>48.8</ele>
        <time>2017-12-18T19:06:01Z</time>
      </trkpt>
      <trkpt lat="62.637172426702" lon="17.964501642946">
        <ele>48.8</ele>
        <time>2017-12-18T19:06:02Z</time>
      </trkpt>
      <trkpt lat="62.637187765579" lon="17.964486806983">
        <ele>48.8</ele>
        <time>2017-12-18T19:06:03Z</time>
      </trkpt>
      <trkpt lat="62.637199500239" lon="17.964474234133">
        <ele>48.6</ele>
        <time>2017-12-18T19:06:04Z</time>
      </trkpt>
    </trkseg>
  </trk>
</gpx>